     2.10           OBSERVATION DATA    G (GPS)             RINEX VERSION / TYPE
teqc 2000Jul20 Karen Wendt 20040525 20:58:10UTC             PGM / RUN BY / DATE
Linux 2.0.36|Pentium II|gcc -static|Linux|486/DX+           COMMENT
teqc 2000Jul20 Karen Wendt 20040525 20:58:09UTC             COMMENT
BIT 2 OF LLI FLAGS DATA COLLECTED UNDER A/S CONDITION       COMMENT
chlk Chalk_Bluff_1934_1958_USC&GS                           MARKER NAME
GDH USGS                                                    OBSERVER / AGENCY
LP019992804 ASHTECH Z-XII3 CD00                             REC # / TYPE / VERS
CR620022605 ASH701945E_M NONE                               ANT # / TYPE
 -2454939.0000 -4273448.0000  4037400.0000                  APPROX POSITION XYZ
        1.2137        0.0000        0.0000                  ANTENNA: DELTA H/E/N
     1     1                                                WAVELENGTH FACT L1/2
     5    C1    L1    L2    P1    P2                        # / TYPES OF OBSERV
    30.0000                                                 INTERVAL
                                                            COMMENT
National Earthquake Hazard Reduction Program                COMMENT
Crustal Strain Project                                      COMMENT
345 Middlefield Road, MS/977                                COMMENT
U.S. Geological Survey, Menlo Park, California 94025        COMMENT
Contact: kwendt@usgs.gov (Ph: 650-329-4866)                 COMMENT
Antenna height is vertical to base of antenna               COMMENT
                                                            COMMENT
SNR is mapped to RINEX snr flag value [1-9]                 COMMENT
L1: 1 -> 1; 90 -> 5; 210 -> 9                               COMMENT
L2: 1 -> 1; 150 -> 5; 250 -> 9                              COMMENT
  2004     5    19     0     0   30.0000000     GPS         TIME OF FIRST OBS
                                                            END OF HEADER
 04  5 19  0  0 30.0000000  0  7G22G20G11G 1G14G25G30
  24580219.588    -2339110.88949  -1800930.58345  24580219.389    24580224.092
  22900980.137   -13390087.18049 -10176687.37746  22900979.632    22900984.174
  21416543.299   -21625242.14949 -16299510.89347  21416543.136    21416546.301
  23673121.512    -8732928.83949  -6050113.20946  23673121.280    23673128.800
  22527730.035   -12979300.43649 -10090881.75046  22527729.677    22527733.036
  20665282.545   -24501794.31349 -19072757.68748  20665282.533    20665285.882
  24167315.176    -7140733.83549  -5192019.57945  24167315.565    24167320.959
 04  5 19  0  1  0.0000000  0  7G22G20G11G 1G14G25G30
  24596563.084    -2253225.18949  -1734006.77245  24596563.074    24596567.739
  22884474.876   -13476822.53849 -10244273.31346  22884474.368    22884478.935
  21418541.401   -21614742.09449 -16291329.03947  21418541.232    21418544.366
  23658263.801    -8811005.59149  -6110952.05945  23658263.536    23658271.137
  22542240.022   -12903049.92849 -10031465.79346  22542239.652    22542243.022
  20663728.595   -24509960.29349 -19079120.76448  20663728.568    20663731.930
  24163917.721    -7158586.99949  -5205931.09645  24163918.108    24163923.478
 04  5 19  0  1 30.0000000  0  7G22G20G11G 1G14G25G30
  24612932.652    -2167203.10949  -1666976.70745  24612932.651    24612937.286
  22867988.260   -13563460.23349 -10311783.15346  22867987.771    22867992.256
  21420644.771   -21603688.93849 -16282716.20647  21420644.586    21420647.711
  23643437.977    -8888914.96349  -6171660.48645  23643437.719    23643445.262
  22556768.230   -12826703.90249  -9971975.41646  22556767.884    22556771.219
  20662277.207   -24517587.31349 -19085063.87848  20662277.193    20662280.530
  24160616.818    -7175932.50649  -5219447.04745  24160617.313    24160622.875
 04  5 19  0  2  0.0000000  0  7G22G20G11G 1G14G25G30
  24629328.095    -2081045.43249  -1599840.96745  24629328.061    24629332.661
  22851520.436   -13649999.02249 -10379215.92346  22851519.932    22851524.399
  21422853.200   -21592083.52749 -16273673.04047  21422853.047    21422856.180
  23628643.944    -8966657.06949  -6232238.57645  23628643.691    23628651.198
  22571314.330   -12750263.85749  -9912411.77146  22571313.984    22571317.302
  20660928.291   -24524675.91949 -19090587.44148  20660928.257    20660931.605
  24157413.081    -7192769.14349  -5232566.49145  24157413.491    24157419.111
 04  5 19  0  2 30.0000000  0  7G22G20G11G 1G14G25G30
  24645749.055    -1994752.68249  -1532599.98845  24645749.083    24645753.668
  22835071.720   -13736437.48549 -10446570.51046  22835071.179    22835075.626
  21425166.606   -21579926.30249 -16264199.88947  21425166.446    21425169.606
  23613881.784    -9044231.78949  -6292686.24645  23613881.571    23613888.966
  22585878.069   -12673730.96549  -9852775.77846  22585877.752    22585881.073
  20659681.705   -24531226.63849 -19095691.87248  20659681.680    20659685.014
  24154306.201    -7209095.73349  -5245288.47245  24154306.523    24154312.368
 04  5 19  0  3  0.0000000  0  7G22G20G11G 1G14G25G30
  24662195.630    -1908325.39349  -1465254.16645  24662195.647    24662200.408
  22818642.350   -13822773.88149 -10513845.57346  22818641.843    22818646.319
  21427584.965   -21567217.80649 -16254297.17547  21427584.832    21427587.965
  23599151.637    -9121638.55949  -6353003.03045  23599151.358    23599158.709
  22600459.371   -12597105.98849  -9793068.02246  22600459.038    22600462.365
  20658537.470   -24537239.51849 -19100377.21348  20658537.442    20658540.764
  24151296.316    -7224910.59349  -5257611.74645  24151297.144    24151302.469
 04  5 19  0  3 30.0000000  0  7G22G20G11G 1G14G25G30
  24678667.618    -1821764.82549  -1397804.50145  24678667.624    24678672.429
  22802232.608   -13909007.49449 -10581040.55046  22802232.103    22802236.574
  21430107.913   -21553959.63549 -16243966.14447  21430107.765    21430110.898
  23584453.282    -9198877.92249  -6413189.38145  23584453.014    23584460.356
  22615057.759   -12520390.79449  -9733289.98246  22615057.452    22615060.798
  20657495.459   -24542715.24349 -19104643.98848  20657495.424    20657498.750
  24148384.739    -7240213.21549  -5269535.84045  24148385.141    24148390.528
 04  5 19  0  4  0.0000000  0  7G22G20G11G 1G14G25G30
  24695164.952    -1735071.10749  -1330251.08745  24695164.963    24695169.864
  22785842.838   -13995136.37049 -10648153.90446  22785842.350    22785846.771
  21432735.466   -21540151.76249 -16233206.77047  21432735.326    21432738.468
  23569786.957    -9275949.18649  -6473244.74645  23569786.677    23569793.965
  22629673.211   -12443586.20049  -9673442.28446  22629672.884    22629676.285
  20656555.655   -24547653.79449 -19108492.18248  20656555.634    20656558.963
  24145570.763    -7255001.87449  -5281059.43645  24145571.019    24145576.035
 04  5 19  0  4 30.0000000  0  7G22G20G11G 1G14G25G30
  24711687.550    -1648244.49249  -1262594.08945  24711687.545    24711692.496
  22769473.298   -14081158.74449 -10715184.27546  22769472.802    22769477.182
  21435467.532   -21525794.73649 -16222019.48847  21435467.385    21435470.545
  23555152.740    -9352851.92749  -6533168.78445  23555152.458    23555159.662
  22644305.543   -12366692.94949  -9613525.49946  22644305.204    22644308.629
  20655717.997   -24552055.63049 -19111922.16748  20655717.974    20655721.292
  24142854.970    -7269274.95049  -5292181.23345  24142854.981    24142859.917
 04  5 19  0  5  0.0000000  0  6G20G11G 1G14G25G30
  22753123.744   -14167076.25649 -10782132.92946  22753123.250    22753127.571
  21438303.373   -21510892.26849 -16210407.18747  21438303.241    21438306.391
  23540550.030    -9429589.18949  -6592963.89045  23540549.767    23540556.835
  22658953.902   -12289715.26049  -9553542.90446  22658953.573    22658956.982
  20654981.846   -24555923.98349 -19114936.44048  20654981.804    20654985.127
  24140235.880    -7283034.32849  -5302902.86145  24140236.491    24140242.053
 04  5 19  0  5 30.0000000  0  6G20G11G 1G14G25G30
  22736795.119   -14252883.58649 -10848995.73346  22736794.605    22736798.911
  21441243.632   -21495441.24849 -16198367.44747  21441243.466    21441246.642
  23525979.571    -9506156.97549  -6652626.95045  23525979.294    23525986.329
  22673618.915   -12212650.41649  -9493492.40746  22673618.541    22673622.012
  20654347.886   -24559255.37649 -19117532.31048  20654347.853    20654351.183
  24137717.134    -7296275.14149  -5313220.30445  24137717.197    24137722.343
 04  5 19  0  6  0.0000000  0  6G20G11G 1G14G25G30
  22720487.715   -14338579.56449 -10915771.77346  22720487.204    22720491.476
  21444288.047   -21479442.77649 -16185901.12147  21444287.888    21444291.061
  23511441.359    -9582555.58349  -6712158.19845  23511441.028    23511448.058
  22688300.205   -12135500.01049  -9433375.23646  22688299.847    22688303.280
  20653815.921   -24562050.85149 -19119710.58148  20653815.881    20653819.212
  24135296.033    -7308996.46249  -5323132.97845  24135296.123    24135301.196
 04  5 19  0  6 30.0000000  0  6G20G11G 1G14G25G30
  22704202.085   -14424160.85149 -10982458.44146  22704201.558    22704205.850
  21447436.696   -21462896.58049 -16173007.99547  21447436.539    21447439.709
  23496935.647    -9658783.05049  -6771556.08046  23496935.320    23496942.329
  22702997.879   -12058263.26149  -9373190.78946  22702997.542    22703000.954
  20653386.083   -24564309.41149 -19121470.47948  20653386.048    20653389.368
  24132974.590    -7321195.47349  -5332638.69445  24132974.800    24132979.867
 04  5 19  0  7  0.0000000  0  6G20G11G 1G14G25G30
  22687938.179   -14509627.98149 -11049056.15046  22687937.668    22687941.984
  21450689.110   -21445805.08749 -16159689.96347  21450688.967    21450692.106
  23482462.151    -9734841.09749  -6830821.94646  23482461.830    23482468.797
  22717711.377   -11980943.32349  -9312941.51046  22717711.046    22717714.449
  20653058.040   -24566033.13249 -19122813.61548  20653058.005    20653061.341
  24130752.361    -7332873.10749  -5341738.12745  24130752.707    24130757.477
 04  5 19  0  7 30.0000000  0  6G20G11G 1G14G25G30
  22671696.289   -14594979.56949 -11115563.83646  22671695.791    22671700.072
  21454045.144   -21428168.99449 -16145947.56947  21454045.004    21454048.141
  23468020.962    -9810729.57349  -6889955.67046  23468020.577    23468027.598
  22732440.527   -11903541.24149  -9252628.23446  22732440.209    22732443.611
  20652831.679   -24567222.54249 -19123740.40748  20652831.662    20652834.995
  24128629.849    -7344028.02449  -5350430.22545  24128629.988    24128634.941
 04  5 19  0  8  0.0000000  0  6G20G11G 1G14G25G30
  22655476.981   -14680212.48149 -11181979.03846  22655476.460    22655480.774
  21457504.924   -21409987.95449 -16131780.53847  21457504.789    21457507.913
  23453612.328    -9886446.88949  -6948956.05946  23453611.912    23453618.898
  22747185.337   -11826056.70749  -9192250.69646  22747185.041    22747188.458
  20652707.161   -24567876.86249 -19124250.24648  20652707.128    20652710.477
  24126606.671    -7354657.75249  -5358713.17945  24126607.086    24126612.013
 04  5 19  0  8 30.0000000  0  6G20G11G 1G14G25G30
  22639280.087   -14765327.36849 -11248302.27146  22639279.593    22639283.919
  21461067.708   -21391265.31049 -16117191.47847  21461067.562    21461070.707
  23439235.900    -9961995.05249  -7007824.62146  23439235.475    23439242.443
  22761945.265   -11748492.88649  -9131811.38646  22761944.934    22761948.404
  20652683.945   -24567998.72749 -19124345.18748  20652683.914    20652687.256
  24124683.970    -7364763.63149  -5366587.84145  24124684.100    24124688.989
 04  5 19  0  9  0.0000000  0  6G20G11G 1G14G25G30
  22623106.297   -14850320.86249 -11314530.91546  22623105.770    22623110.170
  21464733.898   -21371999.50849 -16102179.17947  21464733.754    21464736.901
  23424891.987   -10037372.12149  -7066559.86246  23424891.585    23424898.520
  22776720.419   -11670848.99949  -9071309.68946  22776720.105    22776723.574
  20652762.310   -24567586.90449 -19124024.26648  20652762.280    20652765.630
  24122860.737    -7374342.52749  -5374051.90145  24122861.081    24122866.147
 04  5 19  0  9 30.0000000  0  6G20G11G 1G14G25G30
  22606955.796   -14935192.20649 -11380664.37246  22606955.251    22606959.643
  21468503.014   -21352192.73249 -16086745.34347  21468502.875    21468506.026
  23410580.585   -10112578.68949  -7125162.25546  23410580.203    23410587.045
  22791510.437   -11593126.90749  -9010747.04846  22791510.136    22791513.612
  20652941.920   -24566642.89249 -19123288.65448  20652941.886    20652945.243
  24121138.402    -7383394.16149  -5381105.07545  24121138.675    24121143.574
 04  5 19  0 10  0.0000000  0  6G20G11G 1G14G25G30
  22590828.621   -15019940.74549 -11446702.15146  22590828.085    22590832.439
  21472374.726   -21331846.83449 -16070891.41247  21472374.584    21472377.724
  23396301.351   -10187615.78149  -7183632.61046  23396300.978    23396307.736
  22806314.977   -11515328.66749  -8950125.08046  22806314.667    22806318.188
  20653222.539   -24565168.15249 -19122139.48948  20653222.502    20653225.836
  24119515.847    -7391918.76949  -5387747.63345  24119516.217    24119521.606
 04  5 19  0 10 30.0000000  0  6G20G11G 1G14G25G30
  22574725.705   -15104561.94549 -11512640.70246  22574725.163    22574729.504
  21476349.449   -21310959.73349 -16054615.76947  21476349.293    21476352.433
  23382054.982   -10262480.25949  -7241968.45146  23382054.641    23382061.354
  22821134.396   -11437452.23649  -8889442.17346  22821134.088    22821137.600
  20653604.588   -24563160.38349 -19120574.97648  20653604.557    20653607.883
  24117995.049    -7399912.14149  -5393976.21645  24117995.569    24118000.328
 04  5 19  0 11  0.0000000  0  6G20G11G 1G14G25G30
  22558646.741   -15189057.12249 -11578481.03546  22558646.184    22558650.540
  21480426.343   -21289535.57149 -16037921.62947  21480426.190    21480429.348
  23367840.971   -10337175.04249  -7300172.06646  23367840.611    23367847.337
  22835967.944   -11359501.65449  -8828701.48246  22835967.609    22835971.132
  20654087.384   -24560623.19249 -19118597.92448  20654087.343    20654090.678
  24116574.340    -7407376.50149  -5399792.58845  24116574.882    24116579.717
 04  5 19  0 11 30.0000000  0  6G20G11G 1G14G25G30
  22542592.333   -15273423.14849 -11644220.74946  22542591.799    22542596.145
  21484605.516   -21267573.81049 -16020808.59047  21484605.367    21484608.536
  23353659.584   -10411698.39649  -7358242.11146  23353659.248    23353665.952
  22850815.680   -11281476.38049  -8767902.59646  22850815.369    22850818.848
  20654671.101   -24557555.70449 -19116207.65948  20654671.069    20654674.397
  24115255.265    -7414309.29149  -5405194.71345  24115255.717    24115260.474
 04  5 19  0 12  0.0000000  0  6G20G11G 1G14G25G30
  22526562.878   -15357658.38849 -11709858.54946  22526562.345    22526566.659
  21488886.838   -21245075.28549 -16003277.28947  21488886.713    21488889.895
  23339510.869   -10486050.10049  -7416178.40346  23339510.504    23339517.174
  22865677.497   -11203377.34549  -8707046.24446  22865677.171    22865680.656
  20655355.621   -24553958.47249 -19113404.60648  20655355.595    20655358.900
  24114037.207    -7420709.64649  -5410182.00645  24114037.648    24114042.347
 04  5 19  0 12 30.0000000  0  6G20G11G 1G14G25G30
  22510558.338   -15441762.60149 -11775394.25046  22510557.795    22510562.087
  21493269.856   -21222042.42349 -15985329.62147  21493269.719    21493272.941
  23325394.600   -10560231.36349  -7473981.88146  23325394.226    23325400.849
  22880552.861   -11125206.85049  -8646134.20846  22880552.543    22880556.020
  20656140.523   -24549833.74049 -19110190.51548  20656140.502    20656143.786
  24112920.425    -7426577.93049  -5414754.68545  24112920.893    24112925.934
 04  5 19  0 13  0.0000000  0  6G20G11G 1G14G25G30
  22494579.487   -15525731.91649 -11840824.83846  22494578.937    22494583.215
  21497754.727   -21198474.33149 -15966964.89747  21497754.594    21497757.813
  23311311.162   -10634239.87349  -7531650.74846  23311310.805    23311317.380
  22895442.029   -11046963.73449  -8585165.57746  22895441.705    22895445.242
  20657026.067   -24545180.03849 -19106564.23948  20657026.039    20657029.326
  24111905.489    -7431910.96149  -5418910.27345  24111905.934    24111910.880
 04  5 19  0 13 30.0000000  0  6G20G11G 1G14G25G30
  22478626.300   -15609566.23449 -11906150.23646  22478625.751    22478630.002
  21502340.972   -21174373.54349 -15948185.08247  21502340.829    21502344.075
  23297260.306   -10708077.06849  -7589186.12146  23297259.983    23297266.534
  22910344.580   -10968650.50149  -8524142.31046  22910344.229    22910347.779
  20658011.885   -24539999.43849 -19102527.39448  20658011.846    20658015.142
  24110992.231    -7436709.71349  -5422649.54245  24110992.767    24110997.958
 04  5 19  0 14  0.0000000  0  6G20G11G 1G14G25G30
  22462699.434   -15693262.15249 -11971367.78146  22462698.887    22462703.150
  21507028.612   -21149739.59049 -15928989.81647  21507028.484    21507031.747
  23283242.418   -10781741.01749  -7646586.49546  23283242.097    23283248.690
  22925260.592   -10890266.41549  -8463063.83046  22925260.243    22925263.796
  20659098.158   -24534290.93249 -19098079.19148  20659098.124    20659101.447
  24110181.333    -7440971.32849  -5425970.27745  24110181.858    24110186.906
 04  5 19  0 14 30.0000000  0  6G20G11G 1G14G25G30
  22446798.604   -15776821.25349 -12036478.72146  22446798.085    22446802.298
  21511816.964   -21124576.62249 -15909382.32947  21511816.839    21511820.155
  23269256.927   -10855234.89649  -7703854.35246  23269256.609    23269263.179
  22940189.341   -10811815.45849  -8401933.24446  22940189.007    22940192.566
  20660284.151   -24528058.31549 -19093222.59448  20660284.123    20660287.452
  24109472.247    -7444698.17249  -5428874.30745  24109472.778    24109477.526
 04  5 19  0 15  0.0000000  0  6G20G11G 1G14G25G30
  22430924.696   -15860238.98949 -12101479.50346  22430924.164    22430928.398
  21516706.300   -21098883.02549 -15889361.36547  21516706.154    21516709.519
  23255304.284   -10928555.95349  -7760987.53346  23255303.958    23255310.542
  22955131.120   -10733296.04849  -8340749.31946  22955130.814    22955134.318
  20661570.192   -24521300.07349 -19087956.41448  20661570.163    20661573.497
  24108865.518    -7447886.93549  -5431359.04445  24108865.909    24108870.623
 04  5 19  0 15 30.0000000  0  6G20G11G 1G14G25G30
  22415077.951   -15943514.01149 -12166369.07646  22415077.445    22415081.653
  21521696.314   -21072660.43349 -15868928.19347  21521696.160    21521699.560
  23241384.538   -11001704.26749  -7817986.11446  23241384.184    23241390.773
  22970085.703   -10654709.25749  -8279512.88546  22970085.401    22970088.886
  20662956.075   -24514017.20349 -19082281.43648  20662956.053    20662959.379
  24108361.057    -7450537.05149  -5433424.03045  24108361.508    24108366.383
 04  5 19  0 16  0.0000000  0  6G20G11G 1G14G25G30
  22399258.538   -16026645.30249 -12231146.66246  22399258.046    22399262.223
  21526786.652   -21045910.49449 -15848084.11247  21526786.516    21526789.911
  23227497.557   -11074680.31649  -7874850.46746  23227497.218    23227503.808
  22985052.771   -10576056.71349  -8218225.23646  22985052.489    22985055.964
  20664441.554   -24506210.87449 -19076198.57648  20664441.525    20664444.847
  24107959.299    -7452648.29949  -5435069.15745  24107959.777    24107964.606
 04  5 19  0 16 30.0000000  0  6G20G11G 1G14G25G30
  22383466.917   -16109630.59549 -12295810.46846  22383466.439    22383470.594
  21531977.170   -21018634.03049 -15826829.74147  21531977.032    21531980.431
  23213643.429   -11147483.58449  -7931580.17146  23213643.119    23213649.748
  23000032.325   -10497338.75549  -8156886.59346  23000032.000    23000035.525
  20666026.541   -24497881.58949 -19069708.20848  20666026.528    20666029.857
  24107660.168    -7454219.58649  -5436293.52245  24107660.515    24107665.774
 04  5 19  0 17  0.0000000  0  6G20G11G 1G14G25G30
  22367703.437   -16192467.97849 -12360359.02546  22367702.992    22367707.124
  21537267.745   -20990831.87049 -15805165.73747  21537267.600    21537271.043
  23199822.352   -11220113.59749  -7988174.88546  23199822.047    23199828.625
  23015024.226   -10418555.91349  -8095497.40146  23015023.911    23015027.483
  20667710.956   -24489029.82149 -19062810.71848  20667710.941    20667714.286
  24107463.892    -7455249.75249  -5437096.23745  24107464.401    24107469.749
 04  5 19  0 17 30.0000000  0  6G20G11G 1G14G25G30
  22351968.317   -16275156.41349 -12424791.51846  22351967.885    22351971.945
  21542657.899   -20962506.41849 -15783093.97547  21542657.768    21542661.207
  23186034.016   -11292571.27249  -8044635.30446  23186033.693    23186040.237
  23030028.151   -10339710.07649  -8034059.12546  23030027.813    23030031.390
  20669494.449   -24479657.41949 -19055507.53948  20669494.447    20669497.764
  24107371.093    -7455739.15049  -5437477.59445  24107371.533    24107376.749
 04  5 19  0 18  0.0000000  0  6G20G11G 1G14G25G30
  22336261.917   -16357694.14949 -12489106.59146  22336261.438    22336265.508
  21548147.505   -20933658.53749 -15760615.12547  21548147.378    21548150.823
  23172278.528   -11364856.28749  -8100961.19446  23172278.196    23172284.748
  23045043.869   -10260801.92549  -7972572.28046  23045043.518    23045047.150
  20671376.889   -24469765.07749 -19047799.20648  20671376.884    20671380.224
  24107381.252    -7455686.92549  -5437436.89245  24107381.517    24107386.707
 04  5 19  0 18 30.0000000  0  6G20G11G 1G14G25G30
  22320584.750   -16440077.95449 -12553301.71946  22320584.271    22320588.344
  21553736.444   -20904288.44049 -15737729.35647  21553736.329    21553739.769
  23158556.183   -11436966.95849  -8157151.22746  23158555.856    23158562.414
  23060071.550   -10181830.91849  -7911036.47346  23060071.215    23060074.855
  20673358.382   -24459352.23249 -19039685.29148  20673358.382    20673361.732
  24107494.485    -7455090.85249  -5436972.41845  24107494.888    24107500.056
 04  5 19  0 19  0.0000000  0  6G20G11G 1G14G25G30
  22304936.780   -16522308.31449 -12617377.27447  22304936.314    22304940.379
  21559424.181   -20874399.10249 -15714438.97847  21559424.081    21559427.515
  23144866.619   -11508905.56649  -8213207.18046  23144866.342    23144872.840
  23075110.614   -10102800.04049  -7849454.00446  23075110.273    23075113.971
  20675438.340   -24448421.78049 -19031168.04248  20675438.362    20675441.714
  24107711.101    -7453952.79449  -5436085.60645  24107711.409    24107716.505
 04  5 19  0 19 30.0000000  0  6G20G11G 1G14G25G30
  22289318.781   -16604381.38949 -12681330.27247  22289318.306    22289322.388
  21565210.890   -20843989.86649 -15690743.48547  21565210.765    21565214.227
  23131210.289   -11580669.81949  -8269127.28046  23131210.007    23131216.400
  23090161.371   -10023707.94549  -7787823.83246  23090161.034    23090164.719
  20677616.957   -24436972.99649 -19022246.89948  20677616.984    20677620.323
  24108031.305    -7452269.84649  -5434774.21945  24108031.726    24108036.913
 04  5 19  0 20  0.0000000  0  6G20G11G 1G14G25G30
  22273730.590   -16686297.68049 -12745161.10547  22273730.127    22273734.185
  21571095.745   -20813064.65949 -15666645.93947  21571095.641    21571099.119
  23117586.684   -11652262.07049  -8324913.35846  23117586.438    23117592.818
  23105223.083    -9944558.01549  -7726148.61046  23105222.757    23105226.440
  20679893.607   -24425009.13149 -19012924.39848  20679893.628    20679896.970
  24108454.822    -7450043.84349  -5433039.68045  24108455.184    24108460.398
 04  5 19  0 20 30.0000000  0  6G20G11G 1G14G25G30
  22258172.842   -16768054.01649 -12808867.30347  22258172.378    22258176.452
  21577078.842   -20781623.44949 -15642146.31247  21577078.719    21577082.185
  23103996.082   -11723680.83349  -8380564.24246  23103995.807    23104002.157
  23120295.944    -9865349.63149  -7664427.82446  23120295.662    23120299.362
  20682268.402   -24412529.42049 -19003199.93748  20682268.423    20682271.738
  24108982.333    -7447272.81249  -5430880.42645  24108982.559    24108987.772
 04  5 19  0 21  0.0000000  0  6G20G11G 1G14G25G30
  22242645.895   -16849648.58249 -12872447.43747  22242645.417    22242649.495
  21583159.891   -20749667.52749 -15617245.61247  21583159.769    21583163.248
  23090438.606   -11794925.89249  -8436079.77346  23090438.292    23090444.580
  23135379.812    -9786083.60949  -7602662.13246  23135379.480    23135383.234
  20684741.155   -24399535.09049 -18993074.47448  20684741.162    20684744.481
  24109613.544    -7443956.36849  -5428296.17545  24109613.772    24109618.642
 04  5 19  0 21 30.0000000  0  6G20G11G 1G14G25G30
  22227150.190   -16931078.79449 -12935899.51447  22227149.714    22227153.772
  21589338.719   -20717197.57249 -15591944.36647  21589338.592    21589342.055
  23076914.238   -11865996.51449  -8491459.38646  23076913.915    23076920.167
  23150474.659    -9706759.91149  -7540851.49946  23150474.281    23150478.143
  20687311.796   -24386026.22249 -18982548.06948  20687311.792    20687315.119
  24110348.499    -7440093.04149  -5425285.78245  24110348.733    24110353.711
 04  5 19  0 22  0.0000000  0  6G20G11G 1G14G25G30
  22211686.208   -17012342.58449 -12999221.91047  22211685.710    22211689.734
  21595615.179   -20684214.83649 -15566243.55447  21595615.027    21595618.477
  23063423.097   -11936892.33849  -8546702.79146  23063422.795    23063429.003
  23165580.386    -9627378.87749  -7478996.18646  23165580.023    23165583.915
  20689980.175   -24372003.71349 -18971621.42748  20689980.195    20689983.516
  24111187.787    -7435682.19549  -5421848.76045  24111188.032    24111192.962
 04  5 19  0 22 30.0000000  0  6G20G11G 1G14G25G30
  22196253.780   -17093440.26549 -13062414.87347  22196253.293    22196257.267
  21601988.489   -20650722.82849 -15540145.90747  21601988.365    21601991.806
  23049964.874   -12007615.37549  -8601811.56546  23049964.532    23049970.762
  23180696.430    -9547943.79549  -7417098.76346  23180696.108    23180699.943
  20692745.732   -24357470.61249 -18960296.92348  20692745.730    20692749.053
  24112130.878    -7430725.41149  -5417986.34345  24112131.338    24112136.219
 04  5 19  0 23  0.0000000  0  6G20G11G 1G14G25G30
  22180853.741   -17174368.06149 -13125475.45647  22180853.235    22180857.207
  21608458.856   -20616721.11049 -15513651.07947  21608458.715    21608462.137
  23036539.872   -12078163.68949  -8656784.17846  23036539.526    23036545.725
  23195823.032    -9468453.50549  -7355158.30746  23195822.656    23195826.464
  20695608.620   -24342426.03749 -18948573.86148  20695608.618    20695611.933
  24113178.468    -7425220.49049  -5413696.77745  24113178.843    24113183.716
 04  5 19  0 23 30.0000000  0  6G20G11G 1G14G25G30
  22165486.129   -17255125.24949 -13188403.10147  22165485.614    22165489.517
  21615025.771   -20582211.84449 -15486760.76447  21615025.639    21615029.051
  23023148.005   -12148537.92249  -8711621.15946  23023147.677    23023153.833
  23210959.788    -9388909.66949  -7293176.14546  23210959.377    23210963.191
  20698568.432   -24326871.99949 -18936453.82148  20698568.429    20698571.723
  24114330.307    -7419167.85649  -5408980.43245  24114330.777    24114335.710
 04  5 19  0 24  0.0000000  0  6G20G11G 1G14G25G30
  22150151.383   -17335709.75349 -13251196.18347  22150150.889    22150154.773
  21621688.923   -20547196.85649 -15459476.37647  21621688.786    21621692.207
  23009789.301   -12218738.02649  -8766322.44646  23009788.975    23009795.088
  23226106.578    -9309312.86349  -7231152.69646  23226106.211    23226109.979
  20701625.042   -24310809.47649 -18923937.55848  20701625.023    20701628.337
  24115586.152    -7412567.07849  -5403836.99145  24115586.727    24115592.045
 04  5 19  0 24 30.0000000  0  6G20G11G 1G14G25G30
  22134849.904   -17416119.38749 -13313853.00447  22134849.413    22134853.299
  21628448.125   -20511676.94049 -15431798.54347  21628447.997    21628451.463
  22996463.790   -12288763.62349  -8820887.74946  22996463.480    22996469.600
  23241263.297    -9229663.72949  -7169088.47146  23241262.939    23241266.724
  20704778.235   -24294239.21349 -18911025.65648  20704778.220    20704781.528
  24116947.004    -7405417.42849  -5398265.82645  24116947.465    24116952.382
 04  5 19  0 25  0.0000000  0  6G20G11G 1G14G25G30
  22119581.794   -17496353.46749 -13376373.02347  22119581.313    22119585.216
  21635302.872   -20475655.04049 -15403729.54947  21635302.722    21635306.212
  22983171.291   -12358615.70549  -8875317.85546  22983171.032    22983177.100
  23256429.667    -9149963.97449  -7106984.79846  23256429.359    23256433.087
  20708027.653   -24277163.34349 -18897719.76848  20708027.631    20708030.955
  24118411.947    -7397719.73549  -5392267.59345  24118412.092    24118417.074
 04  5 19  0 25 30.0000000  0  6G20G11G 1G14G25G30
  22104347.848   -17576408.19549 -13438753.29147  22104347.359    22104351.304
  21642253.248   -20439130.60649 -15375268.97647  21642253.100    21642256.607
  22969912.307   -12428292.23449  -8929611.16346  22969911.961    22969918.051
  23271605.888    -9070212.42449  -7044840.76946  23271605.613    23271609.328
  20711373.394   -24259581.26449 -18884019.43848  20711373.395    20711376.718
  24119980.946    -7389471.62349  -5385840.50345  24119981.545    24119986.649
 04  5 19  0 26  0.0000000  0  6G20G11G 1G14G25G30
  22089148.453   -17656281.37949 -13500992.10147  22089147.971    22089151.924
  21649298.987   -20402105.09649 -15346417.95547  21649298.842    21649302.342
  22956686.633   -12497793.02949  -8983767.54046  22956686.327    22956692.435
  23286791.872    -8990409.51349  -6982656.72146  23286791.610    23286795.366
  20714815.306   -24241493.83249 -18869925.32948  20714815.312    20714818.614
  24121655.306    -7380672.78349  -5378984.28145  24121655.944    24121661.260
 04  5 19  0 26 30.0000000  0  6G20G11G 1G14G25G30
  22073983.261   -17735974.87649 -13563090.88847  22073982.780    22073986.754
  21656439.084   -20364583.72249 -15317180.54447  21656438.949    21656442.461
  22943493.754   -12567121.65549  -9037789.75646  22943493.430    22943499.577
  23301986.806    -8910559.76949  -6920436.18646  23301986.540    23301990.260
  20718352.451   -24222905.91449 -18855441.22748  20718352.453    20718355.750
  24123434.322    -7371326.49649  -5371701.43145  24123434.774    24123439.725
 04  5 19  0 27  0.0000000  0  6G20G11G 1G14G25G30
  22058853.259   -17815483.50149 -13625045.61547  22058852.764    22058856.718
  21663673.872   -20326564.83449 -15287555.45747  21663673.751    21663677.253
  22930334.349   -12636274.54749  -9091675.03146  22930334.030    22930340.092
  23317191.126    -8830660.70749  -6858177.20546  23317190.875    23317194.533
  20721985.298   -24203815.34649 -18840565.44748  20721985.298    20721988.587
  24125317.515    -7361429.26949  -5363989.33045  24125317.940    24125323.223
 04  5 19  0 27 30.0000000  0  6G20G11G 1G14G25G30
  22043758.708   -17894805.82149 -13686855.17647  22043758.214    22043762.151
  21671002.947   -20288050.42249 -15257544.25047  21671002.817    21671006.338
  22917208.244   -12705252.20349  -9145423.76146  22917207.937    22917214.001
  23332404.683    -8750713.16149  -6795880.45046  23332404.462    23332408.099
  20725713.442   -24184223.79249 -18825299.29548  20725713.437    20725716.738
  24127305.606    -7350981.16549  -5355847.94045  24127306.012    24127311.232
 04  5 19  0 28  0.0000000  0  6G20G11G 1G14G25G30
  22028699.626   -17973941.63949 -13748519.41347  22028699.109    22028703.066
  21678425.684   -20249043.86249 -15227149.55247  21678425.538    21678429.048
  22904115.164   -12774056.39449  -9199037.32246  22904114.841    22904120.959
  23347626.987    -8670719.66649  -6733547.89546  23347626.714    23347630.376
  20729536.352   -24164134.11049 -18809644.98948  20729536.341    20729539.651
  24129398.859    -7339983.65249  -5347278.43245  24129398.846    24129404.011
 04  5 19  0 28 30.0000000  0  6G20G11G 1G14G25G30
  22013676.773   -18052887.11949 -13810035.33147  22013676.279    22013680.210
  21685941.988   -20209545.23149 -15196371.42247  21685941.875    21685945.374
  22891055.463   -12842685.33749  -9252514.32746  22891055.172    22891061.264
  23362858.191    -8590679.30449  -6671178.82046  23362857.950    23362861.521
  20733454.194   -24143545.67149 -18793602.03848  20733454.188    20733457.520
  24131596.196    -7328435.06249  -5338279.53745  24131596.353    24131601.696
 04  5 19  0 29  0.0000000  0  6G20G11G 1G14G25G30
  21998690.513   -18131640.10049 -13871401.25447  21998690.064    21998693.949
  21693551.819   -20169555.48549 -15165210.60147  21693551.727    21693555.209
  22878029.227   -12911138.42949  -9305854.31046  22878028.930    22878034.999
  23378098.236    -8510592.25849  -6608773.36946  23378097.990    23378101.609
  20737466.793   -24122459.36349 -18777171.14648  20737466.791    20737470.106
  24133899.164    -7316334.55849  -5328850.55345  24133899.310    24133904.316
 04  5 19  0 29 30.0000000  0  6G20G11G 1G14G25G30
  21983740.644   -18210202.14049 -13932618.38847  21983740.173    21983744.070
  21701254.080   -20129079.99449 -15133671.27547  21701253.955    21701257.452
  22865035.737   -12979419.36149  -9359060.13646  22865035.456    22865041.525
  23393346.413    -8430462.66749  -6546334.76446  23393346.173    23393349.821
  20741573.188   -24100880.02049 -18760356.06248  20741573.188    20741576.502
  24136305.985    -7303685.77949  -5318994.37045  24136306.163    24136311.435
 04  5 19  0 30  0.0000000  0  6G20G11G 1G14G25G30
  21968828.376   -18288566.50649 -13993681.49147  21968827.887    21968831.797
  21709049.315   -20088115.75549 -15101751.11047  21709049.218    21709052.721
  22852075.963   -13047523.20549  -9412127.97346  22852075.688    22852081.734
  23408603.464    -8350286.52749  -6483859.88446  23408603.261    23408606.856
  20745774.037   -24078804.39849 -18743154.27748  20745774.040    20745777.372
  24138818.243    -7290483.78649  -5308707.10845  24138818.554    24138823.828
 04  5 19  0 30 30.0000000  0  6G20G11G 1G14G25G30
  21953953.712   -18366733.23749 -14054590.59547  21953953.214    21953957.121
  21716936.913   -20046666.27449 -15069452.83647  21716936.797    21716940.313
  22839149.490   -13115451.81449  -9465059.26846  22839149.196    22839155.224
  23423868.866    -8270066.46249  -6421350.77246  23423868.673    23423872.258
  20750068.758   -24056235.31249 -18725567.97248  20750068.766    20750072.092
  24141435.363    -7276730.55049  -5297990.29745  24141435.662    24141440.683
 04  5 19  0 31  0.0000000  0  6G20G11G 1G14G25G30
  21939116.881   -18444701.18849 -14115344.79847  21939116.386    21939120.286
  21724916.331   -20004734.16749 -15036778.48447  21724916.204    21724919.755
  22826256.204   -13183205.89549  -9517854.56346  22826255.912    22826261.965
  23439142.344    -8189803.81749  -6358808.49346  23439142.139    23439145.821
  20754456.961   -24033174.99649 -18707598.88348  20754456.978    20754460.307
  24144157.260    -7262426.50649  -5286844.29245  24144157.627    24144162.704
 04  5 19  0 31 30.0000000  0  6G20G11G 1G14G25G30
  21924318.090   -18522469.07449 -14175943.11347  21924317.591    21924321.509
  21732987.112   -19962322.04849 -15003730.10247  21732986.996    21732990.552
  22813396.048   -13250786.14849  -9570514.40846  22813395.755    22813401.788
  23454423.693    -8109499.92849  -6296234.06946  23454423.461    23454427.228
  20758938.327   -24009625.33049 -18689248.49048  20758938.326    20758941.661
  24146983.976    -7247572.50949  -5275269.75745  24146984.401    24146989.195
 04  5 19  0 32  0.0000000  0  6G20G11G 1G14G25G30
  21909558.276   -18600032.33549 -14236381.98147  21909557.769    21909561.666
  21741149.392   -19919429.09949 -14970307.04647  21741149.276    21741152.840
  22800569.459   -13318190.09649  -9623036.87946  22800569.155    22800575.165
  23469713.151    -8029153.16849  -6233626.24745  23469712.926    23469716.778
  20763512.957   -23985585.26649 -18670515.96648  20763512.969    20763516.326
  24149915.723    -7232165.96649  -5263264.62745  24149916.122    24149921.000
 04  5 19  0 32 30.0000000  0  6G20G11G 1G14G25G30
  21894837.428   -18677390.73349 -14296661.21747  21894836.920    21894840.823
  21749402.482   -19876058.78749 -14936512.01847  21749402.372    21749405.943
  22787776.114   -13385419.21049  -9675423.11546  22787775.791    22787781.786
  23485010.386    -7948765.52349  -6170986.55445  23485010.135    23485014.051
  20768180.343   -23961057.99849 -18651403.80348  20768180.348    20768183.707
  24152952.085    -7216208.54249  -5250830.29645  24152952.558    24152957.654
 04  5 19  0 33  0.0000000  0  6G20G11G 1G14G25G30
  21880156.130   -18754541.28249 -14356778.49447  21880155.614    21880159.520
  21757746.305   -19832211.72949 -14902345.50147  21757746.196    21757749.806
  22775016.255   -13452472.21649  -9727672.12446  22775015.965    22775021.880
  23500315.543    -7868336.56849  -6108314.67045  23500315.260    23500319.213
  20772940.447   -23936043.40949 -18631911.90548  20772940.463    20772943.812
  24156093.831    -7199699.30449  -5237965.93145  24156094.195    24156099.306
 04  5 19  0 33 30.0000000  0  6G20G11G 1G14G25G30
  21865514.439   -18831483.63549 -14416733.55247  21865513.930    21865517.835
  21766180.124   -19787891.75749 -14867810.48647  21766180.017    21766183.616
  22762289.603   -13519350.99649  -9779785.37646  22762289.275    22762295.156
  23515628.203    -7787868.63949  -6045612.43345  23515627.899    23515631.815
  20777792.629   -23910545.06649 -18612043.06148  20777792.643    20777795.985
  24159340.093    -7182639.91749  -5224672.88745  24159340.418    24159345.750
 04  5 19  0 34  0.0000000  0  6G20G11G 1G14G25G30
  21850912.918   -18908214.92149 -14476524.13347  21850912.428    21850916.345
  21774703.848   -19743099.50549 -14832907.45247  21774703.756    21774707.316
  22749596.265   -13586054.70549  -9831762.20946  22749595.943    22749601.764
  23530948.217    -7707361.50749  -5982879.64045  23530947.924    23530951.819
  20782736.839   -23884563.09849 -18591797.36648  20782736.841    20782740.186
  24162691.191    -7165029.62049  -5210950.58645  24162691.566    24162696.754
 04  5 19  0 34 30.0000000  0  6G20G11G 1G14G25G30
  21836351.919   -18984733.11249 -14536148.66647  21836351.439    21836355.376
  21783317.090   -19697836.80049 -14797637.84047  21783316.963    21783320.550
  22736936.257   -13652583.13249  -9883602.46346  22736935.967    22736941.697
  23546275.638    -7626815.82249  -5920116.81445  23546275.313    23546279.174
  20787772.869   -23858098.57549 -18571175.65748  20787772.874    20787776.207
  24166147.176    -7146868.42449  -5196798.99145  24166147.605    24166152.715
 04  5 19  0 35  0.0000000  0  6G20G11G 1G14G25G30
  21821831.710   -19061037.10649 -14595606.29247  21821831.231    21821835.203
  21792019.300   -19652106.53449 -14762003.89247  21792019.179    21792022.750
  22724309.426   -13718937.14549  -9935306.81046  22724309.128    22724314.844
  23561610.074    -7546232.84049  -5857324.90945  23561609.797    23561613.643
  20792900.216   -23831154.18349 -18550180.01848  20792900.215    20792903.538
  24169707.728    -7128157.31649  -5182218.90845  24169708.149    24169713.347
 04  5 19  0 35 30.0000000  0  6G20G11G 1G14G25G30
  21807353.101   -19137122.43249 -14654893.53047  21807352.614    21807356.588
  21800810.548   -19605908.22749 -14726005.23847  21800810.433    21800813.991
  22711716.232   -13785114.36049  -9986873.38546  22711715.946    22711721.610
  23576951.929    -7465611.09249  -5794502.81045  23576951.656    23576955.421
  20798119.037   -23803728.92949 -18528809.68648  20798119.042    20798122.370
  24173373.456    -7108894.26949  -5167208.74945  24173373.791    24173378.828
 04  5 19  0 36  0.0000000  0  6G20G11G 1G14G25G30
  21792916.013   -19212989.80449 -14714010.93547  21792915.539    21792919.477
  21809689.978   -19559246.70249 -14689645.63447  21809689.846    21809693.420
  22699156.263   -13851117.30749 -10038304.18646  22699155.932    22699161.597
  23592300.634    -7384953.52449  -5731652.80045  23592300.280    23592304.077
  20803428.576   -23775827.03749 -18507067.94648  20803428.586    20803431.908
  24177143.585    -7089082.06149  -5151770.65745  24177144.022    24177148.985
 04  5 19  0 36 30.0000000  0  6G20G11G 1G14G25G30
  21778521.039   -19288635.81049 -14772955.84147  21778520.544    21778524.473
  21818657.513   -19512122.08849 -14652925.17547  21818657.378    21818660.943
  22686629.658   -13916944.55049 -10089598.06546  22686629.363    22686634.968
  23607656.236    -7304259.45249  -5668774.34545  23607655.930    23607659.719
  20808828.799   -23747448.60549 -18484954.87048  20808828.808    20808832.122
  24181018.208    -7068719.43749  -5135903.69445  24181018.758    24181023.936
 04  5 19  0 37  0.0000000  0  6G20G11G 1G14G25G30
  21764168.680   -19364057.80149 -14831726.19547  21764168.190    21764172.115
  21827712.848   -19464536.01349 -14615845.14047  21827712.729    21827716.307
  22674136.627   -13982595.52949 -10140754.59646  22674136.322    22674141.949
  23623018.763    -7223528.67049  -5605867.28245  23623018.415    23623022.344
  20814319.581   -23718594.33749 -18462471.02748  20814319.596    20814322.912
  24184997.999    -7047806.04649  -5119607.51545  24184998.484    24185003.484
 04  5 19  0 37 30.0000000  0  6G20G11G 1G14G25G30
  21749858.668   -19439257.21549 -14890323.11247  21749858.186    21749862.116
  21836855.027   -19416493.56249 -14578409.49047  21836854.900    21836858.520
  22661676.438   -14048073.78849 -10191776.54746  22661676.158    22661681.816
  23638387.545    -7142765.39249  -5542934.91345  23638387.175    23638391.144
  20819899.980   -23689268.98249 -18439620.09648  20819900.013    20819903.331
  24189081.631    -7026345.44449  -5102884.98145  24189082.067    24189087.469
 04  5 19  0 38  0.0000000  0  6G20G11G 1G14G25G30
  21735592.229   -19514227.69949 -14948741.63847  21735591.743    21735595.653
  21846084.474   -19367992.60349 -14540616.56447  21846084.360    21846087.971
  22649249.997   -14113374.91049 -10242660.47346  22649249.741    22649255.324
  23653763.177    -7061965.88849  -5479974.30645  23653762.841    23653766.800
  20825570.585   -23659469.76949 -18416399.92948  20825570.627    20825573.912
  24193270.413    -7004333.70649  -5085732.96345  24193270.878    24193276.127
 04  5 19  0 38 30.0000000  0  6G20G11G 1G14G25G30
  21721369.195   -19588970.20349 -15006982.51947  21721368.709    21721372.614
  21855400.199   -19319038.32949 -14502470.39947  21855400.081    21855403.684
  22636856.687   -14178501.98049 -10293408.75946  22636856.421    22636861.997
  23669145.016    -6981133.72849  -5416988.25145  23669144.742    23669148.715
  20831330.540   -23629201.04349 -18392813.90248  20831330.560    20831333.867
  24197563.314    -6981774.33249  -5068154.23545  24197563.786    24197568.969
 04  5 19  0 39  0.0000000  0  6G20G11G 1G14G25G30
  21707190.285   -19663480.74049 -15065042.64547  21707189.795    21707193.709
  21864802.179   -19269630.51249 -14463970.82747  21864802.062    21864805.682
  22624496.903   -14243452.64749 -10344019.60746  22624496.637    22624502.193
  23684533.405    -6900267.17049  -5353975.39845  23684533.179    23684537.203
  20837179.893   -23598462.48549 -18368861.77748  20837179.921    20837183.200
  24201960.737    -6958665.20849  -5050147.13545  24201961.220    24201966.587
 04  5 19  0 39 30.0000000  0  6G20G11G 1G14G25G30
  21693055.643   -19737758.63049 -15122921.49147  21693055.171    21693059.091
  21874289.832   -19219772.60849 -14425120.54547  21874289.724    21874293.352
  22612170.331   -14308228.66449 -10394494.36246  22612170.101    22612175.686
  23699927.982    -6819368.27649  -5290937.34245  23699927.791    23699931.855
  20843118.037   -23567257.32049 -18344546.06448  20843118.070    20843121.363
  24206462.616    -6935008.57949  -5031713.37945  24206462.915    24206468.216
 04  5 19  0 40  0.0000000  0  6G20G11G 1G14G25G30
  21678965.848   -19811800.86949 -15180616.71047  21678965.385    21678969.287
  21883862.938   -19169465.66449 -14385920.35747  21883862.827    21883866.493
  22599877.211   -14372828.89249 -10444832.13046  22599876.991    22599882.594
  23715328.829    -6738436.84049  -5227873.93345  23715328.570    23715332.653
  20849144.865   -23535586.18749 -18319867.25648  20849144.897    20849148.173
  24211068.737    -6910803.55449  -5012852.33645  24211069.066    24211074.309
 04  5 19  0 40 30.0000000  0  6G20G11G 1G14G25G30
  21664921.289   -19885605.34949 -15238126.65847  21664920.837    21664924.724
  21893521.155   -19118711.57049 -14346371.73847  21893521.041    21893524.720
  22587617.623   -14437253.20949 -10495032.83446  22587617.388    22587622.967
  23730735.688    -6657473.12849  -5164785.38045  23730735.523    23730739.606
  20855260.132   -23503450.26849 -18294826.28148  20855260.144    20855263.422
  24215779.064    -6886050.59449  -4993564.30245  24215779.505    24215784.832
 04  5 19  0 41  0.0000000  0  6G20G11G 1G14G25G30
  21650922.256   -19959170.70449 -15295450.27747  21650921.779    21650925.668
  21903263.812   -19067513.54349 -14306477.20247  21903263.686    21903267.396
  22575391.371   -14501502.40649 -10545097.06646  22575391.102    22575396.660
  23746148.540    -6576478.25149  -5101672.52245  23746148.344    23746152.384
  20861463.378   -23470851.93949 -18269424.97948  20861463.389    20861466.667
  24220593.351    -6860750.73149  -4973850.12145  24220593.683    24220599.041
 04  5 19  0 41 30.0000000  0  6G20G11G 1G14G25G30
  21636968.779   -20032496.71049 -15352587.39547  21636968.299    21636972.194
  21913090.258   -19015875.23949 -14266239.59447  21913090.143    21913093.876
  22563198.039   -14565578.38049 -10595026.34046  22563197.773    22563203.375
  23761566.933    -6495454.64649  -5038537.29745  23761566.649    23761570.744
  20867753.968   -23437794.58649 -18243666.00648  20867753.985    20867757.248
  24225511.467    -6834906.37549  -4953711.65945  24225511.888    24225517.011
 04  5 19  0 42  0.0000000  0  6G20G11G 1G14G25G30
  21623061.749   -20105578.33849 -15409534.08247  21623061.276    21623065.154
  21923000.693   -18963795.65349 -14225658.12447  21923000.562    21923004.339
  22551038.342   -14629478.08549 -10644818.25146  22551038.051    22551043.620
  23776991.136    -6414399.95049  -4975377.83745  23776990.812    23776994.937
  20874132.178   -23404276.88449 -18217548.31448  20874132.189    20874135.459
  24230533.464    -6808515.00449  -4933146.96945  24230533.990    24230539.280
 04  5 19  0 42 30.0000000  0  6G20G11G 1G14G25G30
  21609201.530   -20178414.36549 -15466289.39647  21609201.051    21609204.906
  21932994.493   -18911277.90249 -14184735.23147  21932994.354    21932998.143
  22538911.973   -14693202.45249 -10694473.52846  22538911.676    22538917.218
  23792421.006    -6333315.51949  -4912195.20745  23792420.740    23792424.770
  20880597.552   -23370301.10849 -18191073.68048  20880597.573    20880600.847
  24235659.482    -6781577.85849  -4912156.98345  24235659.962    24235665.246
 04  5 19  0 43  0.0000000  0  6G20G11G 1G14G25G30
  21595388.456   -20251002.42749 -15522851.48947  21595387.974    21595391.823
  21943071.330   -18858324.00749 -14143472.48247  21943071.188    21943074.937
  22526819.018   -14756751.03749 -10743991.84546  22526818.778    22526824.255
  23807856.552    -6252201.49549  -4848989.51645  23807856.234    23807860.365
  20887149.816   -23335868.60749 -18164243.15948  20887149.817    20887153.113
  24240889.175    -6754095.24449  -4890741.96945  24240889.672    24240895.221
 04  5 19  0 43 30.0000000  0  6G20G11G 1G14G25G30
  21581622.777   -20323341.35449 -15579219.45347  21581622.294    21581626.143
  21953230.566   -18804936.95249 -14101872.20647  21953230.445    21953234.173
  22514759.320   -14820125.12749 -10793374.18846  22514759.057    22514764.506
  23823297.344    -6171059.55549  -4785762.07645  23823297.044    23823301.243
  20893788.433   -23300982.45849 -18137059.14248  20893788.441    20893791.714
  24246222.525    -6726068.79949  -4868903.15645  24246222.989    24246228.087
 04  5 19  0 44  0.0000000  0  6G20G11G 1G14G25G30
  21567904.932   -20395428.94349 -15635391.57347  21567904.451    21567908.298
  21963471.881   -18751118.50949 -14059935.78647  21963471.785    21963475.518
  22502732.899   -14883324.29449 -10842620.22446  22502732.632    22502738.067
  23838743.450    -6089889.78249  -4722512.95545  23838743.160    23838747.332
  20900513.171   -23265643.84249 -18109522.55748  20900513.176    20900516.465
  24251659.278    -6697498.75049  -4846640.81345  24251659.835    24251664.958
 04  5 19  0 44 30.0000000  0  7G16G20G11G 1G14G25G30
  24651594.389    -3892951.73459  -3021492.07845  24651594.217    24651603.457
  21554234.803   -20467265.78749 -15691368.31247  21554234.324    21554238.172
  21973794.302   -18696873.85149 -14017667.25447  21973794.199    21973797.972
  22490739.206   -14946351.14349 -10891731.99146  22490738.946    22490744.387
  23854194.239    -6008695.32949  -4659244.59845  23854193.985    23854198.074
  20907323.144   -23229857.08749 -18081636.77448  20907323.161    20907326.439
  24257198.794    -6668388.33149  -4823957.38745  24257199.339    24257204.857
 04  5 19  0 45  0.0000000  0  7G16G20G11G 1G14G25G30
  24633631.845    -3987344.29449  -3095044.40745  24633631.721    24633640.866
  21540613.323   -20538847.11949 -15747145.95247  21540612.844    21540616.704
  21984197.971   -18642202.47449 -13975066.21147  21984197.847    21984201.607
  22478778.796   -15009203.19249 -10940707.53946  22478778.546    22478783.991
  23869650.188    -5927473.94749  -4595955.25145  23869649.965    23869654.016
  20914218.628   -23193621.20249 -18053401.02048  20914218.638    20914221.924
  24262841.457    -6638735.56549  -4800851.32445  24262842.052    24262847.393
 04  5 19  0 45 30.0000000  0  7G16G20G11G 1G14G25G30
  24615662.897    -4081770.46849  -3168622.92645  24615662.762    24615671.880
  21527041.292   -20610168.28849 -15802720.86447  21527040.820    21527044.686
  21994682.924   -18587103.83249 -13932132.23247  21994682.808    21994686.577
  22466852.209   -15071877.61849 -10989544.68146  22466851.943    22466857.400
  23885111.635    -5846223.52049  -4532643.27445  23885111.441    23885115.526
  20921199.752   -23156935.04049 -18024814.40048  20921199.775    20921203.078
  24268588.015    -6608538.46349  -4777321.14545  24268588.315    24268593.817
 04  5 19  0 46  0.0000000  0  7G16G20G11G 1G14G25G30
  24597687.654    -4176230.03549  -3242227.45845  24597687.515    24597696.524
  21513518.726   -20681229.68449 -15858093.36147  21513518.251    21513522.128
  22005248.273   -18531582.55549 -13888868.93447  22005248.173    22005251.965
  22454958.924   -15134376.94349 -11038245.39046  22454958.666    22454964.078
  23900578.049    -5764946.95049  -4469310.93545  23900577.854    23900581.991
  20928265.765   -23119802.82849 -17995880.21348  20928265.783    20928269.114
  24274437.559    -6577800.18549  -4753369.19345  24274437.819    24274443.336
 04  5 19  0 46 30.0000000  0  7G16G20G11G 1G14G25G30
  24579706.573    -4270719.24549  -3315855.07845  24579706.454    24579715.640
  21500046.199   -20752028.06149 -15913260.90747  21500045.748    21500049.587
  22015893.757   -18475640.06049 -13845277.40747  22015893.674    22015897.488
  22443099.199   -15196700.30549 -11086808.98246  22443098.916    22443104.278
  23916049.571    -5683643.65949  -4405957.76845  23916049.374    23916053.513
  20935416.497   -23082225.42249 -17966599.11748  20935416.523    20935419.857
  24280389.834    -6546520.38049  -4728995.31045  24280390.306    24280395.323
 04  5 19  0 47  0.0000000  0  7G16G20G11G 1G14G25G30
  24561720.230    -4365236.00049  -3389504.16345  24561720.106    24561729.361
  21486623.983   -20822562.29249 -15968222.62247  21486623.530    21486627.359
  22026618.882   -18419279.31949 -13801359.98147  22026618.799    22026622.605
  22431272.711   -15258848.52549 -11135236.10546  22431272.423    22431277.786
  23931525.936    -5602315.08049  -4342584.90145  23931525.729    23931529.956
  20942651.489   -23044205.26349 -17936973.01648  20942651.504    20942654.856
  24286444.863    -6514700.69549  -4704200.79945  24286445.303    24286450.766
 04  5 19  0 47 30.0000000  0  7G16G20G11G 1G14G25G30
  24543729.465    -4459776.62249  -3463171.85645  24543729.370    24543738.589
  21473252.533   -20892829.54049 -16022976.30147  21473252.077    21473255.914
  22037423.310   -18362501.83749 -13757117.82647  22037423.219    22037427.001
  22419479.678   -15320820.95449 -11183526.25346  22419479.437    22419484.735
  23947007.237    -5520960.88149  -4279192.05645  23947007.022    23947011.175
  20949970.546   -23005743.34449 -17907002.69348  20949970.577    20949973.914
  24292602.697    -6482340.89649  -4678985.37345  24292603.041    24292608.347
 04  5 19  0 48  0.0000000  0  7G16G20G11G 1G14G25G30
  24525734.514    -4554339.05849  -3536856.54245  24525734.398    24525743.614
  21459932.168   -20962828.47949 -16077520.90747  21459931.708    21459935.518
  22048306.430   -18305311.00049 -13712553.56547  22048306.335    22048310.099
  22407719.973   -15382618.40249 -11231680.03946  22407719.689    22407724.964
  23962493.084    -5439582.40649  -4215780.30545  23962492.851    23962497.041
  20957373.083   -22966842.54149 -17876690.38048  20957373.123    20957376.474
  24298862.909    -6449442.83249  -4653350.55745  24298863.228    24298868.584
 04  5 19  0 48 30.0000000  0  7G16G20G11G 1G14G25G30
  24507736.087    -4648920.38749  -3610555.95345  24507735.918    24507745.011
  21446663.323   -21032556.81649 -16131854.65747  21446662.864    21446666.658
  22059267.810   -18247708.66749 -13667668.67147  22059267.707    22059271.492
  22395993.556   -15444240.80349 -11279697.42546  22395993.277    22395998.533
  23977983.469    -5358179.96049  -4152349.87745  23977983.257    23977987.530
  20964858.906   -22927504.29149 -17846037.20048  20964858.950    20964862.308
  24305225.517    -6416007.10349  -4627296.71945  24305225.853    24305231.189
 04  5 19  0 49  0.0000000  0  7G16G20G11G 1G14G25G30
  24489734.542    -4743518.09649  -3684268.12845  24489734.341    24489743.456
  21433446.316   -21102012.64849 -16185976.06447  21433445.854    21433449.662
  22070307.019   -18189697.25149 -13622465.00447  22070306.915    22070310.742
  22384300.380   -15505688.39149 -11327578.60546  22384300.112    22384305.399
  23993478.361    -5276753.98049  -4088901.11445  23993478.051    23993482.458
  20972427.654   -22887730.33049 -17815044.50448  20972427.700    20972431.057
  24311690.021    -6382034.73849  -4600824.79345  24311690.467    24311695.739
 04  5 19  0 49 30.0000000  0  7G16G20G11G 1G14G25G30
  24471730.758    -4838127.40649  -3757989.34245  24471730.534    24471739.565
  21420281.896   -21171192.08249 -16239882.09147  21420281.438    21420285.216
  22081423.906   -18131277.74049 -13576943.34247  22081423.798    22081427.641
  22372640.851   -15566959.40149 -11375322.18046  22372640.584    22372645.875
  24008977.921    -5195303.22449  -4025433.03145  24008977.661    24008982.058
  20980079.221   -22847521.00549 -17783712.56248  20980079.263    20980082.629
  24318257.130    -6347524.68149  -4573933.82545  24318257.541    24318262.866
 04  5 19  0 50  0.0000000  0  7G16G20G11G 1G14G25G30
  24453724.534    -4932749.48249  -3831720.51745  24453724.399    24453733.202
  21407169.695   -21240097.02749 -16293574.23647  21407169.225    21407172.995
  22092617.283   -18072456.28549 -13531108.47347  22092617.170    22092621.042
  22361014.113   -15628057.81149 -11422931.27646  22361013.842    22361019.158
  24024481.431    -5113832.01049  -3961949.02945  24024481.197    24024485.589
  20987812.593   -22806881.86149 -17752045.69948  20987812.630    20987815.998
  24324925.710    -6312481.78749  -4546627.69545  24324926.123    24324931.394
 04  5 19  0 50 30.0000000  0  7G16G20G11G 1G14G25G30
  24435717.105    -5027378.43749  -3905457.05545  24435716.836    24435725.670
  21394110.694   -21308722.44249 -16347048.55947  21394110.226    21394114.014
  22103887.269   -18013232.15349 -13484959.82947  22103887.167    22103891.053
  22349420.772   -15688980.63849 -11470403.54546  22349420.548    22349425.868
  24039989.321    -5032338.00649  -3898447.26545  24039989.012    24039993.436
  20995627.957   -22765811.81949 -17720043.06848  20995627.999    20995631.406
  24331695.756    -6276903.95649  -4518904.73945  24331696.226    24331701.556
 04  5 19  0 51  0.0000000  0  7G16G20G11G 1G14G25G30
  24417708.540    -5122012.72449  -3979197.77745  24417708.333    24417717.123
  21381104.969   -21377067.65749 -16400304.55047  21381104.509    21381108.312
  22115233.195   -17953609.17449 -13438500.40147  22115233.083    22115236.969
  22337860.610   -15749729.47649 -11517740.24247  22337860.381    22337865.705
  24055501.121    -4950822.83449  -3834928.99745  24055500.874    24055505.322
  21003524.716   -22724314.08349 -17687707.17048  21003524.762    21003528.150
  24338567.251    -6240793.61849  -4490766.84645  24338567.650    24338573.265
 04  5 19  0 51 30.0000000  0  6G16G20G11G 1G14G25
  24399699.703    -5216648.05449  -4052939.31045  24399699.540    24399708.268
  21368153.260   -21445129.17649 -16453339.47647  21368152.796    21368156.617
  22126654.799   -17893588.41349 -13391731.01147  22126654.686    22126658.541
  22326333.847   -15810302.81049 -11564940.18547  22326333.591    22326338.922
  24071017.128    -4869285.69149  -3771393.61345  24071016.932    24071021.431
  21011502.741   -22682389.10249 -17655038.35448  21011502.789    21011506.196
 04  5 19  0 52  0.0000000  0  6G16G20G11G 1G14G25
  24381691.444    -5311280.98849  -4126678.97645  24381691.247    24381699.916
  21355256.069   -21512904.20049 -16506151.15747  21355255.614    21355259.412
  22138151.754   -17833171.67649 -13344653.06347  22138151.647    22138155.507
  22314840.637   -15870700.11349 -11612002.96147  22314840.368    22314845.650
  24086537.395    -4787726.36249  -3707840.94745  24086537.187    24086541.760
  21019561.896   -22640038.00749 -17622037.50248  21019561.940    21019565.346
 04  5 19  0 52 30.0000000  0  6G16G20G11G 1G14G25
  24363683.646    -5405911.69649  -4200416.92445  24363683.383    24363692.159
  21342413.286   -21580393.53049 -16558740.22647  21342412.815    21342416.615
  22149723.014   -17772364.25149 -13297270.68547  22149722.906    22149726.818
  22303380.286   -15930924.54949 -11658931.04047  22303380.012    22303385.283
  24102061.326    -4706148.15749  -3644273.58045  24102061.110    24102065.666
  21027701.162   -22597265.95649 -17588708.63348  21027701.185    21027704.610
 04  5 19  0 53  0.0000000  0  6G16G20G11G 1G14G25
  24345677.506    -5500533.57549  -4274147.99445  24345677.338    24345685.896
  21329625.880   -21647591.56649 -16611102.31047  21329625.428    21329629.210
  22161368.823   -17711165.10249 -13249583.07747  22161368.714    22161372.654
  22291953.462   -15990972.48649 -11705721.58647  22291953.192    22291958.470
  24117589.365    -4624547.94149  -3580689.05345  24117589.161    24117593.659
  21035920.889   -22554070.90849 -17555050.15848  21035920.935    21035924.364
 04  5 19  0 53 30.0000000  0  6G16G20G11G 1G14G25
  24327672.921    -5595147.64149  -4347872.98945  24327672.673    24327681.195
  21316893.582   -21714500.16949 -16663238.86547  21316893.132    21316896.934
  22173087.990   -17649580.52749 -13201595.13147  22173087.871    22173091.831
  22280559.513   -16050847.86049 -11752377.66447  22280559.230    22280564.484
  24133120.816    -4542930.02249  -3517090.72745  24133120.538    24133125.133
  21044219.989   -22510458.80249 -17521066.70248  21044220.040    21044223.466
 04  5 19  0 54  0.0000000  0  6G16G20G11G 1G14G25
  24309670.784    -5689748.05349  -4421587.34145  24309670.635    24309678.920
  21304217.323   -21781114.15749 -16715145.85047  21304216.878    21304220.682
  22184880.619   -17587610.01449 -13153306.46847  22184880.507    22184884.462
  22269198.968   -16110547.69749 -11798896.96147  22269198.675    22269203.941
  24148656.064    -4461291.82949  -3453476.59645  24148655.903    24148660.373
  21052598.699   -22466428.45149 -17486757.34348  21052598.739    21052602.171
 04  5 19  0 54 30.0000000  0  6G16G20G11G 1G14G25
  24291672.007    -5784331.58749  -4495288.54945  24291671.846    24291679.981
  21291597.574   -21847431.19749 -16766821.44847  21291597.124    21291600.930
  22196746.243   -17525255.73949 -13104718.76647  22196746.152    22196750.107
  22257871.807   -16170072.06149 -11845279.52947  22257871.506    22257876.748
  24164195.160    -4379633.57849  -3389846.84445  24164194.966    24164199.424
  21061056.660   -22421981.65249 -17452123.47848  21061056.714    21061060.125
 04  5 19  0 55  0.0000000  0  6G16G20G11G 1G14G25
  24273676.684    -5878897.00949  -4568975.64845  24273676.384    24273684.547
  21279034.426   -21913451.04549 -16818265.46747  21279033.971    21279037.753
  22208684.128   -17462521.86949 -13055835.27947  22208684.018    22208687.974
  22246577.757   -16229422.47449 -11891526.54647  22246577.465    22246582.652
  24179737.684    -4297957.28149  -3326203.03645  24179737.445    24179741.946
  21069593.207   -22377121.85149 -17417167.78948  21069593.234    21069596.650
 04  5 19  0 55 30.0000000  0  6G16G20G11G 1G14G25
  24255685.321    -5973441.32349  -4642646.30145  24255685.109    24255693.188
  21266528.280   -21979171.40149 -16869476.11747  21266527.819    21266531.590
  22220693.780   -17399410.76549 -13006657.83447  22220693.684    22220697.684
  22235316.807   -16288599.00649 -11937638.07647  22235316.521    22235321.664
  24195283.573    -4216263.20149  -3262545.36845  24195283.384    24195287.851
  21078207.949   -22331850.91649 -17381891.74048  21078207.990    21078211.412
 04  5 19  0 56  0.0000000  0  6G16G20G11G 1G14G25
  24237698.737    -6067960.43949  -4716297.31245  24237698.511    24237706.568
  21254079.684   -22044589.07849 -16920450.90847  21254079.227    21254082.980
  22232774.894   -17335924.14349 -12957187.78947  22232774.800    22232778.817
  22224089.100   -16347600.75449 -11983613.41647  22224088.814    22224093.962
  24210833.035    -4134550.65849  -3198873.31845  24210832.839    24210837.303
  21086900.764   -22286169.95649 -17346296.19248  21086900.792    21086904.212
 04  5 19  0 56 30.0000000  0  6G16G20G11G 1G14G25
  24219717.702    -6162450.35049  -4789925.57445  24219717.429    24219725.407
  21241689.361   -22109700.53249 -16971187.08747  21241688.905    21241692.656
  22244927.336   -17272062.99649 -12907425.90247  22244927.217    22244931.231
  22212894.912   -16406426.39149 -12029451.52747  22212894.643    22212899.742
  24226386.174    -4052818.76149  -3135186.16745  24226385.902    24226390.497
  21095671.514   -22240079.29549 -17310381.40248  21095671.531    21095674.972
 04  5 19  0 57  0.0000000  0  6G16G20G11G 1G14G25
  24201742.071    -6256911.85049  -4863531.68045  24201741.843    24201749.726
  21229356.951   -22174507.62749 -17021686.10247  21229356.492    21229360.262
  22257149.843   -17207833.43449 -12857376.93947  22257149.746    22257153.746
  22201733.608   -16465079.63549 -12075155.30047  22201733.330    22201738.395
  24241942.134    -3971071.74749  -3071487.24645  24241941.803    24241946.513
  21104519.190   -22193584.53549 -17274151.72348  21104519.225    21104522.662
 04  5 19  0 57 30.0000000  0  6G16G20G11G 1G14G25
  24183773.052    -6351338.28049  -4937110.47145  24183772.873    24183780.698
  21217083.584   -22239004.35649 -17071943.27247  21217083.129    21217086.910
  22269442.612   -17143234.77349 -12807040.36647  22269442.506    22269446.490
  22190605.678   -16523556.95449 -12120721.98447  22190605.394    22190610.467
  24257501.515    -3889306.17749  -3007773.86445  24257501.272    24257505.954
  21113444.040   -22146684.16149 -17237605.98648  21113444.087    21113447.513
 04  5 19  0 58  0.0000000  0  6G16G20G11G 1G14G25
  24165810.984    -6445728.57849  -5010661.10245  24165810.727    24165818.496
  21204869.318   -22303190.83949 -17121958.69347  21204868.875    21204872.627
  22281804.823   -17078271.29449 -12756419.51447  22281804.707    22281808.661
  22179510.797   -16581860.60049 -12166153.33747  22179510.525    22179515.627
  24273064.036    -3807524.38549  -2944047.85545  24273063.867    24273068.557
  21122445.317   -22099382.05849 -17200747.21048  21122445.345    21122448.790
 04  5 19  0 58 30.0000000  0  6G16G20G11G 1G14G25
  24147856.574    -6540078.62549  -5084180.37045  24147856.347    24147863.920
  21192714.709   -22367063.61849 -17171729.66647  21192714.249    21192717.992
  22294236.222   -17012943.98149 -12705515.15747  22294236.131    22294240.046
  22168449.230   -16639989.23949 -12211448.31547  22168448.952    22168454.073
  24288629.842    -3725725.68849  -2880308.66545  24288629.671    24288634.417
  21131522.884   -22051679.09549 -17163576.07748  21131522.931    21131526.376
 04  5 19  0 59  0.0000000  0  6G16G20G11G 1G14G25
  24129909.746    -6634388.51349  -5157668.34145  24129909.542    24129917.174
  21180619.716   -22430623.35849 -17221256.70847  21180619.242    21180622.951
  22306735.682   -16947259.18149 -12654332.24047  22306735.588    22306739.463
  22157420.381   -16697945.85249 -12256609.25747  22157420.097    22157425.240
  24304198.316    -3643913.26849  -2816558.78245  24304198.014    24304202.755
  21140675.823   -22003580.13349 -17126096.37148  21140675.875    21140679.323
 04  5 19  0 59 30.0000000  0  6G16G20G11G 1G14G25
  24111972.058    -6728650.70549  -5231119.14345  24111971.790    24111979.444
  21168585.477   -22493863.74249 -17270534.90647  21168585.004    21168588.719
  22319303.635   -16881214.59849 -12602868.97847  22319303.537    22319307.411
  22146425.115   -16755726.24049 -12301632.88747  22146424.829    22146429.945
  24319770.072    -3562083.07649  -2752795.03745  24319769.833    24319774.615
  21149904.604   -21955082.54549 -17088306.05248  21149904.656    21149908.106
 04  5 19  1  0  0.0000000  0  6G16G20G11G 1G14G25
  24094043.417    -6822865.04949  -5304532.65945  24094043.091    24094050.686
  21156611.842   -22556785.45149 -17319564.78447  21156611.373    21156615.073
  22331938.979   -16814815.45549 -12551129.43547  22331938.890    22331942.786
  22135462.816   -16813333.13749 -12346521.32047  22135462.548    22135467.641
  24335344.664    -3480238.17249  -2689019.84845  24335344.392    24335349.200
  21159208.275   -21906191.39349 -17050209.06048  21159208.315    21159211.766
 04  5 19  1  0 30.0000000  0  6G16G20G11G 1G14G25
  24076124.601    -6917027.87549  -5377906.04545  24076124.326    24076131.864
  21144699.419   -22619385.42049 -17368343.95447  21144698.960    21144702.678
  22344641.496   -16748063.39249 -12499114.87847  22344641.397    22344645.335
  22124533.673   -16870765.74849 -12391273.94247  22124533.424    22124538.508
  24350922.211    -3398378.16449  -2625232.86645  24350921.828    24350926.565
  21168586.705   -21856907.47249 -17011806.00748  21168586.742    21168590.176
 04  5 19  1  1  0.0000000  0  6G16G20G11G 1G14G25
  24058216.226    -7011136.18749  -5451236.95045  24058215.834    24058223.394
  21132848.619   -22681661.64249 -17416870.85747  21132848.164    21132851.879
  22357410.652   -16680961.24749 -12446827.53947  22357410.557    22357414.476
  22113637.712   -16928024.24249 -12435890.90047  22113637.467    22113642.490
  24366502.434    -3316503.35149  -2561434.33845  24366502.202    24366506.901
  21178039.442   -21807233.09749 -16973098.71548  21178039.478    21178042.918
 04  5 19  1  1 30.0000000  0  6G16G20G11G 1G14G25
  24040318.715    -7105187.17349  -5524523.19145  24040318.424    24040325.901
  21121059.812   -22743612.08949 -17465143.90847  21121059.365    21121063.069
  22370245.855   -16613511.91649 -12394269.66047  22370245.781    22370249.681
  22102774.820   -16985108.99949 -12480372.47647  22102774.568    22102779.549
  24382085.455    -3234614.33349  -2497624.76745  24382085.234    24382089.909
  21187565.988   -21757170.71049 -16934089.06848  21187566.033    21187569.479
 04  5 19  1  2  0.0000000  0  6G16G20G11G 1G14G25
  24022432.811    -7199177.20149  -5597761.94545  24022432.587    24022439.954
  21109333.568   -22805233.99649 -17513160.95547  21109333.123    21109336.817
  22383146.798   -16545717.25449 -12341442.69647  22383146.720    22383150.612
  22091945.106   -17042019.34149 -12524718.16047  22091944.845    22091949.814
  24397671.160    -3152710.93549  -2433803.97945  24397670.923    24397675.634
  21197166.140   -21706721.48849 -16894777.99248  21197166.187    21197169.639
 04  5 19  1  2 30.0000000  0  6G16G20G11G 1G14G25
  24004558.740    -7293105.07549  -5670952.26745  24004558.580    24004565.811
  21097669.849   -22866527.13249 -17560921.82147  21097669.387    21097673.082
  22396112.636   -16477581.50249 -12288349.95147  22396112.554    22396116.436
  22081148.242   -17098757.10849 -12568929.35747  22081147.959    22081152.903
  24413259.235    -3070794.86649  -2369973.31445  24413259.082    24413263.785
  21206839.252   -21655888.96649 -16855168.24248  21206839.291    21206842.753
 04  5 19  1  3  0.0000000  0  6G16G20G11G 1G14G25
  23986697.597    -7386965.10249  -5744089.72745  23986697.455    23986704.629
  21086069.569   -22927486.74249 -17608422.79347  21086069.118    21086072.835
  22409143.351   -16409105.00849 -12234991.69047  22409143.263    22409147.126
  22070384.640   -17155319.86849 -12613004.18547  22070384.371    22070389.324
  24428850.199    -2988864.02249  -2306131.15645  24428850.119    24428854.761
  21216585.455   -21604672.48949 -16815259.30348  21216585.484    21216588.963
 04  5 19  1  3 30.0000000  0  6G16G20G11G 1G14G25
  23968849.702    -7480755.83249  -5817173.18645  23968849.491    23968856.636
  21074532.869   -22988112.34049 -17655663.50447  21074532.415    21074536.137
  22422238.049   -16340291.90149 -12181371.12946  22422237.968    22422241.854
  22059654.074   -17211709.06849 -12656943.78147  22059653.809    22059658.775
  24444443.681    -2906920.43849  -2242279.04845  24444443.613    24444448.203
  21226403.974   -21553075.70649 -16775054.02647  21226404.016    21226407.493
 04  5 19  1  4  0.0000000  0  6G16G20G11G 1G14G25
  23951015.700    -7574473.28349  -5890199.54945  23951015.477    23951022.560
  21063060.350   -23048400.66149 -17702641.40147  21063059.897    21063063.625
  22435396.465   -16271143.92349 -12127489.64246  22435396.408    22435400.327
  22048956.756   -17267923.68749 -12700747.35547  22048956.485    22048961.445
  24460039.644    -2824963.15349  -2178416.27445  24460039.397    24460044.085
  21236294.672   -21501099.68249 -16734553.23547  21236294.709    21236298.205
 04  5 19  1  4 30.0000000  0  6G16G20G11G 1G14G25
  23933195.988    -7668115.27249  -5963167.11945  23933195.814    23933202.849
  21051652.315   -23108350.38449 -17749355.46047  21051651.865    21051655.575
  22448618.007   -16201664.51049 -12073349.88046  22448617.925    22448621.905
  22038292.498   -17323964.64249 -12744415.59847  22038292.228    22038297.166
  24475638.071    -2742993.43649  -2114543.80945  24475637.739    24475642.475
  21246257.065   -21448747.02549 -16693758.96847  21246257.112    21246260.617
 04  5 19  1  5  0.0000000  0  6G16G20G11G 1G14G25
  23915391.343    -7761678.50249  -6036073.31845  23915391.219    23915398.182
  21040309.114   -23167959.24349 -17795803.90647  21040308.667    21040312.368
  22461902.194   -16131855.66449 -12018953.41646  22461902.109    22461906.109
  22027661.297   -17379831.87049 -12787948.46547  22027661.018    22027665.943
  24491238.630    -2661011.23149  -2050661.60745  24491238.528    24491243.207
  21256290.688   -21396019.88349 -16652672.88947  21256290.726    21256294.239
 04  5 19  1  5 30.0000000  0  6G16G20G11G 1G14G25
  23897602.229    -7855160.36749  -6108916.13245  23897602.114    23897609.005
  21029031.129   -23227225.27249 -17841985.21847  21029030.685    21029034.392
  22475248.398   -16061720.99149 -11964303.06546  22475248.309    22475252.356
  22017063.098   -17435525.67249 -12831346.19747  22017062.815    22017067.742
  24506841.553    -2579017.08949  -1986770.11245  24506841.457    24506846.191
  21266395.133   -21342920.74849 -16611296.94547  21266395.181    21266398.689
 04  5 19  1  6  0.0000000  0  6G16G20G11G 1G14G25
  23879829.300    -7948556.68849  -6181692.29445  23879829.099    23879836.084
  21017819.018   -23286145.15449 -17887896.80447  21017818.557    21017822.287
  22488656.373   -15991261.47649 -11909399.59646  22488656.287    22488660.410
  22006498.115   -17491044.81449 -12874607.85147  22006497.839    22006502.781
  24522447.125    -2497010.11849  -1922868.61945  24522446.943    24522451.639
  21276570.249   -21289450.16149 -16569631.56447  21276570.317    21276573.818
 04  5 19  1  6 30.0000000  0  6G16G20G11G 1G14G25
  23862072.969    -8041865.75949  -6254400.47745  23862072.801    23862079.705
  21006672.891   -23344718.41449 -17933538.29547  21006672.433    21006676.193
  22502125.359   -15920481.48549 -11854246.39946  22502125.283    22502129.480
  21995966.032   -17546390.90349 -12917734.63247  21995965.780    21995970.729
  24538054.691    -2414992.05049  -1858958.47245  24538054.568    24538059.193
  21286815.300   -21235612.03649 -16527679.78547  21286815.354    21286818.865
 04  5 19  1  7  0.0000000  0  6G16G20G11G 1G14G25
  23844333.949    -8135084.13649  -6327037.99445  23844333.741    23844340.642
  20995593.177   -23402942.55649 -17978907.74847  20995592.724    20995596.472
  22515654.903   -15849383.36549 -11798845.31546  22515654.826    22515659.053
  21985466.969   -17601563.61949 -12960726.31847  21985466.718    21985471.690
  24553664.377    -2332962.88049  -1795039.68645  24553664.182    24553668.974
  21297130.076   -21181407.58349 -16485442.55647  21297130.144    21297133.638
 04  5 19  1  7 30.0000000  0  6G16G20G11G 1G14G25
  23826612.869    -8228208.46149  -6399602.23445  23826612.669    23826619.428
  20984580.425   -23460815.00349 -18024003.14547  20984579.978    20984583.728
  22529244.579   -15777969.27649 -11743198.01546  22529244.498    22529248.763
  21975000.937   -17656562.68349 -13003582.70047  21975000.684    21975005.665
  24569276.183    -2250922.44149  -1731112.11945  24569276.054    24569280.771
  21307514.268   -21126838.22549 -16442920.98647  21307514.335    21307517.824
 04  5 19  1  8  0.0000000  0  6G16G20G11G 1G14G25
  23808910.340    -8321235.26249  -6472090.47645  23808910.154    23808916.804
  20973635.059   -23518333.11749 -18068822.44448  20973634.615    20973638.372
  22542893.946   -15706241.50449 -11687306.29546  22542893.860    22542898.174
  21964568.059   -17711387.65949 -13046303.42447  21964567.826    21964572.824
  24584890.143    -2168870.60149  -1667175.67345  24584889.995    24584894.861
  21317967.527   -21071905.98649 -16400116.65347  21317967.598    21317971.091
 04  5 19  1  8 30.0000000  0  6G16G20G11G 1G14G25
  23791226.817    -8414162.27349  -6544500.96945  23791226.657    23791233.214
  20962757.384   -23575495.65749 -18113364.67048  20962756.945    20962760.684
  22556602.333   -15634203.58049 -11631172.89946  22556602.249    22556606.583
  21954168.198   -17766039.29049 -13088889.06947  21954167.956    21954172.933
  24600506.064    -2086808.37849  -1603231.14645  24600505.884    24600510.918
  21328489.311   -21016613.69649 -16357031.75947  21328489.374    21328492.884
 04  5 19  1  9  0.0000000  0  6G16G20G11G 1G14G25
  23773563.081    -8506985.12849  -6616830.30545  23773562.905    23773569.334
  20951948.072   -23632299.01249 -18157627.01248  20951947.638    20951951.348
  22570369.490   -15561856.88049 -11574798.89446  22570369.398    22570373.735
  21943801.576   -17820516.18049 -13131338.54347  21943801.323    21943806.318
  24616124.227    -2004734.60749  -1539277.60745  24616124.111    24616129.085
  21339079.418   -20960962.33149 -16313667.06547  21339079.473    21339083.002
 04  5 19  1  9 30.0000000  0  6G16G20G11G 1G14G25
  23755919.238    -8599703.20349  -6689077.99245  23755919.070    23755925.526
  20941207.029   -23688743.65849 -18201609.83948  20941206.594    20941210.295
  22584194.417   -15489206.63549 -11518188.37046  22584194.318    22584198.672
  21933467.684   -17874820.83349 -13173653.80447  21933467.427    21933472.447
  24631744.089    -1922651.98449  -1475317.16645  24631744.029    24631748.902
  21349737.004   -20904956.19849 -16270025.93547  21349737.064    21349740.601
 04  5 19  1 10  0.0000000  0  6G16G20G11G 1G14G25
  23738296.175    -8692312.43749  -6761240.86645  23738295.960    23738302.392
  20930534.792   -23744826.55049 -18245310.77448  20930534.343    20930538.057
  22598076.840   -15416254.44849 -11461342.56646  22598076.707    22598081.053
  21923166.741   -17928952.44749 -13215834.23447  21923166.488    21923171.504
  24647365.824    -1840559.87449  -1411349.34945  24647365.753    24647370.674
  21360461.994   -20848596.29949 -16226109.13247  21360462.040    21360465.561
 04  5 19  1 10 30.0000000  0  6G16G20G11G 1G14G25
  23720694.719    -8784808.00249  -6833315.17945  23720694.485    23720700.914
  20919932.111   -23800543.88049 -18288726.85848  20919931.663    20919935.383
  22612016.488   -15343001.50949 -11404262.39546  22612016.377    22612020.674
  21912899.023   -17982909.56749 -13257878.69847  21912898.766    21912903.765
  24662989.682    -1758456.75749  -1347372.94845  24662989.428    24662994.394
  21371254.157   -20791883.12449 -16181917.05147  21371254.189    21371257.725
 04  5 19  1 11  0.0000000  0  6G16G20G11G 1G14G25
  23703115.040    -8877189.06649  -6905300.26245  23703114.855    23703121.176
  20909399.069   -23855895.47649 -18331857.95648  20909398.615    20909402.331
  22626012.374   -15269452.60649 -11346951.61646  22626012.277    22626016.578
  21902664.109   -18036694.15549 -13299788.72947  21902663.862    21902668.863
  24678614.994    -1676345.01649  -1283389.82645  24678614.880    24678619.879
  21382112.781   -20734820.80349 -16137452.91247  21382112.811    21382116.329
 04  5 19  1 11 30.0000000  0  6G16G20G11G 1G14G25
  23685557.997    -8969451.41149  -6977192.83045  23685557.780    23685564.171
  20898936.144   -23910878.38349 -18374701.76248  20898935.688    20898939.400
  22640064.297   -15195609.38149 -11289411.48446  22640064.219    22640068.506
  21892462.216   -18090305.35849 -13341563.65147  21892461.974    21892466.964
  24694242.126    -1594223.74049  -1219399.27645  24694242.012    24694247.121
  21393037.614   -20677410.38649 -16092717.52647  21393037.638    21393041.157
 04  5 19  1 12  0.0000000  0  6G16G20G11G 1G14G25
  23668024.153    -9061591.57249  -7048990.21145  23668023.998    23668030.327
  20888543.921   -23965489.74349 -18417256.05148  20888543.462    20888547.182
  22654171.795   -15121474.20249 -11231643.86346  22654171.713    22654176.008
  21882293.433   -18143742.50849 -13383202.95447  21882293.194    21882298.136
  24709871.273    -1512092.54049  -1155401.01445  24709871.112    24709876.099
  21404028.397   -20619653.33449 -16047712.03447  21404028.439    21404031.968
 04  5 19  1 12 30.0000000  0  6G16G20G11G 1G14G25
  23650514.011    -9153607.45949  -7120690.75645  23650513.821    23650520.195
  20878222.600   -24019728.60549 -18459520.08248  20878222.148    20878225.849
  22668334.185   -15047050.48449 -11173651.40146  22668334.099    22668338.405
  21872157.618   -18197006.61049 -13424707.41747  21872157.381    21872162.292
  24725502.005    -1429952.73149  -1091396.01745  24725501.761    24725506.852
  21415084.567   -20561552.73549 -16002438.84347  21415084.615    21415088.152
 04  5 19  1 13  0.0000000  0  5G16G20G11G 1G25
  23633028.696    -9245492.45149  -7192289.31445  23633028.445    23633034.855
  20867973.228   -24073589.43149 -18501489.54048  20867972.793    20867976.481
  22682551.583   -14972337.91249 -11115433.85946  22682551.496    22682555.798
  21862055.342   -18250094.26149 -13466074.38847  21862055.095    21862059.982
  21426206.383   -20503107.32649 -15956896.97047  21426206.426    21426209.982
 04  5 19  1 13 30.0000000  0  5G16G20G11G 1G25
  23615568.339    -9337246.53549  -7263785.85645  23615568.133    23615574.500
  20857795.565   -24127073.19249 -18543165.18448  20857795.139    20857798.829
  22696822.838   -14897342.52249 -11056995.94346  22696822.756    22696826.997
  21851986.013   -18303008.79549 -13507306.46447  21851985.785    21851990.640
  21437392.774   -20444322.36349 -15911090.51247  21437392.822    21437396.361
 04  5 19  1 14  0.0000000  0  5G16G20G11G 1G25
  23598133.432    -9428867.09849  -7335178.37745  23598133.202    23598139.444
  20847690.025   -24180178.01549 -18584545.54848  20847689.595    20847693.293
  22711147.366   -14822066.90749 -10998339.67146  22711147.280    22711151.509
  21841949.602   -18355750.41349 -13548403.81047  21841949.373    21841954.201
  21448643.364   -20385200.11049 -15865021.22847  21448643.403    21448646.969
 04  5 19  1 14 30.0000000  0  5G16G20G11G 1G25
  23580724.579    -9520351.04449  -7406464.43245  23580724.355    23580730.544
  20837656.964   -24232902.01449 -18625629.16848  20837656.531    20837660.261
  22725524.672   -14746513.67749 -10939467.07846  22725524.597    22725528.812
  21831946.076   -18408319.18849 -13589366.48147  21831945.838    21831950.646
  21459957.760   -20325742.67749 -15818690.76847  21459957.800    21459961.347
 04  5 19  1 15  0.0000000  0  5G16G20G11G 1G25
  23563342.613    -9611693.13449  -7477639.96045  23563342.358    23563348.599
  20827697.184   -24285240.94649 -18666412.73648  20827696.736    20827700.460
  22739954.624   -14670684.00949 -10880379.07946  22739954.537    22739958.748
  21821975.815   -18460713.07749 -13630192.87347  21821975.601    21821980.379
  21471335.865   -20265950.38949 -15772099.38347  21471335.904    21471339.435
 04  5 19  1 15 30.0000000  0  5G16G20G11G 1G25
  23545987.810    -9702892.70249  -7548704.42945  23545987.512    23545993.743
  20817810.625   -24337195.15649 -18706896.52048  20817810.190    20817813.894
  22754436.201   -14594583.06449 -10821079.69446  22754436.112    22754440.308
  21812038.392   -18512934.51649 -13670884.88147  21812038.150    21812042.946
  21482776.906   -20205827.21449 -15725250.16247  21482776.943    21482780.490
 04  5 19  1 16  0.0000000  0  5G16G20G11G 1G25
  23528660.650    -9793946.93849  -7619655.65145  23528660.398    23528666.541
  20807997.618   -24388762.80449 -18747079.09248  20807997.173    20808000.882
  22768968.801   -14518213.96549 -10761571.36146  22768968.711    22768972.930
  21802133.773   -18564983.67749 -13711442.65147  21802133.527    21802138.319
  21494280.459   -20145375.67449 -15678145.07247  21494280.509    21494284.026
 04  5 19  1 16 30.0000000  0  5G16G20G11G 1G25
  23511361.988    -9884851.63749  -7690490.36645  23511361.713    23511367.812
  20798258.801   -24439940.61949 -18786957.89848  20798258.355    20798262.047
  22783552.120   -14441578.18949 -10701855.22346  22783552.045    22783556.322
  21792262.134   -18616859.33049 -13751865.21847  21792261.911    21792266.684
  21505846.263   -20084597.08749 -15630785.14147  21505846.312    21505849.823
 04  5 19  1 17  0.0000000  0  5G16G20G11G 1G25
  23494092.292    -9975604.08249  -7761206.42546  23494092.009    23494098.029
  20788594.475   -24490726.91949 -18826531.62848  20788594.036    20788597.716
  22798185.617   -14364678.64049 -10641933.55446  22798185.544    22798189.874
  21782423.389   -18668561.97649 -13792152.96447  21782423.152    21782427.933
  21517473.811   -20023493.86249 -15583172.24547  21517473.853    21517477.367
 04  5 19  1 17 30.0000000  0  5G16G20G11G 1G25
  23476852.397   -10066199.97649  -7831800.50946  23476852.123    23476858.040
  20779005.211   -24541118.82949 -18865798.04148  20779004.784    20779008.460
  22812868.982   -14287517.34949 -10581807.93346  22812868.899    22812873.248
  21772617.813   -18720090.61049 -13832305.12547  21772617.561    21772622.354
  21529162.963   -19962067.02149 -15535307.18547  21529163.001    21529166.514
 04  5 19  1 18  0.0000000  0  5G16G20G11G 1G25
  23459642.384   -10156638.51449  -7902271.97546  23459642.138    23459648.032
  20769491.073   -24591115.91449 -18904756.79348  20769490.631    20769494.305
  22827601.183   -14210099.21349 -10521482.17246  22827601.081    22827605.480
  21762844.988   -18771447.19249 -13872323.21147  21762844.726    21762849.521
  21540912.918   -19900320.67349 -15487193.16047  21540912.966    21540916.463
 04  5 19  1 18 30.0000000  0  5G16G20G11G 1G25
  23442463.113   -10246915.22649  -7972617.33646  23442462.881    23442468.869
  20760052.670   -24640714.97249 -18943405.39748  20760052.225    20760055.891
  22842381.970   -14132425.84249 -10460957.53246  22842381.858    22842386.305
  21753105.058   -18822630.64549 -13912206.39847  21753104.789    21753109.579
  21552723.509   -19838255.48149 -15438830.68247  21552723.570    21552727.074
 04  5 19  1 19  0.0000000  0  5G16G20G11G 1G25
  23425315.573   -10337025.66949  -8042833.14546  23425315.362    23425321.311
  20750690.619   -24689912.75749 -18981741.31848  20750690.186    20750693.849
  22857211.049   -14054498.36349 -10400234.86546  22857210.972    22857215.468
  21743398.362   -18873639.64749 -13951953.64147  21743398.109    21743402.892
  21564594.653   -19775872.32549 -15390220.43947  21564594.712    21564598.221
 04  5 19  1 19 30.0000000  0  5G16G20G11G 1G25
  23408199.942   -10426968.57549  -8112918.39746  23408199.691    23408205.567
  20741405.044   -24738708.81449 -19019764.20948  20741404.624    20741408.264
  22872087.572   -13976321.71549 -10339318.06846  22872087.503    22872092.052
  21733724.548   -18924475.91649 -13991566.28947  21733724.276    21733729.067
  21576525.559   -19713175.06949 -15341365.44847  21576525.602    21576529.097
 04  5 19  1 20  0.0000000  0  5G16G20G11G 1G25
  23391116.694   -10516740.89849  -8182870.73646  23391116.527    23391122.401
  20732196.230   -24787101.43849 -19057472.73448  20732195.800    20732199.449
  22887010.942   -13897898.92149 -10278209.45346  22887010.842    22887015.521
  21724083.492   -18975139.74149 -14031044.55947  21724083.220    21724088.038
  21588515.770   -19650166.13649 -15292267.58747  21588515.822    21588519.318
 04  5 19  1 20 30.0000000  0  5G16G20G11G 1G25
  23374066.922   -10606337.51849  -8252686.15146  23374066.781    23374072.610
  20723064.929   -24835086.59949 -19094863.75548  20723064.501    20723068.147
  22901981.079   -13819230.38349 -10216909.35446  22901981.028    22901985.681
  21714475.729   -19025628.89149 -14070386.71847  21714475.462    21714480.239
  21600565.297   -19586845.39849 -15242926.76547  21600565.360    21600568.855
 04  5 19  1 21  0.0000000  0  5G16G20G11G 1G25
  23357050.745   -10695757.63449  -8322364.03446  23357050.581    23357056.414
  20714011.178   -24882664.33249 -19131937.29848  20714010.769    20714014.399
  22916997.038   -13740321.30649 -10155421.82346  22916996.973    22917001.626
  21704900.729   -19075945.69149 -14109594.58547  21704900.460    21704905.217
  21612673.331   -19523217.26849 -15193346.41447  21612673.408    21612676.898
 04  5 19  1 21 30.0000000  0  5G16G20G11G 1G25
  23340068.992   -10784996.57649  -8391900.74646  23340068.827    23340074.632
  20705035.683   -24929830.97249 -19168690.50848  20705035.252    20705038.896
  22932058.523   -13661172.98949 -10093747.87546  22932058.456    22932063.134
  21695358.854   -19126088.43049 -14148666.82047  21695358.596    21695363.351
  21624839.790   -19459282.16049 -15143526.86647  21624839.855    21624843.359
 04  5 19  1 22  0.0000000  0  5G16G20G11G 1G25
  23323122.295   -10874051.48449  -8461294.04446  23323122.149    23323127.897
  20696138.701   -24976584.90149 -19205122.12448  20696138.262    20696141.904
  22947164.919   -13581788.52649 -10031889.92346  22947164.878    22947169.569
  21685850.007   -19176057.53549 -14187603.75147  21685849.739    21685854.481
  21637064.198   -19395042.56249 -15093470.04947  21637064.272    21637067.777
 04  5 19  1 22 30.0000000  0  5G16G20G11G 1G25
  23306210.968   -10962920.69149  -8530542.66246  23306210.807    23306216.590
  20687320.365   -25022925.49849 -19241231.66148  20687319.927    20687323.550
  22962315.460   -13502171.98549  -9969851.12446  22962315.400    22962320.116
  21676373.969   -19225854.37049 -14226406.45847  21676373.719    21676378.439
  21649345.861   -19330501.90149 -15043178.64347  21649345.920    21649349.441
 04  5 19  1 23  0.0000000  0  5G16G20G11G 1G25
  23289335.747   -11051600.41449  -8599643.63246  23289335.529    23289341.284
  20678581.182   -25068850.00449 -19277016.96948  20678580.756    20678584.392
  22977509.771   -13422325.75949  -9907633.35446  22977509.701    22977514.379
  21666930.887   -19275478.03249 -14265074.22447  21666930.646    21666935.376
  21661684.538   -19265661.81449 -14992653.91047  21661684.588    21661688.119
 04  5 19  1 23 30.0000000  0  5G16G20G11G 1G25
  23272497.325   -11140086.30849  -8668593.55946  23272497.126    23272502.854
  20669921.760   -25114355.57149 -19312475.83548  20669921.321    20669924.960
  22992747.469   -13342251.51449  -9845237.90646  22992747.382    22992752.089
  21657520.930   -19324927.63449 -14303606.35947  21657520.661    21657525.400
  21674079.929   -19200523.50549 -14941896.80847  21674079.997    21674083.535
 04  5 19  1 24  0.0000000  0  5G16G20G11G 1G25
  23255695.937   -11228377.49049  -8737391.77246  23255695.707    23255701.459
  20661342.064   -25159441.92949 -19347608.04448  20661341.621    20661345.276
  23008027.586   -13261954.10149  -9782668.55846  23008027.494    23008032.228
  21648143.684   -19374205.14449 -14342004.39947  21648143.442    21648148.180
  21686531.371   -19135090.74949 -14890910.25847  21686531.427    21686534.973
 04  5 19  1 24 30.0000000  0  5G16G20G11G 1G25
  23238932.575   -11316468.86449  -8806034.29346  23238932.362    23238938.097
  20652842.891   -25204105.31149 -19382410.66748  20652842.455    20652846.111
  23023350.000   -13181434.51549  -9719926.10146  23023349.926    23023354.656
  21638799.576   -19423308.67149 -14380266.86847  21638799.341    21638804.069
  21699038.801   -19069363.88749 -14839694.54247  21699038.848    21699042.403
 04  5 19  1 25  0.0000000  0  5G16G20G11G 1G25
  23222207.655   -11404358.28449  -8874519.44646  23222207.451    23222213.149
  20644424.411   -25248344.67549 -19416882.88348  20644423.983    20644427.620
  23038713.973   -13100696.60349  -9657013.51046  23038713.930    23038718.594
  21629488.410   -19472239.03949 -14418394.40747  21629488.157    21629492.888
  21711601.611   -19003345.91749 -14788251.98247  21711601.661    21711605.241
 04  5 19  1 25 30.0000000  0  5G16G20G11G 1G25
  23205521.936   -11492041.75949  -8942844.13446  23205521.772    23205527.403
  20636087.162   -25292157.06849 -19451022.39948  20636086.734    20636090.377
  23054119.191   -13019742.11649  -9593932.17146  23054119.136    23054123.743
  21620210.373   -19520995.35149 -14456386.31947  21620210.120    21620214.848
  21724219.545   -18937038.21749 -14736583.66147  21724219.596    21724223.189
 04  5 19  1 26  0.0000000  0  5G16G20G11G 1G25
  23188875.803   -11579517.46049  -9011006.91846  23188875.636    23188881.222
  20627831.240   -25335542.18949 -19484828.97548  20627830.810    20627834.441
  23069564.778   -12938575.32249  -9530685.39646  23069564.763    23069569.321
  21610965.191   -19569578.98649 -14494243.67047  21610964.940    21610969.677
  21736892.011   -18870444.07949 -14684692.14447  21736892.063    21736895.634
 04  5 19  1 26 30.0000000  0  5G16G20G11G 1G25
  23172270.056   -11666780.87149  -9079004.29046  23172269.882    23172275.429
  20619657.329   -25378496.32649 -19518299.72248  20619656.909    20619660.526
  23085050.530   -12857197.66349  -9467274.31246  23085050.462    23085055.068
  21601753.126   -19617988.57849 -14531965.40447  21601752.868    21601757.620
  21749618.781   -18803564.40649 -14632578.13247  21749618.842    21749622.404
 04  5 19  1 27  0.0000000  0  5G16G20G11G 1G25
  23155705.045   -11753830.35749  -9146834.95346  23155704.869    23155710.327
  20611565.532   -25421018.89449 -19551434.17748  20611565.110    20611568.739
  23100575.598   -12775613.37849  -9403702.21846  23100575.525    23100580.110
  21592573.971   -19666225.35349 -14569552.47647  21592573.722    21592578.466
  21762399.283   -18736402.51849 -14580244.21247  21762399.334    21762402.928
 04  5 19  1 27 30.0000000  0  5G16G20G11G 1G25
  23139181.743   -11840661.00849  -9214495.10846  23139181.548    23139186.971
  20603556.557   -25463106.29649 -19584229.53948  20603556.145    20603559.770
  23116139.740   -12693823.45749  -9339969.88346  23116139.650    23116144.272
  21583428.022   -19714287.38849 -14607003.38247  21583427.784    21583432.548
  21775233.402   -18668958.86449 -14527690.72847  21775233.440    21775237.034
 04  5 19  1 28  0.0000000  0  5G16G20G11G 1G25
  23122700.195   -11927272.06349  -9281984.14446  23122699.988    23122705.298
  20595630.381   -25504758.61849 -19616685.88248  20595629.962    20595633.584
  23131742.119   -12611832.85349  -9276081.16346  23131742.028    23131746.674
  21574314.908   -19762176.95949 -14644319.91347  21574314.673    21574319.455
  21788120.407   -18601237.45349 -14474920.81847  21788120.438    21788124.023
 04  5 19  1 28 30.0000000  0  5G16G20G11G 1G25
  23106261.162   -12013659.24549  -9349298.73546  23106260.939    23106266.243
  20587787.547   -25545972.90649 -19648800.90348  20587787.132    20587790.753
  23147382.262   -12529643.45649  -9212037.54446  23147382.141    23147386.869
  21565234.885   -19809892.76849 -14681501.03647  21565234.639    21565239.397
  21801059.970   -18533239.60449 -14421935.49447  21801059.990    21801063.597
 04  5 19  1 29  0.0000000  0  5G16G20G11G 1G25
  23089865.619   -12099817.98549  -9416435.31646  23089865.419    23089870.666
  20580028.688   -25586745.95649 -19680572.10248  20580028.273    20580031.876
  23163059.912   -12447256.96549  -9147840.35746  23163059.837    23163064.580
  21556188.139   -19857433.56649 -14718545.78747  21556187.892    21556192.618
  21814052.044   -18464965.90849 -14368735.22847  21814052.086    21814055.650
 04  5 19  1 29 30.0000000  0  5G16G20G11G 1G25
  23073513.732   -12185747.44049  -9483393.24946  23073513.529    23073518.709
  20572353.763   -25627078.03849 -19711999.69048  20572353.346    20572356.922
  23178774.087   -12364678.43249  -9083493.52846  23178774.019    23178778.843
  21547174.270   -19904801.60049 -14755455.91747  21547174.012    21547178.753
  21827095.736   -18396420.82449 -14315323.49347  21827095.786    21827099.365
 04  5 19  1 30  0.0000000  0  5G16G20G11G 1G25
  23057206.397   -12271442.61449  -9550168.61446  23057206.228    23057211.382
  20564763.511   -25666965.08249 -19743080.49648  20564763.101    20564766.650
  23194524.755   -12281908.42349  -9018997.51346  23194524.644    23194529.572
  21538193.736   -19951994.61949 -14792229.67147  21538193.499    21538198.203
  21840191.139   -18327604.02249 -14261700.03347  21840191.200    21840194.776
 04  5 19  1 30 30.0000000  0  5G16G20G11G 1G25
  23040943.953   -12356901.79349  -9616760.09846  23040943.787    23040948.938
  20557258.016   -25706406.76049 -19773814.26148  20557257.587    20557261.135
  23210311.002   -12198951.25249  -8954355.63046  23210310.856    23210315.840
  21529246.187   -19999014.25249 -14828868.31147  21529245.933    21529250.605
  21853337.530   -18258519.27749 -14207867.77847  21853337.579    21853341.173
 04  5 19  1 31  0.0000000  0  5G16G20G11G 1G25
  23024727.212   -12442121.09849  -9683164.65946  23024727.003    23024732.135
  20549837.774   -25745400.30949 -19804198.83348  20549837.344    20549840.875
  23226132.511   -12115809.00649  -8889569.54646  23226132.373    23226137.368
  21520331.824   -20045859.54049 -14865371.10147  21520331.585    21520336.237
  21866534.684   -18189167.84549 -14153827.72247  21866534.713    21866538.312
 04  5 19  1 31 30.0000000  0  5G16G20G11G 1G25
  23008556.345   -12527099.22349  -9749381.28946  23008556.168    23008561.258
  20542502.838   -25783945.68349 -19834234.18248  20542502.402    20542505.942
  23241988.388   -12032486.10849  -8824642.70146  23241988.246    23241993.257
  21511450.359   -20092531.99949 -14901739.22347  21511450.123    21511454.729
  21879781.857   -18119553.56849 -14099582.85247  21879781.902    21879785.505
 04  5 19  1 32  0.0000000  0  5G16G20G11G 1G25
  22992432.276   -12611831.44149  -9815406.30846  22992432.061    22992437.133
  20535253.828   -25822039.40749 -19863917.59148  20535253.400    20535256.909
  23257878.395   -11948984.02549  -8759576.20946  23257878.236    23257883.279
  21502602.029   -20139030.24949 -14937971.59547  21502601.779    21502606.355
  21893078.883   -18049677.08949 -14045133.66347  21893078.907    21893082.555
 04  5 19  1 32 30.0000000  0  5G16G20G11G 1G25
  22976355.726   -12696313.82249  -9881236.65046  22976355.530    22976360.634
  20528091.322   -25859678.54049 -19893246.77648  20528090.898    20528094.421
  23273802.051   -11865304.84849  -8694371.73146  23273801.942    23273806.967
  21493787.058   -20185353.24849 -14974067.40947  21493786.801    21493791.382
  21906425.611   -17979539.70349 -13990481.17347  21906425.647    21906429.281
 04  5 19  1 33  0.0000000  0  5G16G20G11G 1G25
  22960326.960   -12780545.30249  -9946871.48146  22960326.757    22960331.839
  20521015.275   -25896863.35749 -19922221.94848  20521014.837    20521018.389
  23289758.528   -11781453.17049  -8629032.83246  23289758.405    23289763.475
  21485005.040   -20231502.77249 -15010028.04547  21485004.791    21485009.366
  21919821.231   -17909145.36649 -13935628.45947  21919821.263    21919824.914
 04  5 19  1 33 30.0000000  0  5G16G20G11G 1G25
  22944346.818   -12864521.19349 -10012307.14146  22944346.610    22944351.736
  20514026.298   -25933590.59549 -19950840.56948  20514025.865    20514029.412
  23305747.603   -11697430.33549  -8563560.57746  23305747.477    23305752.615
  21476256.370   -20277477.35049 -15045852.35847  21476256.117    21476260.676
  21933265.617   -17838494.76549 -13880576.05647  21933265.636    21933269.323
 04  5 19  1 34  0.0000000  0  5G16G20G11G 1G25
  22928415.628   -12948239.68449 -10077542.23546  22928415.458    22928420.563
  20507124.512   -25969859.65749 -19979102.17048  20507124.083    20507127.637
  23321768.370   -11613240.79749  -8497958.42446  23321768.276    23321773.471
  21467540.716   -20323278.16149 -15081541.26947  21467540.461    21467545.039
  21946758.097   -17767591.20049 -13825326.54047  21946758.136    21946761.855
 04  5 19  1 34 30.0000000  0  6G16G13G20G11G 1G25
  22912532.917   -13031703.38449 -10142578.80246  22912532.774    22912537.831
  24645849.580    -5454469.96259  -4231835.58345  24645850.053    24645856.399
  20500309.199   -26005674.34649 -20007009.71548  20500308.772    20500312.315
  23337819.296   -11528892.92949  -8432232.89446  23337819.174    23337824.391
  21458857.103   -20368910.78349 -15117099.12747  21458856.843    21458861.426
  21960297.279   -17696442.20249 -13769885.78447  21960297.333    21960301.076
 04  5 19  1 35  0.0000000  0  6G16G13G20G11G 1G25
  22896699.676   -13114907.52749 -10207413.11046  22896699.495    22896704.535
  24630199.963    -5536709.01449  -4295917.82245  24630200.338    24630206.438
  20493581.063   -26041030.95149 -20034560.30548  20493580.629    20493584.186
  23353900.222   -11444387.78349  -8366384.81246  23353900.071    23353905.226
  21450205.829   -20414373.29749 -15152524.42947  21450205.572    21450210.160
  21973883.129   -17625048.13149 -13714254.05547  21973883.187    21973886.929
 04  5 19  1 35 30.0000000  0  6G16G13G20G11G 1G25
  22880918.101   -13197839.57349 -10272035.39346  22880917.930    22880922.964
  24614560.054    -5618896.40449  -4359959.80645  24614560.395    24614566.484
  20486942.195   -26075918.24849 -20061745.20248  20486941.755    20486945.314
  23370012.336   -11359718.63849  -8300408.92146  23370012.217    23370017.320
  21441588.779   -20459656.13649 -15187809.72747  21441588.537    21441593.102
  21987516.976   -17553401.80449 -13658425.76347  21987517.039    21987520.788
 04  5 19  1 36  0.0000000  0  6G16G13G20G11G 1G25
  22865188.488   -13280498.89849 -10336445.17646  22865188.290    22865193.319
  24598929.543    -5701034.56349  -4423963.44045  24598929.846    24598935.835
  20480392.461   -26110337.13449 -20088565.10648  20480392.040    20480395.608
  23386154.609   -11274890.88249  -8234309.45546  23386154.491    23386159.531
  21433005.447   -20504761.71949 -15222956.90347  21433005.199    21433009.809
  22001197.998   -17481507.62249 -13602404.34447  22001198.047    22001201.824
 04  5 19  1 36 30.0000000  0  6G16G13G20G11G 1G25
  22849511.288   -13362882.80949 -10400640.34646  22849511.113    22849516.101
  24583308.561    -5783123.38549  -4487928.61845  24583308.730    24583314.749
  20473932.257   -26144285.77349 -20115018.58548  20473931.822    20473935.409
  23402326.460   -11189907.52049  -8168088.73046  23402326.347    23402331.419
  21424455.818   -20549690.16849 -15257966.04647  21424455.588    21424460.179
  22014925.752   -17409367.79049 -13546191.50447  22014925.794    22014929.592
 04  5 19  1 37  0.0000000  0  6G16G13G20G11G 1G25
  22833886.790   -13444989.63549 -10464619.60646  22833886.620    22833891.585
  24567696.565    -5865164.30349  -4551856.43645  24567696.668    24567702.761
  20467561.455   -26177764.38349 -20141105.81148  20467561.042    20467564.619
  23418527.078   -11104773.17549  -8101750.36746  23418526.961    23418532.012
  21415939.618   -20594443.01649 -15292838.36947  21415939.394    21415943.953
  22028699.595   -17336986.03649 -13489790.15547  22028699.629    22028703.407
 04  5 19  1 37 30.0000000  0  6G16G13G20G11G 1G25
  22818315.477   -13526817.06649 -10528381.15046  22818315.279    22818320.249
  24552093.480    -5947157.61649  -4615747.18745  24552093.690    24552099.804
  20461280.446   -26210771.40649 -20166825.56448  20461280.040    20461283.594
  23434755.758   -11019491.03049  -8035296.82746  23434755.656    23434760.696
  21407456.772   -20639020.64149 -15327574.14647  21407456.526    21407461.073
  22042518.864   -17264365.25249 -13433202.54647  22042518.922    22042522.705
 04  5 19  1 38  0.0000000  0  6G16G13G20G11G 1G25
  22802798.036   -13608361.53249 -10591922.20946  22802797.871    22802802.800
  24536499.642    -6029102.87949  -4679600.47445  24536499.814    24536506.095
  20455089.606   -26243304.51349 -20192176.03748  20455089.186    20455092.742
  23451012.144   -10934063.72749  -7968730.18046  23451011.992    23451017.075
  21399007.345   -20683422.54649 -15362173.00447  21399007.126    21399011.633
  22056383.376   -17191506.79149 -13376429.74247  22056383.443    22056387.222
 04  5 19  1 38 30.0000000  0  6G16G13G20G11G 1G25
  22787335.191   -13689618.89749 -10655239.56146  22787335.026    22787339.909
  24520915.259    -6110998.75949  -4743415.30445  24520915.394    24520921.747
  20448989.492   -26275360.88549 -20217155.02748  20448989.070    20448992.613
  23467295.762   -10848492.90149  -7902051.70246  23467295.679    23467300.741
  21390591.619   -20727647.32049 -15396633.83847  21390591.412    21390595.902
  22070292.934   -17118411.56249 -13319472.43847  22070292.994    22070296.785
 04  5 19  1 39  0.0000000  0  6G16G13G20G11G 1G25
  22771927.022   -13770588.92449 -10718333.00846  22771926.873    22771931.712
  24505339.748    -6192847.94749  -4807193.74445  24505339.977    24505346.111
  20442979.869   -26306941.72449 -20241763.47048  20442979.440    20442982.993
  23483605.639   -10762784.15349  -7835265.74846  23483605.588    23483610.673
  21382209.037   -20771697.79849 -15430958.85647  21382208.825    21382213.307
  22084246.623   -17045084.55649 -13262334.53047  22084246.664    22084250.463
 04  5 19  1 39 30.0000000  0  6G16G13G20G11G 1G25
  22756574.128   -13851268.46249 -10781200.10346  22756573.982    22756578.815
  24489773.223    -6274650.05149  -4870935.49445  24489773.482    24489779.619
  20437061.068   -26338045.29649 -20266000.01548  20437060.637    20437064.183
  23499941.254   -10676940.19349  -7768374.44246  23499941.219    23499946.345
  21373859.686   -20815573.86349 -15465147.97047  21373859.455    21373863.957
  22098244.068   -16971527.49649 -13205017.36347  22098244.124    22098247.927
 04  5 19  1 40  0.0000000  0  6G16G13G20G11G 1G25
  22741277.504   -13931652.26449 -10843836.75346  22741277.372    22741282.204
  24474216.053    -6356402.60749  -4934638.63845  24474216.334    24474222.211
  20431233.833   -26368667.54749 -20289861.50748  20431233.411    20431236.965
  23516302.462   -10590961.78449  -7701378.36846  23516302.403    23516307.535
  21365543.949   -20859273.09149 -15499199.28747  21365543.712    21365548.215
  22112285.294   -16897740.44249 -13147520.97547  22112285.333    22112289.175
 04  5 19  1 40 30.0000000  0  6G16G13G20G11G 1G25
  22726037.484   -14011738.65849 -10906241.67046  22726037.332    22726042.135
  24458667.928    -6438107.10249  -4998304.32645  24458668.246    24458674.350
  20425498.263   -26398807.95149 -20313347.53348  20425497.842    20425501.400
  23532688.447   -10504852.88749  -7634280.62346  23532688.419    23532693.559
  21357261.668   -20902796.62949 -15533113.71247  21357261.426    21357265.944
  22126369.677   -16823726.54149 -13089847.82747  22126369.733    22126373.575
 04  5 19  1 41  0.0000000  0  6G16G13G20G11G 1G25
  22710854.654   -14091524.80849 -10968412.61546  22710854.482    22710859.274
  24443129.192    -6519763.42049  -5061932.46845  24443129.633    24443135.465
  20419854.660   -26428465.29749 -20336457.14048  20419854.249    20419857.824
  23549098.661   -10418616.59349  -7567083.59745  23549098.628    23549103.864
  21349012.801   -20946144.59349 -15566891.31447  21349012.556    21349017.042
  22140496.781   -16749488.14649 -13031999.74447  22140496.833    22140500.663
 04  5 19  1 41 30.0000000  0  6G16G13G20G11G 1G25
  22695729.189   -14171009.40749 -11030348.59546  22695729.004    22695733.761
  24427599.322    -6601372.96449  -5125524.14145  24427599.835    24427605.480
  20414303.000   -26457639.49449 -20359190.27648  20414302.602    20414306.141
  23565532.239   -10332257.43349  -7499790.83245  23565532.251    23565537.555
  21340797.041   -20989318.52349 -15600533.31647  21340796.814    21340801.274
  22154665.896   -16675029.03349 -12973979.67347  22154665.964    22154669.765
 04  5 19  1 42  0.0000000  0  6G16G13G20G11G 1G25
  22680662.401   -14250185.66849 -11092044.30846  22680662.214    22680666.955
  24412079.121    -6682932.14949  -5189076.62245  24412079.589    24412085.283
  20408844.275   -26486325.24049 -20381542.80248  20408843.871    20408847.423
  23581989.487   -10245774.58749  -7432401.68845  23581989.438    23581994.812
  21332615.152   -21032314.61549 -15634036.74247  21332614.918    21332619.359
  22168877.315   -16600347.63149 -12915786.38947  22168877.386    22168881.170
 04  5 19  1 42 30.0000000  0  6G16G13G20G11G 1G25
  22665654.568   -14329051.95649 -11153498.49646  22665654.384    22665659.128
  24396568.156    -6764442.11049  -5252590.72545  24396568.577    24396574.284
  20403478.546   -26514522.35049 -20403514.57748  20403478.126    20403481.669
  23598469.371   -10159172.58549  -7364919.71045  23598469.290    23598474.719
  21324466.864   -21075134.12149 -15667402.56747  21324466.609    21324471.045
  22183130.421   -16525447.26849 -12857422.49147  22183130.498    22183134.256
 04  5 19  1 43  0.0000000  0  6G16G13G20G11G 1G25
  22650706.047   -14407606.86749 -11214710.05146  22650705.843    22650710.595
  24381066.290    -6845904.07449  -5316067.43245  24381066.659    24381072.437
  20398205.884   -26542230.43149 -20425105.29248  20398205.466    20398209.013
  23614971.163   -10072455.35849  -7297347.92845  23614971.116    23614976.572
  21316351.946   -21117778.16349 -15700631.67347  21316351.697    21316356.162
  22197424.520   -16450331.17149 -12798890.48647  22197424.593    22197428.372
 04  5 19  1 43 30.0000000  0  6G16G13G20G11G 1G25
  22635817.634   -14485845.44349 -11275675.11046  22635817.460    22635822.227
  24365573.991    -6927315.79249  -5379504.99545  24365574.324    24365580.091
  20393026.941   -26569445.93049 -20446312.17348  20393026.532    20393030.085
  23631494.735    -9985623.63549  -7229686.93945  23631494.747    23631500.253
  21308270.839   -21160244.63649 -15733722.41647  21308270.591    21308275.080
  22211759.718   -16374999.27249 -12740190.32447  22211759.799    22211763.575
 04  5 19  1 44  0.0000000  0  6G16G13G20G11G 1G25
  22620989.678   -14563766.54349 -11336392.78046  22620989.535    22620994.262
  24350090.967    -7008678.96649  -5442904.73645  24350091.353    24350097.138
  20387941.701   -26596169.01549 -20467135.35348  20387941.282    20387944.833
  23648039.230    -9898682.15549  -7161940.43745  23648039.253    23648044.760
  21300223.127   -21202535.49549 -15766676.31447  21300222.873    21300227.343
  22226135.117   -16299456.11449 -12681325.53747  22226135.187    22226138.991
 04  5 19  1 44 30.0000000  0  6G16G13G20G11G 1G25
  22606222.988   -14641365.88049 -11396859.73146  22606222.808    22606227.549
  24334617.528    -7089992.12049  -5506265.49845  24334617.875    24334623.753
  20382950.671   -26622397.01149 -20487572.74548  20382950.257    20382953.809
  23664604.282    -9811632.60849  -7094109.70945  23664604.275    23664609.848
  21292209.100   -21244649.30449 -15799492.25447  21292208.870    21292213.324
  22240550.545   -16223702.52249 -12622296.78547  22240550.617    22240554.435
 04  5 19  1 45  0.0000000  0  6G16G13G20G11G 1G25
  22591518.032   -14718640.70849 -11457073.81746  22591517.848    22591522.589
  24319153.564    -7171255.48649  -5569587.47845  24319153.870    24319159.700
  20378054.129   -26648128.32449 -20507623.10948  20378053.717    20378057.273
  23681189.330    -9724477.96749  -7026197.11545  23681189.293    23681194.885
  21284228.806   -21286585.97949 -15832170.16747  21284228.555    21284233.030
  22255005.777   -16147739.87749 -12563105.13247  22255005.840    22255009.684
 04  5 19  1 45 30.0000000  0  6G16G13G20G11G 1G25
  22576875.265   -14795588.53949 -11517033.09646  22576875.065    22576879.828
  24303699.176    -7252469.06749  -5632870.66645  24303699.469    24303705.113
  20373252.324   -26673362.09249 -20527285.77948  20373251.911    20373255.459
  23697793.762    -9637221.57449  -6958205.21745  23697793.738    23697799.270
  21276282.117   -21328345.91549 -15864710.36647  21276281.877    21276286.344
  22269500.204   -16071571.01549 -12503752.79347  22269500.286    22269504.174
 04  5 19  1 46  0.0000000  0  6G16G13G20G11G 1G25
  22562295.359   -14872206.33149 -11576735.20346  22562295.188    22562299.895
  24288254.113    -7333632.83049  -5696115.03145  24288254.412    24288260.026
  20368545.536   -26698096.48749 -20546559.32348  20368545.120    20368548.672
  23714417.040    -9549866.03249  -6890136.06845  23714417.031    23714422.503
  21268369.171   -21369928.69849 -15897112.51647  21268368.945    21268373.402
  22284033.527   -15995197.95549 -12444241.32947  22284033.604    22284037.501
 04  5 19  1 46 30.0000000  0  6G16G13G20G11G 1G25
  22547778.876   -14948490.87249 -11636177.63046  22547778.707    22547783.358
  24272818.618    -7414746.12449  -5759320.08945  24272818.887    24272824.513
  20363934.095   -26722329.73649 -20565442.36848  20363933.672    20363937.225
  23731058.689    -9462413.93349  -6821991.67345  23731058.640    23731064.174
  21260490.032   -21411333.77449 -15929376.20147  21260489.799    21260494.241
  22298605.482   -15918622.05149 -12384571.81447  22298605.557    22298609.475
 04  5 19  1 47  0.0000000  0  6G16G13G20G11G 1G25
  22533326.417   -15024438.87049 -11695357.82746  22533326.223    22533330.854
  24257392.779    -7495808.84049  -5822485.71845  24257393.107    24257398.587
  20359418.300   -26746060.31249 -20583933.71848  20359417.898    20359421.444
  23747718.193    -9374867.93249  -6753774.12345  23747718.146    23747723.723
  21252644.709   -21452561.07049 -15961501.35447  21252644.470    21252648.922
  22313215.563   -15841845.48249 -12324745.93547  22313215.672    22313219.553
 04  5 19  1 47 30.0000000  0  7G16G13G 4G20G11G 1G25
  22518938.202   -15100049.11449 -11754274.82846  22518938.054    22518942.640
  24241976.408    -7576822.27149  -5885612.95345  24241976.749    24241982.113
  24783520.197    -3476923.44459  -2695556.70945  24783520.526    24783525.891
  20354998.160   -26769288.15449 -20602033.32648  20354997.748    20355001.297
  23764394.784    -9287232.53749  -6685486.91845  23764394.692    23764400.345
  21244832.979   -21493611.82149 -15993488.94247  21244832.758    21244837.233
  22327863.215   -15764871.68349 -12264766.37247  22327863.322    22327867.217
 04  5 19  1 48  0.0000000  0  7G16G13G 4G20G11G 1G25
  22504614.342   -15175321.28449 -11812928.40046  22504614.190    22504618.733
  24226569.026    -7657788.49849  -5948703.40345  24226569.355    24226574.646
  24772609.655    -3534258.32549  -2740233.21045  24772609.930    24772615.325
  20350673.547   -26792014.16849 -20619741.89948  20350673.142    20350676.676
  23781087.412    -9199512.99849  -6617134.13545  23781087.326    23781092.991
  21237054.448   -21534488.34549 -16025340.76647  21237054.223    21237058.716
  22342547.511   -15687705.24149 -12204636.69647  22342547.606    22342551.514
 04  5 19  1 48 30.0000000  0  7G16G13G 4G20G11G 1G25
  22490356.676   -15250245.63049 -11871310.94746  22490356.510    22490361.064
  24211171.921    -7738700.79649  -6011751.83745  24211172.154    24211177.389
  24761785.507    -3591139.38749  -2784556.09945  24761785.812    24761791.205
  20346446.000   -26814230.15749 -20637053.05248  20346445.589    20346449.117
  23797796.796    -9111705.29049  -6548712.65445  23797796.668    23797802.340
  21229310.337   -21575183.73449 -16057051.44547  21229310.104    21229314.618
  22357269.399   -15610341.34049 -12144353.15947  22357269.504    22357273.407
 04  5 19  1 49  0.0000000  0  7G16G13G 4G20G11G 1G25
  22476165.326   -15324821.57349 -11929421.99646  22476165.135    22476169.682
  24195784.546    -7819561.24849  -6074759.84245  24195784.857    24195790.074
  24751047.636    -3647567.21049  -2828525.77845  24751047.995    24751053.258
  20342315.299   -26835937.15349 -20653967.58948  20342314.868    20342318.423
  23814521.980    -9023814.56749  -6480226.48045  23814521.780    23814527.494
  21221600.310   -21615700.13449 -16088622.65247  21221600.072    21221604.588
  22372028.053   -15532784.28249 -12083919.10047  22372028.147    22372032.033
 04  5 19  1 49 30.0000000  0  7G16G13G 4G20G11G 1G25
  22462040.773   -15399046.42249 -11987259.48246  22462040.583    22462045.083
  24180407.108    -7900369.87149  -6137727.49045  24180407.393    24180412.589
  24740396.249    -3703540.66949  -2872141.43545  24740396.709    24740401.923
  20338281.712   -26857133.64849 -20670484.33648  20338281.301    20338284.854
  23831262.333    -8935843.89449  -6411678.02645  23831262.180    23831267.809
  21213924.343   -21656037.44249 -16120054.31547  21213924.096    21213928.631
  22386823.061   -15455036.07149 -12023336.10047  22386823.135    22386827.052
 04  5 19  1 50  0.0000000  0  7G16G13G 4G20G11G 1G25
  22447983.296   -15472918.58149 -12044822.13746  22447983.095    22447987.611
  24165039.396    -7981127.53249  -6200655.42645  24165039.681    24165044.922
  24729831.549    -3759058.50149  -2915402.04945  24729832.063    24729837.161
  20334345.318   -26877819.44749 -20686603.13748  20334344.906    20334348.477
  23848017.212    -8847796.90849  -6343070.09445  23848017.061    23848022.741
  21206282.264   -21696196.56249 -16151347.12747  21206282.046    21206286.578
  22401653.837   -15377099.76049 -11962606.52347  22401653.947    22401657.876
 04  5 19  1 50 30.0000000  0  7G16G13G 4G20G11G 1G25
  22433994.031   -15546432.51349 -12102105.65546  22433993.820    22433998.337
  24149681.889    -8061831.55949  -6263541.57345  24149682.173    24149687.268
  24719354.255    -3814117.13949  -2958304.83745  24719354.667    24719359.890
  20330506.861   -26897990.75749 -20702321.03848  20330506.453    20330509.987
  23864786.484    -8759674.21649  -6274403.18445  23864786.322    23864792.083
  21198674.655   -21736175.00749 -16182499.14747  21198674.413    21198678.940
  22416520.476   -15298975.07949 -11901730.16547  22416520.576    22416524.523
 04  5 19  1 51  0.0000000  0  7G16G13G 4G20G11G 1G25
  22420072.917   -15619588.14349 -12159109.98046  22420072.707    22420077.197
  24134333.988    -8142484.57449  -6326387.95945  24134334.218    24134339.337
  24708964.126    -3868717.61749  -3000850.61645  24708964.549    24708969.920
  20326766.032   -26917649.03749 -20717639.17448  20326765.603    20326769.141
  23881569.057    -8671481.72549  -6205681.87945  23881568.874    23881574.681
  21191100.864   -21775975.55349 -16213512.54247  21191100.606    21191105.146
  22431422.009   -15220667.14149 -11840711.01547  22431422.100    22431426.047
 04  5 19  1 51 30.0000000  0  7G16G13G 4G20G11G 1G25
  22406220.890   -15692380.57449 -12215831.29146  22406220.716    22406225.147
  24118996.255    -8223084.43049  -6389192.92745  24118996.497    24119001.371
  24698661.869    -3922855.94749  -3043036.28545  24698662.243    24698667.643
  20323123.462   -26936790.76449 -20732554.79848  20323123.045    20323126.585
  23898364.883    -8583219.67049  -6136906.37445  23898364.716    23898370.595
  21183561.414   -21815595.64549 -16244385.32447  21183561.176    21183565.677
  22446358.564   -15142175.22649 -11779548.49947  22446358.629    22446362.609
 04  5 19  1 52  0.0000000  0  7G16G13G 4G20G11G 1G25
  22392438.077   -15764809.71149 -12272269.52046  22392437.868    22392442.297
  24103668.147    -8303633.40349  -6451958.27345  24103668.498    24103673.119
  24688447.296    -3976533.41249  -3084862.83745  24688447.724    24688453.240
  20319578.986   -26955417.12349 -20747068.84548  20319578.559    20319582.118
  23915172.810    -8494893.69549  -6068081.05745  23915172.690    23915178.588
  21176055.794   -21855037.90149 -16275119.53847  21176055.562    21176060.032
  22461329.134   -15063504.24149 -11718246.45847  22461329.226    22461333.222
 04  5 19  1 52 30.0000000  0  7G16G13G 4G20G11G 1G25
  22378725.352   -15836870.09949 -12328420.41446  22378725.181    22378729.631
  24088350.326    -8384128.71449  -6514681.79645  24088350.682    24088355.127
  24678321.085    -4029745.78349  -3126326.97045  24678321.504    24678327.120
  20316133.349   -26973524.00349 -20761178.10548  20316132.934    20316136.486
  23931992.943    -8406503.75749  -5999205.90045  23931992.756    23931998.752
  21168584.647   -21894299.08549 -16305712.64747  21168584.404    21168588.888
  22476333.966   -14984653.48749 -11656804.32947  22476334.058    22476338.069
 04  5 19  1 53  0.0000000  0  7G16G13G 4G20G11G 1G25
  22365083.245   -15908559.43649 -12384282.18346  22365083.085    22365087.513
  24073042.621    -8464570.76649  -6577363.80545  24073043.069    24073047.575
  24668283.775    -4082492.09449  -3167427.95845  24668284.232    24668289.790
  20312786.656   -26991110.95349 -20774882.22848  20312786.241    20312789.783
  23948824.605    -8318053.29149  -5930283.56545  23948824.454    23948830.391
  21161147.799   -21933379.86749 -16336165.19147  21161147.562    21161152.030
  22491372.514   -14905625.31349 -11595223.95647  22491372.567    22491376.600
 04  5 19  1 53 30.0000000  0  7G16G13G 4G20G11G 1G25
  22351512.142   -15979875.76649 -12439853.30346  22351512.001    22351516.418
  24057745.004    -8544960.21649  -6640004.86045  24057745.449    24057749.794
  24658335.328    -4134771.38649  -3208165.00345  24658335.799    24658341.468
  20309538.991   -27008177.44049 -20788180.78848  20309538.569    20309542.136
  23965667.025    -8229546.08749  -5861317.02545  23965666.903    23965672.874
  21153745.153   -21972281.02549 -16366477.76247  21153744.917    21153749.404
  22506444.248   -14826422.80649 -11533507.74147  22506444.303    22506448.338
 04  5 19  1 54  0.0000000  0  7G16G13G 4G20G11G 1G25
  22338012.666   -16050815.67849 -12495131.10346  22338012.506    22338016.915
  24042457.495    -8625296.38949  -6702604.37245  24042457.793    24042462.306
  24648476.158    -4186581.83549  -3248536.73445  24648476.615    24648482.277
  20306390.770   -27024721.51249 -20801072.27648  20306390.359    20306393.918
  23982519.834    -8140984.30149  -5792307.96945  23982519.717    23982525.703
  21146376.873   -22011001.56149 -16396649.59147  21146376.638    21146381.095
  22521548.937   -14747047.10749 -11471656.56947  22521548.986    22521553.031
 04  5 19  1 54 30.0000000  0  7G16G13G 4G20G11G 1G25
  22324585.473   -16121375.79349 -12550112.96246  22324585.331    22324589.708
  24027180.213    -8705578.28049  -6765161.58845  24027180.488    24027185.209
  24638706.653    -4237920.89549  -3288541.14945  24638707.048    24638712.719
  20303342.286   -27040741.41449 -20813555.31748  20303341.869    20303345.443
  23999382.559    -8052370.15449  -5723258.11245  23999382.464    23999388.493
  21139043.121   -22049540.63249 -16426680.01947  21139042.865    21139047.327
  22536686.372   -14667499.45749 -11409671.40547  22536686.427    22536690.476
 04  5 19  1 55  0.0000000  0  7G16G13G 4G20G11G 1G25
  22311230.792   -16191554.86449 -12604797.89746  22311230.647    22311234.975
  24011913.034    -8785807.23949  -6827677.56345  24011913.399    24011918.083
  24629026.793    -4288788.77549  -3328178.40145  24629027.199    24629032.847
  20300393.472   -27056237.40849 -20825630.11748  20300393.070    20300396.625
  24016254.472    -7963707.97449  -5654170.82745  24016254.353    24016260.525
  21131743.637   -22087899.63049 -16456570.13547  21131743.398    21131747.824
  22551855.833   -14587783.53349 -11347555.13047  22551855.875    22551859.939
 04  5 19  1 55 30.0000000  0  7G16G13G 4G20G11G 1G25
  22297949.279   -16261349.47649 -12659183.26646  22297949.131    22297953.459
  23996656.087    -8865982.36949  -6890151.60345  23996656.371    23996661.239
  24619437.018    -4339183.37649  -3367446.88345  24619437.319    24619442.923
  20297544.738   -27071207.60849 -20837295.20848  20297544.322    20297547.876
  24033135.139    -7874999.77049  -5585047.68645  24033135.036    24033141.229
  21124478.559   -22126077.77149 -16486319.31847  21124478.328    21124482.739
  22567057.104   -14507900.16449 -11285308.37847  22567057.151    22567061.244
 04  5 19  1 56  0.0000000  0  7G16G13G 4G20G11G 1G25
  22284741.555   -16330756.05549 -12713266.26746  22284741.435    22284745.742
  23981409.588    -8946102.69949  -6952582.93445  23981409.845    23981414.787
  24609937.596    -4389102.56049  -3406344.91145  24609937.875    24609943.481
  20294796.480   -27085649.85149 -20848548.90748  20294796.075    20294799.621
  24050024.314    -7786247.28049  -5515890.04645  24050024.184    24050030.393
  21117248.154   -22164073.72549 -16515926.53547  21117247.913    21117252.308
  22582290.058   -14427850.64349 -11222932.14947  22582290.096    22582294.170
 04  5 19  1 56 30.0000000  0  7G16G13G 4G20G11G 1G25
  22271608.046   -16399772.89049 -12767045.57446  22271607.917    22271612.218
  23966173.478    -9026168.85849  -7014972.05445  23966173.713    23966178.616
  24600528.927    -4438545.29849  -3444871.69145  24600529.158    24600534.796
  20292148.725   -27099563.90849 -20859391.03248  20292148.308    20292151.882
  24066921.191    -7697454.49849  -5446700.98545  24066921.067    24066927.229
  21110052.272   -22201888.19249 -16545392.33347  21110052.035    21110056.435
  22597554.020   -14347638.05249 -11160428.85846  22597554.079    22597558.140
 04  5 19  1 57  0.0000000  0  7G16G13G 4G20G11G 1G25
  22258549.233   -16468397.42949 -12820519.19646  22258549.077    22258553.393
  23950947.589    -9106180.92449  -7077319.01145  23950947.844    23950952.813
  24591211.065    -4487511.00049  -3483026.75745  24591211.329    24591216.935
  20289601.629   -27112948.85849 -20869820.86248  20289601.211    20289604.782
  24083825.106    -7608624.53249  -5377482.95745  24083825.024    24083830.930
  21102890.885   -22239521.38349 -16574716.87447  21102890.653    21102895.052
  22612848.657   -14267264.26449 -11097799.94846  22612848.730    22612852.796
 04  5 19  1 57 30.0000000  0  7G16G13G 4G20G11G 1G25
  22245565.669   -16536626.30449 -12873684.51046  22245565.506    22245569.814
  23935732.205    -9186137.89949  -7139623.06045  23935732.487    23935737.447
  24581984.438    -4535997.25349  -3520808.22845  24581984.676    24581990.289
  20287155.624   -27125802.80549 -20879836.93148  20287155.195    20287158.762
  24100735.628    -7519759.28849  -5308237.46045  24100735.658    24100741.628
  21095764.220   -22276972.21049 -16603899.31847  21095763.987    21095768.391
  22628173.709   -14186730.68949 -11035046.53546  22628173.761    22628177.853
 04  5 19  1 58  0.0000000  0  7G16G13G 4G20G11G 1G25
  22232657.805   -16604457.43249 -12926539.88046  22232657.641    22232661.923
  23920527.247    -9266040.37749  -7201884.64245  23920527.524    23920532.385
  24572849.247    -4584003.12549  -3558215.37445  24572849.490    24572855.037
  20284810.733   -27138125.24949 -20889438.83948  20284810.308    20284813.891
  24117652.144    -7430862.38549  -5238967.30045  24117652.167    24117658.286
  21088672.159   -22314240.98849 -16632939.90747  21088671.916    21088676.370
  22643528.683   -14106039.81449 -10972170.55346  22643528.741    22643532.864
 04  5 19  1 58 30.0000000  0  7G16G13G 4G20G11G 1G25
  22219826.494   -16671886.40349 -12979081.87546  22219826.285    22219830.533
  23905332.998    -9345886.31149  -7264102.16345  23905333.223    23905338.151
  24563806.038    -4631525.62749  -3595245.86845  24563806.350    24563811.792
  20282567.542   -27149913.30049 -20898624.33448  20282567.111    20282570.698
  24134574.581    -7341934.55349  -5169673.02045  24134574.562    24134580.806
  21081615.049   -22351326.04649 -16661837.33847  21081614.822    21081619.314
  22658913.534   -14025192.05549 -10909172.32246  22658913.600    22658917.702
 04  5 19  1 59  0.0000000  0  7G16G13G 4G20G11G 1G25
  22207071.780   -16738912.69849 -13031310.10746  22207071.585    22207075.795
  23890149.102    -9425677.78049  -7326277.25045  23890149.354    23890154.285
  24554854.596    -4678565.96249  -3631900.65145  24554854.908    24554860.338
  20280425.764   -27161168.28649 -20907394.45648  20280425.344    20280428.955
  24151501.954    -7252980.91649  -5100358.62245  24151501.933    24151508.224
  21074592.551   -22388229.32649 -16690593.12847  21074592.313    21074596.834
  22674327.480   -13944191.37049 -10846054.92746  22674327.550    22674331.599
 04  5 19  1 59 30.0000000  0  7G16G13G 4G20G11G 1G25
  22194394.635   -16805531.28649 -13083220.63546  22194394.450    22194398.620
  23874976.186    -9505411.99249  -7388407.72745  23874976.458    23874981.260
  24545995.682    -4725119.95249  -3668176.46645  24545995.961    24546001.399
  20278386.132   -27171886.69249 -20915746.46248  20278385.726    20278389.306
  24168434.286    -7164001.78849  -5031024.38845  24168434.290    24168440.447
  21067605.212   -22424947.95849 -16719205.03747  21067604.961    21067609.505
  22689770.690   -13863036.93649 -10782817.72746  22689770.739    22689774.769
 04  5 19  2  0  0.0000000  0  7G16G13G 4G20G11G 1G25
  22181795.132   -16871742.04449 -13134813.38847  22181794.943    22181799.079
  23859813.727    -9585091.40349  -7450495.50445  23859814.014    23859818.705
  24537229.050    -4771188.98949  -3704074.39745  24537229.359    24537234.669
  20276448.322   -27182069.79149 -20923681.34348  20276447.917    20276451.499
  24185370.451    -7075002.56749  -4961674.48745  24185370.406    24185376.595
  21060652.557   -22461484.24649 -16747674.86047  21060652.324    21060656.888
  22705242.175   -13781733.59949 -10719464.50546  22705242.238    22705246.272
 04  5 19  2  0 30.0000000  0  7G16G13G 4G20G11G 1G25
  22169274.132   -16937539.89349 -13186084.39047  22169273.961    22169278.109
  23844662.074    -9664713.17149  -7512538.36245  23844662.424    23844667.082
  24528555.473    -4816769.26649  -3739591.47345  24528555.654    24528560.968
  20274613.121   -27191713.97049 -20931196.28948  20274612.718    20274616.286
  24202310.349    -6985983.38949  -4892309.03845  24202310.239    24202316.404
  21053735.084   -22497835.64949 -16776000.61747  21053734.853    21053739.419
  22720742.168   -13700280.73449 -10655994.77046  22720742.237    22720746.297
 04  5 19  2  1  0.0000000  0  7G16G13G 4G20G11G 1G25
  22156831.850   -17002924.48949 -13237033.36847  22156831.694    22156835.823
  23829521.082    -9744279.28549  -7574537.85145  23829521.455    23829526.080
  24519974.554    -4861861.65649  -3774728.37645  24519974.795    24519980.121
  20272880.204   -27200820.59849 -20938292.35948  20272879.797    20272883.357
  24219253.127    -6896949.10449  -4822931.82745  24219252.980    24219259.363
  21046852.477   -22534003.97249 -16804183.71147  21046852.247    21046856.811
  22736269.863   -13618682.20649 -10592411.52646  22736269.938    22736274.017
 04  5 19  2  1 30.0000000  0  7G16G13G 4G20G11G 1G25
  22144469.193   -17067890.52349 -13287656.20747  22144469.013    22144473.149
  23814391.144    -9823786.99649  -7636491.84245  23814391.510    23814396.177
  24511487.337    -4906462.39049  -3809482.17745  24511487.670    24511492.825
  20271250.240   -27209386.13649 -20944966.80548  20271249.836    20271253.406
  24236198.696    -6807900.20649  -4753543.23545  24236198.538    24236205.052
  21040005.240   -22569986.52049 -16832222.05547  21040004.998    21040009.544
  22751825.449   -13536937.22149 -10528714.16846  22751825.519    22751829.625
 04  5 19  2  2  0.0000000  0  7G16G13G 4G20G11G 1G25
  22132186.136   -17132438.25849 -13337953.09347  22132185.976    22132190.085
  23799271.896    -9903238.85949  -7698402.31345  23799272.267    23799276.935
  24503093.410    -4950572.68049  -3843853.81145  24503093.721    24503098.868
  20269722.913   -27217412.26549 -20951220.92848  20269722.503    20269726.062
  24253146.054    -6718841.88249  -4684147.29245  24253145.966    24253152.483
  21033192.889   -22605785.71049 -16860117.52048  21033192.654    21033197.171
  22767407.991   -13455050.47049 -10464906.33946  22767408.062    22767412.164
 04  5 19  2  2 30.0000000  0  7G16G13G 4G20G11G 1G25
  22119983.580   -17196563.04749 -13387920.40947  22119983.424    22119987.493
  23784163.654    -9982632.83149  -7760267.67645  23784164.036    23784168.666
  24494793.226    -4994189.80449  -3877841.15645  24494793.538    24494798.863
  20268298.801   -27224895.99049 -20957052.39848  20268298.389    20268301.953
  24270095.080    -6629775.02949  -4614744.71345  24270094.963    24270101.530
  21026415.839   -22641399.27549 -16887868.34148  21026415.625    21026420.097
  22783017.490   -13373022.11549 -10400988.16646  22783017.565    22783021.699
 04  5 19  2  3  0.0000000  0  7G16G13G 4G20G11G 1G25
  22107861.861   -17260263.06449 -13437556.74547  22107861.706    22107865.756
  23769066.458   -10061969.03649  -7822088.02245  23769066.798    23769071.382
  24486587.131    -5037312.90349  -3911443.55345  24486587.428    24486592.846
  20266977.937   -27231837.19749 -20962461.13048  20266977.514    20266981.086
  24287045.028    -6540703.16049  -4545338.22245  24287044.959    24287051.454
  21019674.043   -22676827.62149 -16915474.83648  21019673.813    21019678.296
  22798653.465   -13290854.65949 -10336961.60446  22798653.511    22798657.653
 04  5 19  2  3 30.0000000  0  7G16G13G 4G20G11G 1G25
  22095821.413   -17323535.84449 -13486860.16547  22095821.251    22095825.305
  23753980.210   -10141247.16449  -7883863.13545  23753980.551    23753985.108
  24478475.258    -5079940.97749  -3944660.20945  24478475.504    24478480.961
  20265760.509   -27238234.82049 -20967446.28948  20265760.096    20265763.663
  24303995.391    -6451628.93249  -4475929.90645  24303995.384    24304001.948
  21012967.558   -22712070.44949 -16942936.77448  21012967.316    21012971.796
  22814315.650   -13208549.55149 -10272827.78446  22814315.688    22814319.801
 04  5 19  2  4  0.0000000  0  7G16G13G 4G20G11G 1G25
  22083862.732   -17386378.93349 -13535828.75847  22083862.560    22083866.622
  23738905.138   -10220467.24249  -7945593.00745  23738905.548    23738909.985
  24470457.829    -5122072.90049  -3977490.23945  24470458.174    24470463.510
  20264646.650   -27244088.14249 -20972007.32048  20264646.237    20264649.817
  24320945.734    -6362554.98049  -4406521.78245  24320945.689    24320952.289
  21006296.384   -22747127.50049 -16970253.94848  21006296.164    21006300.652
  22830003.617   -13126108.87849 -10208588.32646  22830003.657    22830007.775
 04  5 19  2  4 30.0000000  0  7G16G13G 4G20G11G 1G25
  22071986.676   -17448787.90449 -13584459.08147  22071986.512    22071990.548
  23723841.476   -10299627.26349  -8007276.07645  23723841.807    23723846.224
  24462535.317    -5163705.69549  -4009931.36445  24462535.679    24462541.005
  20263636.856   -27249394.63249 -20976142.24748  20263636.456    20263640.022
  24337895.851    -6273482.40749  -4337114.76245  24337895.835    24337902.371
  20999660.953   -22781996.89149 -16997424.89548  20999660.717    20999665.205
  22845717.244   -13043533.15849 -10144243.64346  22845717.309    22845721.432
 04  5 19  2  5  0.0000000  0  7G16G13G 4G20G11G 1G25
  22060193.145   -17510762.96049 -13632751.28447  22060192.996    22060197.004
  23708788.682   -10378729.63749  -8068914.20645  23708789.007    23708793.520
  24454707.514    -5204840.84849  -4041984.71545  24454707.878    24454713.186
  20262730.842   -27254155.93049 -20979852.34748  20262730.424    20262733.995
  24354844.679    -6184416.54649  -4267712.96845  24354844.641    24354851.240
  20993060.807   -22816680.94649 -17024451.42248  20993060.597    20993065.054
  22861455.806   -12960826.64649 -10079797.03846  22861455.844    22861459.997
 04  5 19  2  5 30.0000000  0  7G16G13G 4G20G11G 1G25
  22048483.019   -17572300.15449 -13680702.30147  22048482.873    22048486.819
  23693747.207   -10457772.70149  -8130506.12045  23693747.590    23693752.013
  24446974.863    -5245476.11049  -4073648.52045  24446975.132    24446980.449
  20261928.974   -27258369.70649 -20983135.81248  20261928.569    20261932.130
  24371791.946    -6095358.76649  -4198317.48645  24371791.919    24371798.435
  20986496.296   -22851177.76149 -17051332.04748  20986496.071    20986500.526
  22877219.246   -12877989.37449 -10015248.54546  22877219.281    22877223.445
 04  5 19  2  6  0.0000000  0  7G16G13G 4G20G11G 1G25
  22036856.693   -17633396.82649 -13728310.05747  22036856.542    22036860.469
  23678717.112   -10536755.93949  -8192051.43145  23678717.455    23678721.945
  24439337.630    -5285609.95749  -4104921.62945  24439337.888    24439343.111
  20261231.524   -27262034.80949 -20985991.73948  20261231.102    20261234.684
  24388737.119    -6006311.46549  -4128930.15445  24388737.119    24388743.844
  20979967.500   -22885486.85749 -17078066.39548  20979967.271    20979971.708
  22893007.222   -12795023.11749  -9950599.55546  22893007.271    22893011.428
 04  5 19  2  6 30.0000000  0  7G16G13G 4G20G11G 1G25
  22025314.668   -17694050.44949 -13775572.57947  22025314.492    22025318.396
  23663698.533   -10615678.71549  -8253549.63445  23663698.883    23663703.388
  24431796.114    -5325241.06949  -4135802.98845  24431796.360    24431801.472
  20260638.647   -27265150.38549 -20988419.46748  20260638.222    20260641.818
  24405679.858    -5917277.04349  -4059552.88345  24405679.859    24405686.660
  20973474.441   -22919608.03149 -17104654.31348  20973474.226    20973478.669
  22908819.508   -12711929.30949  -9885851.15546  22908819.524    22908823.677
 04  5 19  2  7  0.0000000  0  7G16G13G 4G20G11G 1G25
  22013857.172   -17754259.83949 -13822488.94947  22013856.984    22013860.886
  23648691.266   -10694542.49049  -8315001.86045  23648691.601    23648696.091
  24424350.093    -5364370.14449  -4166293.15145  24424350.394    24424355.522
  20260150.204   -27267717.13449 -20990419.54048  20260149.790    20260153.406
  24422619.325    -5828259.85449  -3990189.02345  24422619.342    24422626.317
  20967016.915   -22953542.38149 -17131096.65648  20967016.686    20967021.145
  22924655.322   -12628711.56949  -9821006.18846  22924655.351    22924659.514
 04  5 19  2  7 30.0000000  0  7G16G13G 4G20G11G 1G25
  22002484.815   -17814021.58049 -13869056.49747  22002484.657    22002488.568
  23633695.480   -10773345.61149  -8376406.83745  23633695.783    23633700.230
  24416999.909    -5402994.81249  -4196390.25745  24417000.252    24417005.453
  20259766.531   -27269733.25149 -20991990.55148  20259766.126    20259769.735
  24439555.199    -5739261.39749  -3920839.77345  24439555.188    24439562.355
  20960595.291   -22987288.37849 -17157392.23148  20960595.072    20960599.522
  22940514.585   -12545370.69549  -9756065.28446  22940514.613    22940518.796
 04  5 19  2  8  0.0000000  0  7G16G13G 4G20G11G 1G25
  21991198.455   -17873331.72349 -13915272.15547  21991198.280    21991202.196
  23618711.526   -10852086.54049  -8437763.34745  23618711.766    23618716.195
  24409746.228    -5441112.54949  -4226092.37045  24409746.574    24409751.719
  20259488.081   -27271196.49249 -20993130.74548  20259487.669    20259491.300
  24456487.300    -5650282.96249  -3851506.12245  24456487.286    24456494.576
  20954209.828   -23020844.22349 -17183539.63448  20954209.593    20954214.049
  22956397.242   -12461906.81449  -9691028.52046  22956397.277    22956401.471
 04  5 19  2  8 30.0000000  0  7G16G13G 4G20G11G 1G25
  21979997.811   -17932191.16049 -13961136.61047  21979997.645    21980001.561
  23603738.824   -10930768.26749  -8499073.72945  23603739.071    23603743.508
  24402588.590    -5478725.81549  -4255401.38945  24402588.869    24402594.008
  20259314.388   -27272109.37549 -20993842.08948  20259313.989    20259317.590
  24473414.616    -5561330.21249  -3782192.48345  24473414.528    24473421.895
  20947859.945   -23054212.91849 -17209541.20748  20947859.728    20947864.184
  22972302.350   -12378324.82549  -9625899.72546  22972302.386    22972306.628
 04  5 19  2  9  0.0000000  0  7G16G13G 4G20G11G 1G25
  21968884.085   -17990594.01949 -14006645.28947  21968883.918    21968887.824
  23588778.173   -11009386.91649  -8560334.96245  23588778.478    23588782.842
  24395527.953    -5515830.03249  -4284313.74645  24395528.168    24395533.450
  20259246.255   -27272467.55449 -20994121.19748  20259245.846    20259249.455
  24490337.205    -5472402.61849  -3712898.46045  24490336.992    24490344.195
  20941546.409   -23087390.77849 -17235394.07748  20941546.189    20941550.645
  22988230.232   -12294623.20349  -9560677.70946  22988230.289    22988234.581
 04  5 19  2  9 30.0000000  0  7G16G13G 4G20G11G 1G25
  21957857.260   -18048540.18249 -14051798.10247  21957857.082    21957860.993
  23573829.140   -11087944.31349  -8621548.46545  23573829.408    23573833.764
  24388563.953    -5552426.40349  -4312830.37045  24388564.168    24388569.316
  20259283.384   -27272272.36449 -20993969.10448  20259282.960    20259286.578
  24507253.997    -5383505.17849  -3643627.90745  24507253.851    24507261.081
  20935268.881   -23120379.49449 -17261099.55748  20935268.655    20935273.083
  23004180.187   -12210805.64049  -9495365.34646  23004180.227    23004184.537
 04  5 19  2 10  0.0000000  0  7G16G13G 4G20G11G 1G25
  21946917.894   -18106026.82249 -14096592.84147  21946917.715    21946921.614
  23558891.892   -11166439.91849  -8682713.81745  23558892.168    23558896.533
  24381696.668    -5588513.74149  -4340950.36445  24381697.092    24381702.014
  20259425.967   -27271523.27249 -20993385.40348  20259425.542    20259429.158
  24524164.743    -5294639.83349  -3574382.39645  24524164.633    24524171.834
  20929027.457   -23153178.33749 -17286657.08348  20929027.236    20929031.651
  23020151.924   -12126873.82149  -9429963.95846  23020151.961    23020156.286
 04  5 19  2 10 30.0000000  0  7G16G13G 4G20G11G 1G25
  21936066.467   -18163051.35749 -14141027.50447  21936066.287    21936070.186
  23543966.459   -11244873.22649  -8743830.62545  23543966.731    23543971.142
  24374926.615    -5624090.85549  -4368672.75645  24374926.969    24374932.014
  20259674.142   -27270219.10249 -20992369.17848  20259673.720    20259677.313
  24541068.839    -5205808.93049  -3505163.71045  24541068.851    24541075.880
  20922822.298   -23185786.73449 -17312066.20848  20922822.052    20922826.498
  23036145.100   -12042829.31649  -9364474.76346  23036145.138    23036149.437
 04  5 19  2 11  0.0000000  0  7G16G13G 4G20G11G 1G25
  21925303.468   -18219611.11249 -14185099.99947  21925303.268    21925307.182
  23529052.986   -11323243.52049  -8804898.32545  23529053.276    23529057.746
  24368253.737    -5659156.48549  -4395996.60145  24368254.159    24368259.207
  20260028.150   -27268358.83849 -20990919.62748  20260027.725    20260031.305
  24557965.858    -5117015.03249  -3435973.83945  24557965.794    24557973.059
  20916653.468   -23218204.12549 -17337326.49748  20916653.222    20916657.679
  23052159.485   -11958673.32249  -9298898.68646  23052159.542    23052163.822
 04  5 19  2 11 30.0000000  0  7G16G13G 4G20G11G 1G25
  21914629.459   -18275703.04249 -14228807.96047  21914629.268    21914633.199
  23514151.833   -11401549.52349  -8865915.93145  23514152.122    23514156.516
  24361678.687    -5693708.81149  -4422920.46545  24361679.021    24361683.957
  20260488.219   -27265941.07549 -20989035.66248  20260487.806    20260491.375
  24574855.509    -5028259.71249  -3366814.05545  24574855.461    24574862.730
  20910521.206   -23250429.14949 -17362436.88948  20910520.968    20910525.408
  23068194.894   -11874406.82749  -9233236.51546  23068194.921    23068199.247
 04  5 19  2 12  0.0000000  0  7G16G13G 4G20G11G 1G25
  21904044.461   -18331327.25049 -14272151.45347  21904044.276    21904048.182
  23499262.461   -11479793.46049  -8926885.17145  23499262.709    23499267.063
  24355200.984    -5727749.87049  -4449445.94045  24355201.205    24355206.161
  20261054.045   -27262967.80449 -20986718.83148  20261053.634    20261057.199
  24591736.868    -4939548.40449  -3297688.54945  24591736.784    24591744.124
  20904425.127   -23282464.15949 -17387399.21848  20904424.888    20904429.344
  23084250.510   -11790033.86449  -9167491.37446  23084250.585    23084254.895
 04  5 19  2 12 30.0000000  0  7G16G13G 4G20G11G 1G25
  21893549.349   -18386479.23149 -14315126.98547  21893549.171    21893553.063
  23484385.333   -11557972.91149  -8987804.14845  23484385.609    23484389.997
  24348821.019    -5761276.18149  -4475570.30345  24348821.202    24348826.274
  20261726.081   -27259436.24949 -20983966.97748  20261725.669    20261729.244
  24608609.797    -4850881.21949  -3228597.42445  24608609.734    24608617.106
  20898365.769   -23314306.27249 -17412211.24148  20898365.533    20898369.973
  23100326.449   -11705554.29149  -9101663.16146  23100326.517    23100330.841
 04  5 19  2 13  0.0000000  0  7G16G13G 4G20G11G 1G25
  21883144.425   -18441157.42249 -14357733.32847  21883144.225    21883148.121
  23469520.398   -11636088.35749  -9048673.25545  23469520.689    23469525.044
  24342539.057    -5794287.95449  -4501293.76645  24342539.211    24342544.428
  20262504.341   -27255346.47749 -20980780.15248  20262503.920    20262507.491
  24625473.695    -4762261.65649  -3159543.39545  24625473.569    24625481.016
  20892343.004   -23345956.09649 -17436873.42448  20892342.782    20892347.176
  23116422.268   -11620970.29249  -9035753.57146  23116422.324    23116426.676
 04  5 19  2 13 30.0000000  0  7G16G13G 4G20G11G 1G25
  21872830.072   -18495359.39749 -14399968.59147  21872829.885    21872833.767
  23454667.869   -11714139.06949  -9109491.91746  23454668.132    23454672.458
  24336355.195    -5826784.05249  -4526615.38345  24336355.392    24336360.534
  20263388.930   -27250697.92549 -20977157.90748  20263388.508    20263392.083
  24642328.135    -4673692.13149  -3090528.37345  24642328.091    24642335.586
  20886356.987   -23377412.80549 -17461385.12948  20886356.756    20886361.144
  23132537.609   -11536283.57249  -8969763.95146  23132537.687    23132542.061
 04  5 19  2 14  0.0000000  0  7G16G13G 4G20G11G 1G25
  21862606.914   -18549082.55649 -14441830.74747  21862606.723    21862610.581
  23439827.634   -11792124.27949  -9170259.53845  23439827.905    23439832.300
  24330269.560    -5858763.26249  -4551534.22045  24330269.975    24330274.938
  20264380.095   -27245489.28049 -20973099.22648  20264379.692    20264383.257
  24659172.679    -4585174.52949  -3021553.79845  24659172.530    24659179.891
  20880407.849   -23408675.68849 -17485745.79848  20880407.605    20880411.986
  23148672.311   -11451495.26749  -8903695.16346  23148672.378    23148676.797
 04  5 19  2 14 30.0000000  0  7G16G13G 4G20G11G 1G25
  21852475.144   -18602325.01849 -14483318.33747  21852474.976    21852478.827
  23424999.915   -11870044.05549  -9230976.17145  23425000.230    23425004.594
  24324282.563    -5890225.43049  -4576050.18945  24324282.799    24324288.046
  20265477.810   -27239720.75149 -20968604.27448  20265477.402    20265480.964
  24676006.606    -4496712.15049  -2952622.24745  24676006.616    24676013.963
  20874495.545   -23439744.90149 -17509955.55848  20874495.318    20874499.701
  23164826.019   -11366607.26849  -8837548.69346  23164826.075    23164830.439
 04  5 19  2 15  0.0000000  0  7G16G13G 4G20G11G 1G25
  21842435.158   -18655085.19949 -14524430.12347  21842434.997    21842438.830
  23410184.583   -11947898.79649  -9291642.13746  23410184.916    23410189.249
  24318393.833    -5921170.59149  -4600163.27945  24318394.115    24318399.330
  20266682.053   -27233392.41049 -20963673.10448  20266681.648    20266685.219
  24692829.469    -4408308.17049  -2883736.21445  24692829.479    24692836.811
  20868620.100   -23470620.56149 -17534014.50648  20868619.875    20868624.248
  23180998.153   -11281622.40149  -8771326.74546  23180998.199    23181002.538
 04  5 19  2 15 30.0000000  0  7G16G13G 4G20G11G 1G25
  21832487.585   -18707359.87849 -14565163.59847  21832487.413    21832491.236
  23395381.927   -12025686.89449  -9352256.16946  23395382.274    23395386.555
  24312603.978    -5951596.41049  -4623871.71645  24312604.195    24312609.625
  20267993.099   -27226502.85649 -20958304.62248  20267992.701    20267996.288
  24709641.028    -4319963.79149  -2814896.62945  24709641.112    24709648.332
  20862781.759   -23501301.10649 -17557921.41748  20862781.527    20862785.892
  23197188.587   -11196541.06649  -8705029.63746  23197188.651    23197192.997
 04  5 19  2 16  0.0000000  0  7G16G13G 4G20G11G 1G25
  21822632.750   -18759147.16649 -14605517.28847  21822632.596    21822636.418
  23380591.969   -12103408.34349  -9412818.25846  23380592.323    23380596.565
  24306912.996    -5981502.77549  -4647175.35645  24306913.204    24306918.703
  20269410.962   -27219051.88049 -20952498.67048  20269410.569    20269414.142
  24726440.625    -4231682.16349  -2746105.94445  24726440.621    24726447.997
  20856980.583   -23531786.43649 -17581676.20448  20856980.353    20856984.733
  23213397.053   -11111364.99649  -8638658.69946  23213397.140    23213401.488
 04  5 19  2 16 30.0000000  0  6G16G13G 4G20G 1G25
  21812871.462   -18810442.84949 -14645487.90747  21812871.314    21812875.146
  23365815.227   -12181060.82149  -9473326.60246  23365815.532    23365819.711
  24301321.384    -6010887.03649  -4670072.17345  24301321.665    24301327.152
  20270936.148   -27211037.07249 -20946253.36548  20270935.733    20270939.324
  20851217.038   -23562074.20149 -17605277.04548  20851216.813    20851221.171
  23229623.586   -11026093.83749  -8572213.65946  23229623.706    23229628.103
 04  5 19  2 17  0.0000000  0  6G16G13G 4G20G 1G25
  21803204.600   -18861242.24949 -14685071.82047  21803204.466    21803208.299
  23351052.067   -12258641.31449  -9533778.86846  23351052.383    23351056.511
  24295829.805    -6039745.75449  -4692559.46245  24295830.106    24295835.458
  20272569.232   -27202455.09449 -20939566.11648  20272568.833    20272572.423
  20845491.653   -23592161.24349 -17628721.48748  20845491.417    20845495.806
  23245868.387   -10940726.80249  -8505693.92046  23245868.520    23245872.957
 04  5 19  2 17 30.0000000  0  6G16G13G 4G20G 1G25
  21793631.210   -18911550.57249 -14724273.07647  21793631.063    21793634.907
  23336301.144   -12336157.01549  -9594180.64045  23336301.505    23336305.684
  24290436.924    -6068086.10749  -4714642.84645  24290437.081    24290442.430
  20274308.830   -27193313.46949 -20932442.76948  20274308.418    20274312.031
  20839803.086   -23622054.85949 -17652015.20648  20839802.865    20839807.223
  23262129.723   -10855272.95449  -8439106.53646  23262129.863    23262134.264
 04  5 19  2 18  0.0000000  0  6G16G13G 4G20G 1G25
  21784151.899   -18961364.63749 -14763089.19547  21784151.746    21784155.561
  23321563.027   -12413606.07849  -9654530.49745  23321563.368    23321567.526
  24285142.924    -6095905.85849  -4736320.57345  24285143.095    24285148.455
  20276155.260   -27183610.27349 -20924881.83848  20276154.860    20276158.458
  20834151.632   -23651753.35749 -17675156.88648  20834151.407    20834155.781
  23278407.660   -10769732.22849  -8372451.45546  23278407.803    23278412.202
 04  5 19  2 18 30.0000000  0  6G16G13G 4G20G 1G25
  21774767.188   -19010681.45549 -14801517.84347  21774767.033    21774770.817
  23306837.823   -12490987.23449  -9714827.42445  23306838.142    23306842.343
  24279948.290    -6123203.87749  -4757591.74445  24279948.561    24279953.909
  20278108.740   -27173344.70649 -20916882.69948  20278108.328    20278111.936
  20828537.579   -23681255.34849 -17698145.44148  20828537.344    20828541.724
  23294701.851   -10684105.88949  -8305729.65646  23294701.904    23294706.364
 04  5 19  2 19  0.0000000  0  6G16G13G 4G20G 1G25
  21765477.702   -19059497.78349 -14839556.51047  21765477.593    21765481.340
  23292125.806   -12568298.95049  -9775070.25246  23292126.127    23292130.341
  24274853.253    -6149978.10049  -4778454.79345  24274853.568    24274858.849
  20280169.571   -27162515.13049 -20908444.07348  20280169.161    20280172.763
  20822961.191   -23710559.23549 -17720979.63248  20822960.964    20822965.358
  23311012.207   -10598394.52449  -8238941.61646  23311012.252    23311016.739
 04  5 19  2 19 30.0000000  0  6G16G13G 4G20G 1G25
  21756283.402   -19107814.06349 -14877205.52647  21756283.249    21756287.010
  23277426.602   -12645543.61549  -9835260.84346  23277426.922    23277431.064
  24269857.445    -6176230.88949  -4798911.50045  24269857.827    24269863.078
  20282337.287   -27151123.70749 -20899567.64448  20282336.870    20282340.472
  20817422.125   -23739667.26049 -17743661.20448  20817421.909    20817426.293
  23327337.997   -10512602.02449  -8172090.34646  23327338.010    23327342.528
 04  5 19  2 20  0.0000000  0  6G16G13G 4G20G 1G25
  21747185.452   -19155623.94049 -14914459.94447  21747185.317    21747189.051
  23262741.014   -12722716.31449  -9895395.35246  23262741.290    23262745.505
  24264961.877    -6201957.29849  -4818958.04645  24264962.106    24264967.541
  20284612.789   -27139165.91049 -20890249.88948  20284612.365    20284615.953
  20811921.251   -23768574.56849 -17766186.38048  20811921.037    20811925.388
  23343679.713   -10426725.62249  -8105173.69346  23343679.786    23343684.283
 04  5 19  2 20 30.0000000  0  6G16G13G 4G20G 1G25
  21738183.505   -19202929.31349 -14951321.24247  21738183.359    21738187.140
  23248068.566   -12799820.47649  -9955476.46846  23248068.827    23248073.003
  24260165.910    -6227160.50649  -4838596.92045  24260166.186    24260171.430
  20286995.386   -27126645.20149 -20880493.50348  20286994.966    20286998.556
  20806457.904   -23797284.53049 -17788557.77748  20806457.679    20806462.046
  23360036.394   -10340770.71049  -8038195.88346  23360036.473    23360040.979
 04  5 19  2 21  0.0000000  0  6G16G13G 4G20G 1G25
  21729278.288   -19249726.41449 -14987786.48047  21729278.134    21729281.909
  23233409.569   -12876853.87649 -10015502.43246  23233409.825    23233413.959
  24255469.836    -6251838.37249  -4857826.42645  24255470.147    24255475.311
  20289485.477   -27113559.67149 -20870296.99148  20289485.052    20289488.651
  20801032.580   -23825794.83149 -17810773.58748  20801032.355    20801036.725
  23376408.052   -10254737.00649  -7971156.66246  23376408.139    23376412.630
 04  5 19  2 21 30.0000000  0  6G16G13G 4G20G 1G25
  21720470.167   -19296013.26849 -15023854.12947  21720470.022    21720473.767
  23218764.081   -12953816.16749 -10075473.00246  23218764.354    23218768.505
  24250873.875    -6275990.49949  -4876646.25445  24250874.219    24250879.352
  20292083.026   -27099909.36749 -20859660.39948  20292082.614    20292086.211
  20795645.308   -23854105.13049 -17832833.55748  20795645.084    20795649.465
  23392794.417   -10168626.27649  -7904057.42746  23392794.475    23392799.012
 04  5 19  2 22  0.0000000  0  6G16G13G 4G20G 1G25
  21711759.685   -19341786.92349 -15059521.87647  21711759.532    21711763.271
  23204132.334   -13030705.88849 -10135387.02246  23204132.713    23204136.827
  24246378.165    -6299615.56349  -4895055.38245  24246378.511    24246383.633
  20294788.369   -27085692.76449 -20848582.53748  20294787.971    20294791.570
  20790296.410   -23882213.82449 -17854736.43348  20790296.187    20790300.563
  23409195.320   -10082439.13749  -7836898.64446  23409195.391    23409199.932
 04  5 19  2 22 30.0000000  0  6G16G13G 4G20G 1G25
  21703146.996   -19387046.98649 -15094789.43047  21703146.814    21703150.549
  23189514.420   -13107524.09749 -10195245.30946  23189514.743    23189518.789
  24241982.590    -6322714.25449  -4913054.36445  24241983.004    24241988.086
  20297601.179   -27070911.41849 -20837064.60948  20297600.773    20297604.372
  20784985.682   -23910121.93549 -17876483.01048  20784985.464    20784989.819
  23425610.207    -9996178.48549  -7769682.59346  23425610.248    23425614.845
 04  5 19  2 23  0.0000000  0  6G16G13G 4G20G 1G25
  21694632.471   -19431790.97749 -15129654.85347  21694632.309    21694636.037
  23174910.206   -13184269.77149 -10255047.09046  23174910.524    23174914.566
  24237687.350    -6345285.97249  -4930642.72145  24237687.838    24237692.771
  20300521.576   -27055564.61249 -20825106.07048  20300521.182    20300524.786
  20779713.273   -23937828.61149 -17898072.62548  20779713.044    20779717.404
  23442038.897    -9909845.29549  -7702410.01646  23442038.954    23442043.572
 04  5 19  2 23 30.0000000  0  6G16G13G 4G20G 1G25
  21686216.663   -19476016.13049 -15164115.98447  21686216.515    21686220.227
  23160319.898   -13260941.84849 -10314791.50646  23160320.224    23160324.323
  24233492.635    -6367329.52349  -4947819.49045  24233493.152    24233497.988
  20303549.706   -27039651.58149 -20812706.31348  20303549.305    20303552.925
  20774479.432   -23965332.56549 -17919504.27548  20774479.207    20774483.557
  23458481.203    -9823440.47149  -7635081.61146  23458481.261    23458485.905
 04  5 19  2 24  0.0000000  0  6G16G13G 4G20G 1G25
  21677899.761   -19519721.53049 -15198172.10747  21677899.603    21677903.324
  23145743.599   -13337540.50049 -10374478.73146  23145743.985    23145748.071
  24229398.351    -6388845.18749  -4964584.94545  24229398.826    24229403.776
  20306685.476   -27023173.04349 -20799865.90348  20306685.075    20306688.714
  20769284.128   -23992634.11049 -17940778.19848  20769283.894    20769288.235
  23474936.704    -9736966.50649  -7567699.34346  23474936.769    23474941.393
 04  5 19  2 24 30.0000000  0  6G16G13G 4G20G 1G25
  21669682.120   -19562905.45349 -15231821.88947  21669681.941    21669685.649
  23131181.446   -13414065.21349 -10434108.32746  23131181.777    23131185.829
  24225404.518    -6409832.99549  -4980939.08245  24225404.931    24225409.861
  20309928.915   -27006128.75149 -20786584.64848  20309928.499    20309932.153
  20764127.400   -24019732.72949 -17961894.00048  20764127.174    20764131.495
  23491405.098    -9650424.79949  -7500264.27546  23491405.159    23491409.746
 04  5 19  2 25  0.0000000  0  6G16G13G 4G20G 1G25
  21661564.039   -19605566.21849 -15265064.01447  21661563.881    21661567.535
  23116633.310   -13490515.91149 -10493680.24946  23116633.627    23116637.685
  24221511.170    -6430292.74549  -4996881.74545  24221511.567    24221516.484
  20313279.913   -26988519.08949 -20772862.84548  20313279.509    20313283.141
  20759009.359   -24046628.16449 -17982851.47648  20759009.127    20759013.455
  23507886.044    -9563817.31249  -7432777.94746  23507886.049    23507890.613
 04  5 19  2 25 30.0000000  0  6G16G13G 4G20G 1G25
  21653546.196   -19647700.27449 -15297895.71747  21653546.052    21653549.686
  23102099.572   -13566890.70749 -10553193.02146  23102099.909    23102103.999
  24217718.628    -6450222.57049  -5012411.47745  24217719.012    24217724.005
  20316738.820   -26970342.42549 -20758699.21748  20316738.405    20316742.059
  20753930.371   -24073318.48049 -18003649.12048  20753930.153    20753934.468
  23524379.596    -9477143.67049  -7365240.08146  23524379.590    23524384.046
 04  5 19  2 26  0.0000000  0  6G16G13G 4G20G 1G25
  21645628.416   -19689308.23149 -15330317.47447  21645628.274    21645631.912
  23087580.067   -13643191.33849 -10612648.01146  23087580.381    23087584.480
  24214026.543    -6469624.40249  -5027529.79445  24214026.998    24214032.048
  20320305.217   -26951600.77749 -20744095.34348  20320304.806    20320308.466
  20748890.099   -24099805.26249 -18024288.15948  20748889.872    20748894.205
  23540884.945    -9390407.59849  -7297653.56446  23540884.925    23540889.409
 04  5 19  2 26 30.0000000  0  6G16G13G 4G20G 1G25
  21637811.508   -19730386.26349 -15362326.30147  21637811.355    21637814.973
  23073075.095   -13719415.12649 -10672043.12946  23073075.422    23073079.516
  24210435.420    -6488496.05149  -5042234.98045  24210435.814    24210440.968
  20323979.470   -26932292.49649 -20729049.94048  20323979.052    20323982.730
  20743889.002   -24126086.18349 -18044766.79148  20743888.775    20743893.118
  23557402.239    -9303608.79649  -7230018.16346  23557402.220    23557406.671
 04  5 19  2 27  0.0000000  0  6G16G13G 4G20G 1G25
  21630095.734   -19770933.00249 -15393921.13447  21630095.587    21630099.184
  23058584.745   -13795562.22549 -10731378.47346  23058585.104    23058589.202
  24206945.106    -6506837.84649  -5056527.27745  24206945.480    24206950.711
  20327761.501   -26912417.87849 -20713563.23348  20327761.094    20327764.757
  20738927.125   -24152161.03549 -18065084.84448  20738926.890    20738931.216
  23573931.035    -9216749.34449  -7162335.50946  23573931.027    23573935.482
 04  5 19  2 27 30.0000000  0  6G16G13G 4G20G 1G25
  21622481.331   -19810946.71349 -15425100.62547  21622481.178    21622484.790
  23044109.196   -13871631.95949 -10790653.55246  23044109.505    23044113.539
  24203555.726    -6524649.37749  -5070406.39445  24203556.096    24203561.334
  20331651.298   -26891976.89949 -20697635.20748  20331650.891    20331654.541
  20734004.544   -24178029.23249 -18085241.87648  20734004.308    20734008.648
  23590471.205    -9129830.24149  -7094606.36646  23590471.186    23590475.695
 04  5 19  2 28  0.0000000  0  6G16G13G 4G20G 1G25
  21614968.444   -19850427.14349 -15455864.56747  21614968.289    21614971.890
  23029648.098   -13947625.35249 -10849869.12846  23029648.396    23029652.433
  24200266.957    -6541931.98549  -5083873.35545  24200267.294    24200272.531
  20335648.541   -26870971.18849 -20681267.13248  20335648.134    20335651.803
  20729121.141   -24203691.73849 -18105238.62548  20729120.908    20729125.226
  23607022.109    -9042854.62349  -7026833.18946  23607022.109    23607026.592
 04  5 19  2 28 30.0000000  0  6G16G13G 4G20G 1G25
  21607557.699   -19889370.82949 -15486210.27047  21607557.549    21607561.152
  23015202.001   -14023539.99349 -10909023.34046  23015202.307    23015206.278
  24197079.190    -6558683.69549  -5096926.64445  24197079.590    24197084.805
  20339753.624   -26849398.94849 -20664457.60748  20339753.222    20339756.891
  20724277.305   -24229146.30049 -18125073.34448  20724277.072    20724281.368
  23623583.863    -8955822.08749  -6959015.65246  23623583.883    23623588.352
 04  5 19  2 29  0.0000000  0  7G16G13G 4G27G20G 1G25
  21600247.877   -19927784.28049 -15516142.79747  21600247.730    21600251.299
  23000769.471   -14099383.56649 -10968122.17546  23000769.769    23000773.688
  24193990.920    -6574912.61549  -5109572.55545  24193991.239    24193996.525
  24830499.790    -3883456.42759  -2768328.15645  24830499.743    24830508.320
  20343964.883   -26827268.64249 -20647213.22048  20343964.486    20343968.145
  20719471.607   -24254400.47549 -18144751.91048  20719471.368    20719475.646
  23640154.631    -8868742.22449  -6891161.22946  23640154.691    23640159.109
 04  5 19  2 29 30.0000000  0  7G16G13G 4G27G20G 1G25
  21593040.724   -19965658.00249 -15545654.76047  21593040.569    21593044.142
  22986351.930   -14175147.71249 -11027159.11646  22986352.250    22986356.140
  24191003.607    -6590610.95049  -5121805.02345  24191003.926    24191009.218
  24814295.961    -3968607.10449  -2834679.12545  24814295.811    24814304.543
  20348283.822   -26804572.61249 -20629528.01448  20348283.417    20348287.074
  20714705.587   -24279445.91549 -18164267.82548  20714705.358    20714709.620
  23656735.696    -8781608.54549  -6823264.88846  23656735.753    23656740.086
 04  5 19  2 30  0.0000000  0  7G16G13G 4G27G20G 1G25
  21585937.356   -20002986.51749 -15574741.88347  21585937.187    21585940.744
  22971950.382   -14250828.29349 -11086130.94346  22971950.719    22971954.547
  24188118.044    -6605774.77249  -5133621.01045  24188118.414    24188123.705
  24798118.331    -4053619.80349  -2900922.58245  24798118.271    24798126.737
  20352711.102   -26781307.10049 -20611399.05248  20352710.682    20352714.356
  20709980.166   -24304278.18349 -18183617.63348  20709979.929    20709984.190
  23673327.311    -8694419.03349  -6755325.03146  23673327.367    23673331.769
 04  5 19  2 30 30.0000000  0  7G16G13G 4G27G20G 1G25
  21578937.346   -20039771.60449 -15603405.55847  21578937.163    21578940.733
  22957564.135   -14326428.14549 -11145039.87046  22957564.459    22957568.375
  24185333.585    -6620407.16349  -5145022.87245  24185334.012    24185339.274
  24781966.541    -4138497.02949  -2967060.48545  24781966.442    24781974.840
  20357246.078   -26757475.74649 -20592829.17648  20357245.672    20357249.356
  20705294.737   -24328900.07749 -18202803.51348  20705294.503    20705298.785
  23689928.638    -8607178.26149  -6687345.23346  23689928.763    23689933.232
 04  5 19  2 31  0.0000000  0  7G16G13G 4G27G20G 1G25
  21572041.444   -20076009.67249 -15631642.98847  21572041.287    21572044.858
  22943193.789   -14401944.23549 -11203883.53446  22943194.147    22943198.130
  24182650.677    -6634506.13749  -5156009.08545  24182651.039    24182656.382
  24765841.182    -4223236.05949  -3033090.70345  24765841.075    24765849.337
  20361889.101   -26733076.58049 -20573816.85448  20361888.678    20361892.371
  20700649.856   -24353309.00149 -18221823.44248  20700649.629    20700653.919
  23706539.896    -8519885.37049  -6619324.83246  23706539.984    23706544.554
 04  5 19  2 31 30.0000000  0  7G16G13G 4G27G20G 1G25
  21565249.317   -20111702.32149 -15659455.41647  21565249.159    21565252.724
  22928838.888   -14477379.53549 -11262664.24046  22928839.245    22928843.194
  24180068.625    -6648074.80049  -5166582.07445  24180068.996    24180074.302
  24749741.565    -4307839.21749  -3099015.03045  24749741.461    24749749.604
  20366639.492   -26708113.12649 -20554364.82448  20366639.069    20366642.773
  20696044.994   -24377507.65549 -18240679.52948  20696044.766    20696049.058
  23723160.150    -8432545.27549  -6551267.63646  23723160.248    23723164.882
 04  5 19  2 32  0.0000000  0  7G16G13G 4G27G20G 1G25
  21558561.324   -20146847.87349 -15686841.53347  21558561.169    21558564.727
  22914499.549   -14552733.22649 -11321381.36146  22914499.892    22914503.850
  24177587.441    -6661113.14849  -5176741.82445  24177587.834    24177593.203
  24733667.969    -4392305.87749  -3164832.97845  24733667.789    24733675.939
  20371497.272   -26682585.36349 -20534473.07148  20371496.856    20371500.557
  20691480.342   -24401495.10749 -18259371.04048  20691480.126    20691484.418
  23739789.238    -8345159.03649  -6483174.48946  23739789.276    23739793.940
 04  5 19  2 32 30.0000000  0  7G16G13G 4G27G20G 1G25
  21551978.058   -20181443.09249 -15713798.82147  21551977.896    21551981.442
  22900176.111   -14628003.16949 -11380033.23246  22900176.437    22900180.391
  24175207.567    -6673619.63849  -5186487.14545  24175207.902    24175213.293
  24717620.703    -4476633.72949  -3230542.78145  24717620.518    24717628.689
  20376462.640   -26656492.15049 -20514140.70748  20376462.229    20376465.933
  20686956.235   -24425269.38349 -18277896.44148  20686956.028    20686960.310
  23756427.079    -8257726.56149  -6415045.31246  23756427.128    23756431.783
 04  5 19  2 33  0.0000000  0  7G16G13G 4G27G20G 1G25
  21545499.606   -20215487.54749 -15740326.94647  21545499.451    21545502.966
  22885868.552   -14703189.83649 -11438620.20346  22885868.882    22885872.820
  24172928.754    -6685595.19449  -5195818.75745  24172929.079    24172934.418
  24701599.803    -4560822.91649  -3296144.52545  24701599.659    24701607.739
  20381535.372   -26629834.80549 -20493368.76048  20381534.967    20381538.662
  20682472.634   -24448830.81749 -18296256.00148  20682472.422    20682476.679
  23773073.302    -8170250.02649  -6346881.79946  23773073.454    23773078.008
 04  5 19  2 33 30.0000000  0  7G16G13G 4G27G20G 1G25
  21539126.079   -20248980.59149 -15766425.39947  21539125.933    21539129.427
  22871576.803   -14778293.47049 -11497142.48446  22871577.126    22871581.055
  24170750.760    -6697040.56049  -5204737.23845  24170751.087    24170756.394
  24685605.348    -4644873.49349  -3361638.26645  24685605.162    24685613.320
  20386715.245   -26602614.28549 -20472157.97448  20386714.841    20386718.538
  20678029.545   -24472179.56849 -18314449.82848  20678029.308    20678033.553
  23789727.475    -8082731.75549  -6278685.77346  23789727.594    23789732.174
 04  5 19  2 34  0.0000000  0  7G16G13G 4G27G20G 1G25
  21532857.967   -20281919.59049 -15792092.12747  21532857.793    21532861.299
  22857301.112   -14853312.40549 -11555598.77146  22857301.400    22857305.362
  24168673.900    -6707954.91549  -5213241.92345  24168674.235    24168679.450
  24669637.589    -4728784.01549  -3427022.86545  24669637.415    24669645.492
  20392002.434   -26574829.97249 -20450507.87248  20392002.031    20392005.726
  20673627.168   -24495314.15049 -18332476.77048  20673626.936    20673631.185
  23806389.563    -7995172.25749  -6210457.61446  23806389.639    23806394.275
 04  5 19  2 34 30.0000000  0  7G16G13G 4G27G20G 1G25
  21526695.413   -20314303.87649 -15817326.60847  21526695.249    21526698.751
  22843041.527   -14928246.85149 -11613989.20546  22843041.811    22843045.825
  24166697.771    -6718339.21349  -5221333.58545  24166698.193    24166703.416
  24653696.441    -4812554.30349  -3492298.19945  24653696.212    24653704.295
  20397396.733   -26546482.88249 -20428419.24248  20397396.326    20397400.041
  20669265.536   -24518234.58949 -18350336.84348  20669265.295    20669269.555
  23823059.119    -7907573.54449  -6142198.89546  23823059.159    23823063.719
 04  5 19  2 35  0.0000000  0  7G16G13G 4G27G20G 1G25
  21520638.630   -20346132.29449 -15842127.94847  21520638.472    21520642.001
  22828798.075   -15003096.21449 -11672313.35246  22828798.382    22828802.390
  24164822.485    -6728193.34849  -5229012.13645  24164822.971    24164828.198
  24637782.031    -4896183.93349  -3557463.93445  24637781.899    24637790.019
  20402897.995   -26517573.55249 -20405892.50548  20402897.588    20402901.306
  20664944.772   -24540940.21649 -18368029.53548  20664944.537    20664948.782
  23839735.837    -7819936.79949  -6073910.54446  23839735.884    23839740.453
 04  5 19  2 35 30.0000000  0  7G16G13G 4G27G20G 1G25
  21514688.153   -20377402.06449 -15866493.97547  21514687.991    21514691.520
  22814571.219   -15077858.44749 -11730569.61046  22814571.541    22814575.549
  24163048.507    -6737516.63949  -5236277.03645  24163048.889    24163054.054
  24621894.806    -4979670.91749  -3622518.50845  24621894.588    24621902.717
  20408506.394   -26488101.29249 -20382927.12148  20408505.985    20408509.717
  20660665.215   -24563429.40349 -18385553.57448  20660664.979    20660669.234
  23856419.824    -7732262.04549  -6005592.58346  23856419.884    23856424.471
 04  5 19  2 36  0.0000000  0  7G16G13G 4G27G20G 1G25
  21508844.190   -20408112.22149 -15890423.94047  21508844.027    21508847.586
  22800360.981   -15152533.68549 -11788758.07646  22800361.299    22800365.273
  24161375.267    -6746309.43949  -5243128.57045  24161375.648    24161380.795
  24606034.778    -5063014.89149  -3687461.65245  24606034.608    24606042.661
  20414221.799   -26458066.64249 -20359523.51048  20414221.379    20414225.124
  20656426.922   -24585701.91749 -18402908.77548  20656426.683    20656430.948
  23873110.739    -7644551.03549  -5937246.35146  23873110.789    23873115.386
 04  5 19  2 36 30.0000000  0  7G16G13G 4G27G20G 1G25
  21503106.634   -20438263.05949 -15913918.06947  21503106.459    21503110.042
  22786167.062   -15227122.99049 -11846879.57846  22786167.384    22786171.342
  24159802.618    -6754573.76249  -5249568.29945  24159803.007    24159808.172
  24590201.693    -5146216.97149  -3752294.23445  24590201.448    24590209.641
  20420043.758   -26427471.95849 -20335683.51048  20420043.348    20420047.098
  20652229.594   -24607758.92249 -18420096.04848  20652229.359    20652233.621
  23889807.877    -7556807.00949  -5868874.41146  23889807.930    23889812.573
 04  5 19  2 37  0.0000000  0  7G16G13G 4G27G20G 1G25
  21497476.151   -20467851.22249 -15936973.74847  21497475.987    21497479.582
  22771990.145   -15301623.21949 -11904931.66546  22771990.459    22771994.368
  24158330.951    -6762307.46449  -5255594.55645  24158331.295    24158336.513
  24574396.152    -5229274.37649  -3817014.10945  24574395.930    24574404.225
  20425972.687   -26396315.36349 -20311405.65748  20425972.274    20425976.044
  20648073.874   -24629597.39649 -18437113.03948  20648073.626    20648077.881
  23906511.531    -7469028.73749  -5800475.77846  23906511.636    23906516.314
 04  5 19  2 37 30.0000000  0  7G16G13G 4G27G20G 1G25
  21491953.047   -20496875.23949 -15959589.84147  21491952.891    21491956.479
  22757830.310   -15376033.82649 -11962913.92246  22757830.612    22757834.492
  24156960.150    -6769511.02649  -5261207.71445  24156960.474    24156965.759
  24558618.454    -5312186.39749  -3881620.69645  24558618.343    24558626.429
  20432008.426   -26364597.37449 -20286690.35548  20432008.015    20432011.778
  20643959.828   -24651216.85349 -18453959.36948  20643959.584    20643963.844
  23923221.463    -7381217.64049  -5732051.57046  23923221.538    23923226.278
 04  5 19  2 38  0.0000000  0  7G16G13G 4G27G20G 1G25
  21486536.753   -20525337.88949 -15981768.50247  21486536.590    21486540.156
  22743686.850   -15450358.12549 -12020828.92946  22743687.133    22743690.982
  24155689.547    -6776188.47449  -5266410.91245  24155689.804    24155695.083
  24542867.739    -5394956.33449  -3946116.56745  24542867.637    24542875.696
  20438150.125   -26332322.55149 -20261541.15648  20438149.713    20438153.493
  20639886.860   -24672620.55549 -18470637.57648  20639886.614    20639890.878
  23939936.566    -7293379.06049  -5663605.95146  23939936.637    23939941.352
 04  5 19  2 38 30.0000000  0  7G16G13G 4G27G20G 1G25
  21481228.594   -20553232.35749 -16003504.43447  21481228.415    21481231.971
  22729560.950   -15524590.24049 -12078672.09946  22729561.232    22729565.027
  24154519.848    -6782334.68249  -5271200.15745  24154520.174    24154525.466
  24527145.296    -5477577.94849  -4010496.87345  24527145.241    24527153.155
  20444398.727   -26299485.90349 -20235954.17748  20444398.318    20444402.104
  20635856.099   -24693802.33449 -18487142.85748  20635855.864    20635860.107
  23956657.772    -7205508.66349  -5595135.53746  23956657.811    23956662.510
 04  5 19  2 39  0.0000000  0  7G16G13G 4G27G20G 1G25
  21476027.947   -20580561.85249 -16024800.12447  21476027.765    21476031.319
  22715451.875   -15598733.90349 -12136446.34246  22715452.160    22715455.900
  24153450.426    -6787954.40649  -5275579.15845  24153450.754    24153456.063
  24511450.299    -5560055.13949  -4074764.64445  24511450.177    24511458.095
  20450753.321   -26266092.26649 -20209933.17748  20450752.898    20450756.715
  20631866.851   -24714766.06649 -18503478.22748  20631866.606    20631870.843
  23973383.936    -7117612.19649  -5526644.81945  23973383.982    23973388.697
 04  5 19  2 39 30.0000000  0  7G16G13G 4G27G20G 1G25
  21470935.709   -20607321.66249 -16045651.90747  21470935.541    21470939.059
  22701360.462   -15672784.49749 -12194148.07446  22701360.725    22701364.475
  24152481.889    -6793044.34849  -5279545.35345  24152482.205    24152487.449
  24495783.499    -5642383.74049  -4138916.64545  24495783.412    24495791.256
  20457214.470   -26232138.68749 -20183475.86348  20457214.055    20457217.884
  20627919.881   -24735507.42649 -18519640.32548  20627919.638    20627923.892
  23990115.512    -7029687.42449  -5458132.03045  23990115.538    23990120.215
 04  5 19  2 40  0.0000000  0  7G16G13G 4G27G20G 1G25
  21465951.475   -20633513.90449 -16066061.42447  21465951.291    21465954.832
  22687286.176   -15746745.04949 -12251779.63146  22687286.498    22687290.189
  24151613.393    -6797608.23749  -5283101.61645  24151613.726    24151618.992
  24480144.524    -5724566.50249  -4202955.00945  24480144.429    24480152.256
  20463781.420   -26197629.24649 -20156585.40148  20463781.009    20463784.833
  20624014.723   -24756029.07849 -18535631.21148  20624014.472    20624018.741
  24006851.609    -6941739.01949  -5389600.83545  24006851.602    24006856.279
 04  5 19  2 40 30.0000000  0  7G16G13G 4G27G20G 1G25
  21461076.064   -20659134.22949 -16086025.29147  21461075.896    21461079.424
  22673229.827   -15820611.63049 -12309337.97046  22673230.140    22673233.820
  24150845.569    -6801643.27949  -5286245.81645  24150845.927    24150851.162
  24464533.999    -5806599.65449  -4266876.80445  24464533.886    24464541.628
  20470454.594   -26162561.52449 -20129259.92248  20470454.170    20470457.997
  20620152.068   -24776327.36749 -18551448.05148  20620151.816    20620156.084
  24023592.513    -6853764.98849  -5321049.66745  24023592.533    24023597.170
 04  5 19  2 41  0.0000000  0  7G16G13G 4G27G20G 1G25
  21456309.406   -20684183.08949 -16105543.85947  21456309.246    21456312.759
  22659191.112   -15894385.50349 -12366824.07546  22659191.418    22659195.069
  24150177.978    -6805151.63249  -5288979.59745  24150178.350    24150183.510
  24448951.769    -5888484.23949  -4330682.83945  24448951.713    24448959.291
  20477233.570   -26126937.74049 -20101501.14548  20477233.156    20477236.983
  20616331.764   -24796403.24549 -18567091.58648  20616331.511    20616335.764
  24040337.771    -6765768.09049  -5252480.68345  24040337.800    24040342.430
 04  5 19  2 41 30.0000000  0  7G16G13G 4G27G20G 1G25
  21451651.627   -20708659.93949 -16124616.70547  21451651.451    21451654.947
  22645170.181   -15968065.92849 -12424237.36146  22645170.464    22645174.113
  24149610.468    -6808134.00849  -5291303.53145  24149610.793    24149616.024
  24433397.859    -5970219.99849  -4394372.90745  24433397.771    24433405.339
  20484118.180   -26090758.89249 -20073309.84748  20484117.770    20484121.614
  20612553.811   -24816256.43849 -18582561.59648  20612553.566    20612557.833
  24057087.060    -6677749.92249  -5183895.12045  24057087.015    24057091.739
 04  5 19  2 42  0.0000000  0  7G16G13G 4G27G20G 1G25
  21447103.164   -20732562.07449 -16143241.72947  21447103.000    21447106.488
  22631167.351   -16041650.86149 -12481576.24246  22631167.689    22631171.289
  24149143.188    -6810589.38649  -5293216.81545  24149143.496    24149148.741
  24417872.655    -6051804.75849  -4457945.31345  24417872.629    24417880.093
  20491108.594   -26054024.13549 -20044685.37948  20491108.181    20491112.030
  20608818.667   -24835884.64049 -18597856.29348  20608818.422    20608822.687
  24073840.438    -6589710.28049  -5115292.83345  24073840.457    24073845.150
 04  5 19  2 42 30.0000000  0  7G16G13G 4G27G20G 1G25
  21442663.829   -20755890.78749 -16161419.91947  21442663.653    21442667.163
  22617182.472   -16115141.86849 -12538841.92746  22617182.790    22617186.417
  24148775.704    -6812520.73149  -5294721.76345  24148775.900    24148781.188
  24402375.875    -6133240.48349  -4521401.59745  24402375.847    24402383.196
  20498204.196   -26016736.57749 -20015630.15748  20498203.779    20498207.629
  20605125.996   -24855289.59149 -18612977.01948  20605125.758    20605130.022
  24090597.275    -6501652.57749  -5046676.46445  24090597.316    24090601.978
 04  5 19  2 43  0.0000000  0  7G16G13G 4G27G20G 1G25
  21438334.440   -20778641.80049 -16179147.96447  21438334.270    21438337.773
  22603216.245   -16188534.96349 -12596031.32846  22603216.549    22603220.166
  24148508.461    -6813924.91549  -5295815.93945  24148508.675    24148514.022
  24386908.228    -6214523.10049  -4584738.58145  24386908.145    24386915.465
  20505405.472   -25978893.67049 -19986142.19748  20505405.073    20505408.911
  20601476.582   -24874467.34649 -18627920.71248  20601476.345    20601480.623
  24107357.964    -6413574.72049  -4978044.39445  24107357.964    24107362.673
 04  5 19  2 43 30.0000000  0  7G16G13G 4G27G20G 1G25
  21434114.684   -20800816.75649 -16196427.13047  21434114.512    21434117.990
  22589268.190   -16261832.36949 -12653146.16446  22589268.495    22589272.116
  24148340.945    -6814805.36949  -5296502.01645  24148341.182    24148346.561
  24371469.287    -6295654.80349  -4647957.99145  24371469.194    24371476.515
  20512711.785   -25940498.81949 -19956224.14248  20512711.375    20512715.198
  20597869.949   -24893420.10049 -18642689.07948  20597869.722    20597874.020
  24124121.634    -6325480.82649  -4909399.83745  24124121.677    24124126.345
 04  5 19  2 44  0.0000000  0  7G16G13G 4G27G20G 1G25
  21430004.806   -20822414.00049 -16213256.13047  21430004.647    21430008.156
  22575338.587   -16335032.60849 -12710185.27446  22575338.888    22575342.528
  24148273.031    -6815162.11849  -5296780.00845  24148273.229    24148278.667
  24356059.381    -6376634.51349  -4711058.94445  24356059.151    24356066.336
  20520123.106   -25901552.16149 -19925876.11148  20520122.705    20520126.530
  20594306.462   -24912146.50149 -18657281.07048  20594306.238    20594310.529
  24140888.293    -6237371.26249  -4840743.05845  24140888.350    24140893.078
 04  5 19  2 44 30.0000000  0  7G16G13G 4G27G20G 1G25
  21426005.110   -20843432.45649 -16229634.12947  21426004.945    21426008.457
  22561427.645   -16408134.74549 -12767147.94446  22561427.949    22561431.628
  24148304.751    -6814995.41249  -5296650.10745  24148304.926    24148310.326
  24340678.470    -6457461.42649  -4774040.84945  24340678.289    24340685.305
  20527639.243   -25862054.55749 -19895098.77448  20527638.841    20527642.678
  20590786.169   -24930645.63249 -18671695.96648  20590785.946    20590790.229
  24157657.681    -6149247.10849  -4772074.92045  24157657.741    24157662.593
 04  5 19  2 45  0.0000000  0  7G16G13G 4G27G20G 1G25
  21422115.710   -20863871.29049 -16245560.47847  21422115.538    21422119.055
  22547535.532   -16481138.04349 -12824033.60446  22547535.846    22547539.570
  24148435.957    -6814305.89249  -5296112.81745  24148436.215    24148441.564
  24325326.694    -6538135.12049  -4836903.35545  24325326.617    24325333.440
  20535260.128   -25822006.68649 -19863892.66148  20535259.715    20535263.552
  20587309.268   -24948916.77449 -18685933.21148  20587309.033    20587313.323
  24174429.643    -6061109.83049  -4703396.55145  24174429.731    24174434.635
 04  5 19  2 45 30.0000000  0  7G16G13G 4G27G20G 1G25
  21418336.850   -20883729.32149 -16261034.24647  21418336.694    21418340.182
  22533662.434   -16554041.62749 -12880841.55846  22533662.740    22533666.469
  24148666.579    -6813093.84549  -5295168.36845  24148666.846    24148672.226
  24310004.275    -6618654.62949  -4899645.73045  24310004.224    24310010.933
  20542985.609   -25781409.18449 -19832258.25448  20542985.197    20542989.027
  20583875.937   -24966959.11049 -18699992.16348  20583875.700    20583880.015
  24191204.007    -5972960.08949  -4634708.47945  24191204.068    24191208.995
 04  5 19  2 46  0.0000000  0  7G16G13G 4G27G20G 1G25
  21414668.666   -20903005.74749 -16276054.82047  21414668.503    21414671.991
  22519808.440   -16626844.70749 -12937571.19646  22519808.761    22519812.467
  24148996.455    -6811359.98849  -5293817.31545  24148996.748    24149002.157
  24294711.193    -6699019.44349  -4962267.55245  24294711.132    24294717.919
  20550815.476   -25740262.92649 -19800196.25548  20550815.067    20550818.885
  20580486.248   -24984771.92249 -18713872.26848  20580486.016    20580490.326
  24207980.444    -5884799.26349  -4566011.76045  24207980.474    24207985.457
 04  5 19  2 46 30.0000000  0  7G16G13G 4G27G20G 1G25
  21411111.376   -20921699.29049 -16290621.20447  21411111.216    21411114.689
  22505973.728   -16699546.58849 -12994221.98246  22505974.078    22505977.769
  24149425.595    -6809104.87949  -5292060.09745  24149425.900    24149431.312
  24279447.659    -6779229.15349  -5024768.50845  24279447.608    24279454.350
  20558749.663   -25698568.51949 -19767707.13248  20558749.264    20558753.088
  20577140.423   -25002354.33849 -18727572.84648  20577140.192    20577144.481
  24224758.868    -5796628.00649  -4497306.91845  24224758.949    24224763.974
 04  5 19  2 47  0.0000000  0  7G16G13G 4G27G20G 1G25
  21407664.896   -20939810.53849 -16304733.84047  21407664.732    21407668.198
  22492158.230   -16772147.60949 -13050794.17246  22492158.543    22492162.274
  24149953.579    -6806330.41449  -5289898.18145  24149953.885    24149959.221
  24264213.567    -6859284.24049  -5087148.96245  24264213.445    24264220.203
  20566787.736   -25656328.27949 -19734792.68048  20566787.329    20566791.159
  20573838.350   -25019706.79549 -18741094.23248  20573838.108    20573842.378
  24241538.784    -5708448.75349  -4428595.84845  24241538.922    24241543.920
 04  5 19  2 47 30.0000000  0  7G16G13G 4G27G20G 1G25
  21404329.888   -20957336.07949 -16318390.09047  21404329.741    21404333.189
  22478362.524   -16844644.47849 -13107285.20146  22478362.794    22478366.524
  24150580.763    -6803034.76749  -5287330.15945  24150581.090    24150586.406
  24249009.403    -6939181.64849  -5149406.57445  24249009.250    24249016.094
  20574929.978   -25613540.60349 -19701451.65848  20574929.573    20574933.396
  20570580.633   -25036826.12949 -18754433.96748  20570580.404    20570584.674
  24258320.574    -5620259.98249  -4359877.36745  24258320.634    24258325.789
 04  5 19  2 48  0.0000000  0  7G16G13G 4G27G20G 1G25
  21401105.804   -20974278.59249 -16331592.02647  21401105.623    21401109.105
  22464586.088   -16917039.80249 -13163697.10446  22464586.400    22464590.127
  24151306.347    -6799222.10549  -5284359.26445  24151306.668    24151311.953
  24233834.830    -7018924.31549  -5211543.59245  24233834.696    24233841.542
  20583175.552   -25570209.92649 -19667687.51048  20583175.154    20583178.986
  20567366.771   -25053715.05349 -18767594.16548  20567366.539    20567370.816
  24275103.320    -5532066.60449  -4291155.29245  24275103.286    24275108.415
 04  5 19  2 48 30.0000000  0  7G16G13G 4G27G20G 1G25
  21397993.452   -20990633.99449 -16344336.47547  21397993.278    21397996.747
  22450829.805   -16989329.42649 -13220026.65646  22450830.094    22450833.814
  24152130.844    -6794889.85049  -5280983.49645  24152131.128    24152136.315
  24218690.394    -7098508.34449  -5273557.00845  24218690.250    24218697.085
  20591524.902   -25526333.85149 -19633498.37648  20591524.504    20591528.336
  20564197.552   -25070369.42449 -18780571.58848  20564197.313    20564201.610
  24291887.428    -5443866.14749  -4222427.69345  24291887.346    24291892.466
 04  5 19  2 49  0.0000000  0  7G16G13G 4G27G20G 1G25
  21394992.359   -21006404.95249 -16356625.51347  21394992.185    21394995.655
  22437093.093   -17061516.33549 -13276276.16346  22437093.404    22437097.048
  24153053.335    -6790042.27049  -5277206.17245  24153053.579    24153058.720
  24203575.551    -7177936.79249  -5335449.19245  24203575.414    24203582.250
  20599977.201   -25481916.91749 -19598887.79848  20599976.793    20599980.631
  20561072.394   -25086792.12449 -18793368.49048  20561072.156    20561076.447
  24308671.973    -5355663.42449  -4153698.31745  24308671.847    24308676.944
 04  5 19  2 49 30.0000000  0  7G16G13G 4G27G20G 1G25
  21392103.228   -21021587.33849 -16368455.92647  21392103.055    21392106.529
  22423376.816   -17133595.76349 -13332441.91946  22423377.109    22423380.741
  24154074.442    -6784676.29949  -5273024.90445  24154074.762    24154079.826
  24188491.085    -7257205.62249  -5397217.00045  24188490.946    24188497.884
  20608532.891   -25436956.42949 -19563853.67148  20608532.480    20608536.328
  20557992.164   -25102978.78049 -18805981.46848  20557991.928    20557996.218
  24325457.350    -5267455.97949  -4084965.28045  24325457.286    24325462.344
 04  5 19  2 50  0.0000000  0  7G16G13G 4G27G20G 1G25
  21389326.072   -21036181.34349 -16379827.85547  21389325.908    21389329.355
  22409680.928   -17205568.08749 -13388524.20846  22409681.240    22409684.836
  24155193.843    -6778794.05749  -5268441.35445  24155194.167    24155199.178
  24173436.893    -7336315.33549  -5458860.81345  24173436.758    24173443.646
  20617191.678   -25391454.31649 -19528397.49448  20617191.255    20617195.107
  20554956.827   -25118929.65849 -18818410.71648  20554956.580    20554960.874
  24342243.186    -5179245.63749  -4016229.97345  24342243.156    24342248.255
 04  5 19  2 50 30.0000000  0  7G16G13G 4G27G20G 1G25
  21386660.803   -21050187.50349 -16390741.72947  21386660.613    21386664.021
  22396005.353   -17277433.64249 -13444523.31046  22396005.658    22396009.236
  24156411.126    -6772397.37349  -5263456.93945  24156411.384    24156416.383
  24158412.875    -7415266.62849  -5520381.18045  24158412.769    24158419.650
  20625953.073   -25345412.94849 -19492521.11648  20625952.670    20625956.531
  20551966.221   -25134645.34749 -18830656.70348  20551965.980    20551970.275
  24359029.158    -5091034.56349  -3947494.10345  24359029.215    24359034.289
 04  5 19  2 51  0.0000000  0  7G16G13G 4G27G20G 1G25
  21384107.471   -21063605.14749 -16401197.01747  21384107.301    21384110.731
  22382350.190   -17349191.76549 -13500438.68746  22382350.501    22382354.071
  24157725.990    -6765487.31349  -5258072.49245  24157726.294    24157731.371
  24143419.032    -7494058.96849  -5581777.69045  24143418.989    24143425.860
  20634816.868   -25298833.52149 -19456225.47748  20634816.454    20634820.336
  20549020.499   -25150125.20649 -18842718.92948  20549020.259    20549024.577
  24375815.107    -5002824.13949  -3878758.73045  24375815.105    24375820.199
 04  5 19  2 51 30.0000000  0  7G16G13G 4G27G20G 1G25
  21381666.418   -21076432.83049 -16411192.59647  21381666.261    21381669.676
  22368715.808   -17420840.60349 -13556268.91046  22368716.130    22368719.714
  24159138.604    -6758063.60449  -5252287.80945  24159138.976    24159144.046
  24128455.746    -7572691.00749  -5643049.28845  24128455.648    24128462.570
  20643782.997   -25251716.07349 -19419510.60148  20643782.587    20643786.490
  20546119.958   -25165367.51549 -18854596.04948  20546119.737    20546124.035
  24392600.884    -4914614.27949  -3810023.80445  24392600.854    24392605.947
 04  5 19  2 52  0.0000000  0  7G16G13G 4G27G20G 1G25
  21379337.920   -21088669.27549 -16420727.47047  21379337.752    21379341.145
  22355102.559   -17492378.65249 -13612012.80946  22355102.874    22355106.463
  24160649.107    -6750126.59549  -5246103.14945  24160649.361    24160654.425
  24113523.248    -7651161.63249  -5704195.12245  24113523.096    24113530.043
  20652851.420   -25204061.17149 -19382376.93448  20652851.009    20652854.938
  20543264.926   -25180370.82849 -18866286.94348  20543264.684    20543269.002
  24409386.443    -4826405.54649  -3741289.76245  24409386.383    24409391.495
 04  5 19  2 52 30.0000000  0  7G16G13G 4G27G20G 1G25
  21377121.681   -21100315.57649 -16429802.49147  21377121.517    21377124.911
  22341510.149   -17563806.93849 -13667671.16946  22341510.464    22341514.039
  24162256.549    -6741678.97149  -5239520.60045  24162256.838    24162261.958
  24098621.189    -7729472.06749  -5765216.11945  24098620.992    24098627.993
  20662021.613   -25155871.63249 -19344826.66648  20662021.180    20662025.131
  20540455.188   -25195136.02849 -18877792.29348  20540454.949    20540459.279
  24426171.209    -4738200.71249  -3672558.74445  24426171.284    24426176.326
 04  5 19  2 53  0.0000000  0  7G16G13G 4G27G20G 1G25
  21375017.874   -21111371.01449 -16438417.10247  21375017.723    21375021.104
  22327938.913   -17635124.14049 -13723242.98346  22327939.209    22327942.811
  24163960.948    -6732721.26849  -5232540.58945  24163961.358    24163966.558
  24083749.799    -7807621.59649  -5826111.74645  24083749.587    24083756.496
  20671293.358   -25107148.34949 -19306860.48948  20671292.952    20671296.889
  20537690.985   -25209662.02049 -18889111.24248  20537690.753    20537695.070
  24442955.161    -4650000.37349  -3603831.23445  24442955.174    24442960.323
 04  5 19  2 53 30.0000000  0  7G16G13G 4G27G20G 1G25
  21373026.823   -21121833.95249 -16446570.02847  21373026.672    21373030.036
  22314389.100   -17706328.63749 -13778726.96846  22314389.409    22314393.026
  24165762.631    -6723253.61449  -5225163.22345  24165762.990    24165768.265
  24068909.328    -7885608.73549  -5886880.85145  24068909.151    24068915.927
  20680666.618   -25057891.54149 -19268478.58448  20680666.213    20680670.170
  20534972.606   -25223947.20149 -18900242.54848  20534972.374    20534976.677
  24459738.260    -4561804.88849  -3535107.51145  24459738.336    24459743.342
 04  5 19  2 54  0.0000000  0  7G16G13G 4G27G20G 1G25
  21371148.654   -21131703.75549 -16454260.76847  21371148.492    21371151.849
  22300861.065   -17777418.79249 -13834121.86446  22300861.385    22300864.973
  24167661.312    -6713276.28349  -5217388.70445  24167661.606    24167666.911
  24054099.915    -7963432.61449  -5947522.73846  24054099.733    24054106.468
  20690141.342   -25008101.76849 -19229681.37548  20690140.933    20690144.881
  20532300.255   -25237990.43849 -18911185.32748  20532300.024    20532304.321
  24476520.532    -4473614.54449  -3466387.79645  24476520.438    24476525.425
 04  5 19  2 54 30.0000000  0  7G16G13G 4G27G20G 1G25
  21369382.963   -21140982.60049 -16461491.02747  21369382.794    21369386.169
  22287354.349   -17848396.95949 -13889429.49946  22287354.626    22287358.236
  24169656.091    -6702793.53449  -5209220.34845  24169656.385    24169661.730
  24039321.009    -8041095.90549  -6008039.49946  24039320.805    24039327.564
  20699716.578   -24957783.52749 -19190472.37748  20699716.175    20699720.115
  20529673.539   -25251793.96949 -18921941.31948  20529673.293    20529677.586
  24493300.818    -4385433.39949  -3397675.24745  24493300.781    24493305.764
 04  5 19  2 55  0.0000000  0  7G16G13G 4G27G20G 1G25
  21367730.292   -21149667.16249 -16468258.20247  21367730.128    21367733.542
  22273869.636   -17919259.35549 -13944646.92246  22273869.951    22273873.539
  24171747.467    -6691803.43249  -5200656.65945  24171747.728    24171753.101
  24024573.256    -8118595.19349  -6068428.44546  24024573.064    24024579.846
  20709392.746   -24906934.93649 -19150850.11848  20709392.346    20709396.278
  20527093.146   -25265354.11049 -18932507.65448  20527092.899    20527097.175
  24510079.699    -4297259.36049  -3328968.23445  24510079.725    24510084.718
 04  5 19  2 55 30.0000000  0  7G16G13G 4G27G20G 1G25
  21366190.645   -21157757.86349 -16474562.63147  21366190.504    21366193.897
  22260406.999   -17990005.98349 -13999774.13946  22260407.281    22260410.881
  24173935.000    -6680307.81749  -5191699.05245  24173935.333    24173940.707
  24009856.702    -8195930.81549  -6128689.89346  24009856.542    24009863.271
  20719169.451   -24855558.13149 -19110816.27648  20719169.048    20719172.961
  20524559.041   -25278670.83349 -18942884.32148  20524558.804    20524563.083
  24526856.891    -4209094.47149  -3260268.33745  24526856.970    24526861.975
 04  5 19  2 56  0.0000000  0  7G16G13G 4G27G20G 1G25
  21364763.995   -21165254.91649 -16480404.47947  21364763.842    21364767.257
  22246966.457   -18060636.36849 -14054810.77246  22246966.745    22246970.274
  24176218.555    -6668307.85149  -5182348.45045  24176218.902    24176224.194
  23995171.464    -8273102.61749  -6188823.67446  23995171.249    23995177.882
  20729046.375   -24803654.78949 -19070372.13448  20729045.970    20729049.876
  20522071.361   -25291743.56749 -18953070.86748  20522071.116    20522075.406
  24543632.125    -4120940.23249  -3191576.74545  24543632.267    24543637.158
 04  5 19  2 56 30.0000000  0  7G16G13G 4G27G20G 1G25
  21363450.348   -21172158.09449 -16485783.56347  21363450.191    21363453.600
  22233548.199   -18131149.65649 -14109756.16246  22233548.475    22233551.991
  24178597.825    -6655805.07849  -5172606.05945  24178598.164    24178603.448
  23980517.272    -8350110.55549  -6248829.77646  23980517.063    23980523.646
  20739023.215   -24751226.31049 -19029518.79248  20739022.793    20739026.713
  20519630.207   -25304571.93649 -18963066.99648  20519629.976    20519634.251
  24560405.221    -4032797.57149  -3122894.17945  24560405.215    24560410.231
 04  5 19  2 57  0.0000000  0  7G16G13G 4G27G20G 1G25
  21362249.931   -21178466.25849 -16490699.00647  21362249.772    21362253.183
  22220152.502   -18201544.41749 -14164609.19346  22220152.798    22220156.293
  24181072.687    -6642799.99949  -5162472.24945  24181073.011    24181078.258
  23965894.362    -8426953.65749  -6308707.44445  23965894.207    23965900.739
  20749099.812   -24698273.52749 -18988256.89948  20749099.377    20749103.307
  20517235.774   -25317154.73749 -18972871.77248  20517235.533    20517239.802
  24577176.072    -3944666.74449  -3054220.83845  24577176.035    24577181.052
 04  5 19  2 57 30.0000000  0  7G16G13G 4G27G20G 1G25
  21361163.005   -21184178.24549 -16495149.89547  21361162.835    21361166.233
  22206779.738   -18271818.64949 -14219368.31146  22206780.036    22206783.492
  24183643.065    -6629292.68349  -5151947.09045  24183643.412    24183648.555
  23951303.188    -8503630.49449  -6368455.55645  23951302.989    23951309.508
  20759276.139   -24644796.62749 -18946586.60848  20759275.712    20759279.648
  20514888.461   -25329489.97649 -18982483.64448  20514888.228    20514892.501
  24593944.528    -3856548.04849  -2985556.94745  24593944.606    24593949.452
 04  5 19  2 58  0.0000000  0  7G16G13G 4G27G20G 1G25
  21360189.129   -21189295.97549 -16499137.72447  21360188.949    21360192.341
  22193429.670   -18341973.50749 -14274034.40546  22193429.988    22193433.403
  24186308.426    -6615286.25149  -5141033.00145  24186308.757    24186313.993
  23936743.378    -8580142.69049  -6428075.37345  23936743.158    23936749.640
  20769551.522   -24590799.19549 -18904510.70248  20769551.099    20769555.026
  20512588.011   -25341578.85349 -18991903.53548  20512587.781    20512592.058
  24610710.039    -3768444.33949  -2916904.74945  24610710.150    24610715.005
 04  5 19  2 58 30.0000000  0  7G16G13G 4G27G20G 1G25
  21359328.668   -21193817.74249 -16502661.16647  21359328.485    21359331.868
  22180102.805   -18412006.74849 -14328605.73747  22180103.114    22180106.532
  24189068.599    -6600780.96649  -5129730.20045  24189068.956    24189074.277
  23922215.120    -8656488.48149  -6487565.53245  23922214.875    23922221.435
  20779925.904   -24536281.30549 -18862029.25248  20779925.487    20779929.416
  20510334.780   -25353419.50649 -19001130.00948  20510334.541    20510338.840
  24627472.833    -3680355.12349  -2848263.83045  24627472.965    24627477.826
 04  5 19  2 59  0.0000000  0  7G16G13G 4G27G20G 1G25
  21358581.535   -21197743.87549 -16505720.47647  21358581.352    21358584.732
  22166799.099   -18481918.24149 -14383082.20447  22166799.404    22166802.778
  24191923.544    -6585778.17449  -5118039.73045  24191923.820    24191929.180
  23907718.479    -8732668.12349  -6546926.22245  23907718.291    23907724.898
  20790399.035   -24481244.70449 -18819143.61148  20790398.607    20790402.546
  20508128.850   -25365011.61349 -19010162.80548  20508128.608    20508132.939
  24644232.659    -3592281.89449  -2779635.36245  24644232.792    24644237.687
 04  5 19  2 59 30.0000000  0  7G16G13G 4G27G20G 1G25
  21357947.860   -21201073.64549 -16508315.09247  21357947.690    21357951.071
  22153518.793   -18551706.62449 -14437462.73647  22153519.078    22153522.459
  24194872.979    -6570278.94549  -5105962.43545  24194873.278    24194878.593
  23893253.656    -8808680.81149  -6606156.84045  23893253.535    23893260.030
  20800970.676   -24425690.49349 -18775854.64448  20800970.248    20800974.191
  20505970.481   -25376353.84849 -19019000.90148  20505970.242    20505974.579
  24660989.305    -3504224.99649  -2711019.63345  24660989.492    24660994.427
 04  5 19  3  0  0.0000000  0  7G16G13G 4G27G20G 1G25
  21357427.802   -21203806.61649 -16510444.66047  21357427.611    21357431.019
  22140262.240   -18621370.31149 -14491746.10947  22140262.535    22140265.921
  24197916.598    -6554283.99149  -5093498.85545  24197917.020    24197922.363
  23878820.730    -8884526.03349  -6665256.95145  23878820.666    23878827.116
  20811640.542   -24369620.01449 -18732163.38548  20811640.121    20811644.072
  20503859.806   -25387445.38449 -19027643.65248  20503859.573    20503863.914
  24677742.587    -3416185.42549  -2642417.40545  24677742.894    24677747.799
 04  5 19  3  0 30.0000000  0  7G16G13G 4G27G20G 1G25
  21357020.886   -21205944.72249 -16512110.70547  21357020.712    21357024.120
  22127029.137   -18690910.51749 -14545933.26147  22127029.426    22127032.813
  24201054.093    -6537796.54049  -5080651.52645  24201054.468    24201059.802
  23864419.490    -8960205.01449  -6724227.52145  23864419.347    23864425.838
  20822408.042   -24313036.52449 -18688072.38048  20822407.617    20822411.569
  20501796.658   -25398287.26449 -19036091.86248  20501796.432    20501800.766
  24694492.145    -3328165.98949  -2573830.86445  24694492.339    24694497.358
 04  5 19  3  1  0.0000000  0  7G16G13G 4G27G20G 1G25
  21356727.592   -21207485.90349 -16513311.61147  21356727.415    21356730.822
  22113820.095   -18760324.61249 -14600022.14647  22113820.391    22113823.793
  24204285.253    -6520816.23149  -5067420.13345  24204285.702    24204291.074
  23850050.177    -9035715.90449  -6783067.12845  23850050.064    23850056.528
  20833273.232   -24255939.67849 -18643581.35148  20833272.815    20833276.771
  20499781.505   -25408876.90749 -19044343.53048  20499781.277    20499785.618
  24711238.122    -3240165.43149  -2505259.02845  24711238.346    24711243.249
 04  5 19  3  1 30.0000000  0  7G16G13G 4G27G20G 1G25
  21356547.801   -21208430.69749 -16514047.79947  21356547.620    21356551.020
  22100635.097   -18829611.93449 -14654012.23647  22100635.389    22100638.826
  24207610.097    -6503344.73549  -5053805.99845  24207610.469    24207615.894
  23835712.865    -9111058.75449  -6841775.79145  23835712.710    23835719.099
  20844235.652   -24198331.71649 -18598692.04648  20844235.226    20844239.193
  20497814.398   -25419214.16949 -19052398.53048  20497814.159    20497818.503
  24727980.288    -3152185.61949  -2436703.36745  24727980.445    24727985.336
 04  5 19  3  2  0.0000000  0  7G16G13G 4G27G20G 1G25
  21356481.433   -21208779.37649 -16514319.48547  21356481.236    21356484.649
  22087474.316   -18898772.01149 -14707903.17847  22087474.600    22087478.092
  24211028.019    -6485383.85949  -5039810.54245  24211028.324    24211033.716
  23821407.541    -9186233.53749  -6900353.48645  23821407.373    23821413.755
  20855295.036   -24140214.31249 -18553405.78148  20855294.630    20855298.581
  20495895.415   -25429298.44149 -19060256.40348  20495895.177    20495899.524
  24744718.300    -3064227.65449  -2368164.70345  24744718.347    24744723.288
 04  5 19  3  2 30.0000000  0  7G16G13G 4G27G20G 1G25
  21356528.448   -21208532.27449 -16514126.92547  21356528.273    21356531.675
  22074337.889   -18967804.11249 -14761694.40547  22074338.184    22074341.681
  24214538.521    -6466935.21949  -5025435.01345  24214538.914    24214544.357
  23807134.073    -9261240.43649  -6958800.36545  23807133.945    23807140.259
  20866450.995   -24081589.30449 -18507723.97448  20866450.587    20866454.562
  20494024.692   -25439129.26049 -19067916.77648  20494024.462    20494028.780
  24761451.769    -2976293.20749  -2299644.38045  24761451.794    24761456.791
 04  5 19  3  3  0.0000000  0  7G16G13G 4G27G20G 1G25
  21356689.414   -21207686.28249 -16513467.69847  21356689.232    21356692.644
  22061226.600   -19036704.21449 -14815382.77447  22061226.910    22061230.430
  24218142.439    -6447996.83249  -5010677.86245  24218142.849    24218148.237
  23792893.302    -9336075.87449  -7017113.63045  23792893.213    23792899.462
  20877703.874   -24022455.13849 -18461645.42248  20877703.456    20877707.446
  20492202.958   -25448702.57249 -19075376.49048  20492202.723    20492207.040
  24778181.275    -2888379.45249  -2231140.16345  24778181.252    24778186.213
 04  5 19  3  3 30.0000000  0  7G16G13G 4G27G20G 1G25
  21356963.626   -21206245.20049 -16512344.76547  21356963.452    21356966.884
  22048139.843   -19105475.42849 -14868970.71047  22048140.190    22048143.704
  24221838.457    -6428574.31649  -4995543.45245  24221838.800    24221844.294
  23778684.507    -9410743.57349  -7075296.19445  23778684.400    23778690.595
  20889052.536   -23962817.62049 -18415174.64748  20889052.120    20889056.116
  20490429.526   -25458021.93049 -19082638.31948  20490429.291    20490433.606
  24794905.865    -2800491.38649  -2162655.97045  24794905.844    24794910.763
 04  5 19  3  4  0.0000000  0  7G16G13G 4G27G20G 1G25
  21357351.661   -21204206.07549 -16510755.82347  21357351.493    21357354.921
  22035078.451   -19174113.54449 -14922454.93247  22035078.783    22035082.281
  24225626.926    -6408666.16949  -4980030.64445  24225627.277    24225632.701
  23764508.244    -9485240.10549  -7133345.37946  23764508.173    23764514.298
  20900497.293   -23902675.10449 -18368310.36948  20900496.887    20900500.879
  20488705.162   -25467083.41349 -19089699.21148  20488704.935    20488709.272
  24811625.900    -2712626.85249  -2094190.11145  24811625.859    24811630.839
 04  5 19  3  4 30.0000000  0  7G16G13G 4G27G20G 1G25
  21357853.022   -21201571.30849 -16508702.74647  21357852.846    21357856.267
  22022042.154   -19242619.82149 -14975836.41447  22022042.447    22022045.950
  24229507.192    -6388275.71249  -4964142.01245  24229507.531    24229512.906
  23750364.184    -9559567.46549  -7191262.74846  23750364.055    23750370.177
  20912037.423   -23842031.39249 -18321055.54948  20912036.998    20912041.006
  20487029.606   -25475888.37649 -19096560.22248  20487029.395    20487033.711
  24828340.894    -2624788.90549  -2025744.98145  24828340.847    24828345.935
 04  5 19  3  5  0.0000000  0  7G16G13G 4G27G20G 1G25
  21358467.898   -21198340.03649 -16506184.86547  21358467.740    21358471.135
  22009031.216   -19310992.56749 -15029113.85847  22009031.515    22009035.005
  24233479.012    -6367403.85749  -4947878.26445  24233479.302    24233484.782
  23736252.507    -9633724.70749  -7249047.55546  23736252.384    23736258.476
  20923672.740   -23780887.48049 -18273410.96247  20923672.323    20923676.330
  20485403.195   -25484435.28049 -19103220.14948  20485402.981    20485407.287
  24845050.755    -2536977.58249  -1957320.57345  24845050.789    24845055.796
 04  5 19  3  5 30.0000000  0  7G16G13G 4G27G20G 1G25
  21359196.235   -21194512.59349 -16503202.42847  21359196.076    21359199.453
  21996045.873   -19379230.69349 -15082286.39147  21996046.194    21996049.672
  24237542.242    -6346051.77649  -4931240.32645  24237542.468    24237547.948
  23722173.288    -9707711.07949  -7306699.19246  23722173.162    23722179.301
  20935402.938   -23719244.93549 -18225377.83047  20935402.512    20935406.520
  20483826.072   -25492723.16849 -19109678.24748  20483825.842    20483830.147
  24861755.480    -2449193.73549  -1888917.59645  24861755.415    24861760.680
 04  5 19  3  6  0.0000000  0  7G16G13G 4G27G20G 1G25
  21360038.050   -21190088.85849 -16499755.34947  21360037.874    21360041.258
  21983086.337   -19447333.41549 -15135353.42047  21983086.666    21983090.145
  24241696.449    -6324221.21249  -4914229.53145  24241696.683    24241702.164
  23708126.627    -9781526.56249  -7364217.69446  23708126.526    23708132.704
  20947227.749   -23657105.18949 -18176957.27047  20947227.316    20947231.374
  20482298.408   -25500751.30349 -19115933.94548  20482298.180    20482302.457
  24878454.805    -2361437.73949  -1820536.30145  24878454.834    24878460.234
 04  5 19  3  6 30.0000000  0  7G16G13G 4G27G20G 1G25
  21360993.282   -21185068.96049 -16495843.72947  21360993.112    21360996.504
  21970152.911   -19515298.84849 -15188313.47247  21970153.219    21970156.699
  24245941.416    -6301913.48849  -4896846.91545  24245941.654    24245947.204
  23694112.584    -9855170.84149  -7421602.78146  23694112.467    23694118.625
  20959146.836   -23594469.95849 -18128150.62247  20959146.415    20959150.468
  20480820.323   -25508518.65549 -19121986.43948  20480820.093    20480824.389
  24895148.694    -2273710.84149  -1752177.69645  24895148.607    24895154.133
 04  5 19  3  7  0.0000000  0  7G16G13G 4G27G20G 1G25
  21362061.922   -21179453.17149 -16491467.78347  21362061.743    21362065.135
  21957245.677   -19583126.64649 -15241166.27247  21957245.995    21957249.453
  24250276.967    -6279130.01949  -4879093.60045  24250277.163    24250282.697
  23680131.187    -9928643.48949  -7478854.12446  23680131.086    23680137.206
  20971159.851   -23531341.14049 -18078959.36247  20971159.438    20971163.502
  20479391.993   -25516024.55449 -19127835.20248  20479391.772    20479396.077
  24911836.854    -2186014.03049  -1683842.54345  24911836.864    24911842.259
 04  5 19  3  7 30.0000000  0  6G16G13G 4G27G20G 1
  21363243.854   -21173241.95449 -16486627.86047  21363243.684    21363247.075
  21944364.790   -19650816.02849 -15293911.21347  21944365.102    21944368.574
  24254702.659    -6255872.81849  -4860971.15245  24254702.948    24254708.459
  23666182.394   -10001944.64549  -7535971.82546  23666182.253    23666188.417
  20983266.451   -23467720.70549 -18029385.01347  20983266.027    20983270.095
  20478013.524   -25523268.50149 -19133479.83548  20478013.286    20478017.610
 04  5 19  3  8  0.0000000  0  6G16G13G 4G27G20G 1
  21364539.317   -21166434.03849 -16481322.98247  21364539.157    21364542.560
  21931510.759   -19718364.47349 -15346546.34547  21931511.081    21931514.513
  24259218.535    -6232141.79149  -4842479.46845  24259218.862    24259224.355
  23652266.515   -10075072.69049  -7592954.64246  23652266.427    23652272.583
  20995466.538   -23403608.84149 -17979427.74147  20995466.121    20995470.189
  20476685.300   -25530248.35549 -19138918.68848  20476685.056    20476689.391
 04  5 19  3  8 30.0000000  0  6G16G13G 4G27G20G 1
  21365947.768   -21159032.59849 -16475555.61647  21365947.592    21365951.000
  21918683.261   -19785773.54749 -15399072.86947  21918683.581    21918686.962
  24263823.758    -6207941.51049  -4823622.13545  24263824.074    24263829.579
  23638383.182   -10148029.94949  -7649804.37446  23638383.058    23638389.213
  21007759.295   -23339010.09149 -17929091.07747  21007758.891    21007762.926
  20475406.952   -25536965.94249 -19144153.17548  20475406.711    20475411.074
 04  5 19  3  9  0.0000000  0  6G16G13G 4G27G20G 1
  21367469.745   -21151034.55949 -16469323.37047  21367469.559    21367472.962
  21905883.048   -19853038.93449 -15451487.43347  21905883.353    21905886.715
  24268518.596    -6183270.07949  -4804397.67945  24268518.904    24268524.337
  23624532.994   -10220812.89649  -7706518.28246  23624532.836    23624539.044
  21020144.991   -23273922.94749 -17878373.84247  21020144.577    21020148.623
  20474179.331   -25543417.11549 -19149180.06348  20474179.081    20474183.479
 04  5 19  3  9 30.0000000  0  6G16G13G 4G27G20G 1
  21369104.528   -21142443.71849 -16462629.20147  21369104.357    21369107.747
  21893109.773   -19920162.87649 -15503791.77047  21893110.095    21893113.441
  24273302.117    -6158132.67649  -4784810.10945  24273302.452    24273307.817
  23610715.362   -10293424.54649  -7763098.71646  23610715.222    23610721.442
  21032622.604   -23208352.62149 -17827280.10447  21032622.179    21032626.248
  20473001.904   -25549604.51249 -19154001.41348  20473001.666    20473006.042
 04  5 19  3 10  0.0000000  0  6G16G13G 4G27G20G 1
  21370852.517   -21133257.83449 -16455471.36147  21370852.357    21370855.734
  21880364.035   -19987141.89049 -15555983.17747  21880364.359    21880367.718
  24278174.534    -6132528.30649  -4764858.69345  24278174.869    24278180.296
  23596930.809   -10365862.39249  -7819543.72246  23596930.685    23596936.879
  21045192.295   -23142298.52049 -17775809.40247  21045191.867    21045195.953
  20471875.285   -25555524.85949 -19158614.66848  20471875.046    20471879.424
 04  5 19  3 10 30.0000000  0  6G16G13G 4G27G20G 1
  21372713.650   -21123477.64549 -16447850.42847  21372713.488    21372716.854
  21867646.026   -20053975.54849 -15608061.32947  21867646.343    21867649.683
  24283135.412    -6106459.19149  -4744545.12845  24283135.715    24283141.126
  23583179.317   -10438126.59849  -7875853.41246  23583179.205    23583185.366
  21057853.637   -23075762.78949 -17723963.40447  21057853.202    21057857.315
  20470799.611   -25561177.63149 -19163019.43048  20470799.371    20470803.746
 04  5 19  3 11  0.0000000  0  6G16G13G 4G27G20G 1
  21374687.679   -21113103.98649 -16439767.04447  21374687.502    21374690.892
  21854955.765   -20120663.05449 -15660025.58547  21854956.079    21854959.464
  24288184.328    -6079927.27349  -4723870.94245  24288184.580    24288189.974
  23569460.893   -10510217.28749  -7932027.89746  23569460.742    23569466.875
  21070606.164   -23008747.86949 -17671744.00547  21070605.733    21070609.836
  20469774.905   -25566562.46949 -19167215.40648  20469774.680    20469779.018
 04  5 19  3 11 30.0000000  0  6G16G13G 4G27G20G 1
  21376774.479   -21102137.57649 -16431221.77847  21376774.317    21376777.692
  21842293.524   -20187203.30249 -15711875.09547  21842293.835    21842297.226
  24293320.899    -6052934.50949  -4702837.65045  24293321.134    24293326.525
  23555775.433   -10582134.52049  -7988067.22446  23555775.306    23555781.428
  21083449.582   -22941255.45849 -17619152.53747  21083449.162    21083453.268
  20468801.301   -25571678.85849 -19171202.20448  20468801.064    20468805.414
 04  5 19  3 12  0.0000000  0  6G16G13G 4G27G20G 1
  21378974.227   -21090577.84349 -16422214.19047  21378974.064    21378977.446
  21829659.767   -20253594.08649 -15763608.14547  21829660.081    21829663.486
  24298545.094    -6025481.56149  -4681445.79545  24298545.297    24298550.769
  23542123.222   -10653876.87149  -8043970.27946  23542123.108    23542129.299
  21096383.647   -22873286.56149 -17566189.78947  21096383.208    21096387.331
  20467879.136   -25576524.88549 -19174978.32948  20467878.892    20467883.239
 04  5 19  3 12 30.0000000  0  6G16G13G 4G27G20G 1
  21381286.555   -21078426.42749 -16412745.54147  21381286.384    21381289.768
  21817054.360   -20319835.98549 -15815225.18447  21817054.657    21817058.041
  24303856.130    -5997571.79649  -4659697.95645  24303856.391    24303861.753
  23528504.089   -10725445.61649  -8099738.06046  23528503.936    23528510.204
  21109407.773   -22804844.37449 -17512858.23447  21109407.351    21109411.486
  20467008.330   -25581101.13049 -19178544.23648  20467008.095    20467012.442
 04  5 19  3 13  0.0000000  0  6G16G13G 4G27G20G 1
  21383711.506   -21065683.17849 -16402815.72747  21383711.345    21383714.743
  21804477.605   -20385927.25949 -15866724.85647  21804477.894    21804481.242
  24309253.934    -5969205.75449  -4637594.58345  24309254.353    24309259.624
  23514918.130   -10796839.78949  -8155369.80946  23514918.021    23514924.238
  21122521.716   -22735930.21849 -17459158.91947  21122521.293    21122525.428
  20466189.135   -25585405.94249 -19181898.63448  20466188.882    20466193.242
 04  5 19  3 13 30.0000000  0  6G16G13G 4G27G20G 1
  21386248.870   -21052349.32749 -16392425.70747  21386248.708    21386252.085
  21791929.597   -20451867.30549 -15918106.68947  21791929.921    21791933.202
  24314738.212    -5940386.04449  -4615137.70945  24314738.607    24314743.864
  23501365.379   -10868059.81849  -8210865.86246  23501365.223    23501371.425
  21135724.982   -22666546.61849 -17405093.80047  21135724.562    21135728.680
  20465421.622   -25589439.23949 -19185041.45848  20465421.384    20465425.750
 04  5 19  3 14  0.0000000  0  6G16G13G 4G27G20G 1
  21388898.835   -21038423.54349 -16381574.43947  21388898.664    21388902.049
  21779410.996   -20517653.03149 -15969368.26947  21779411.307    21779414.567
  24320308.751    -5911112.56149  -4592327.25745  24320309.110    24320314.424
  23487846.122   -10939103.61149  -8266224.58746  23487845.953    23487852.151
  21149017.599   -22596693.58849 -17350662.89347  21149017.180    21149021.312
  20464706.279   -25593198.39949 -19187970.67348  20464706.039    20464710.395
 04  5 19  3 14 30.0000000  0  6G16G13G 4G27G20G 1
  21391660.961   -21023908.48149 -16370263.99047  21391660.791    21391664.181
  21766921.534   -20583285.39049 -16020510.34347  21766921.834    21766925.073
  24325964.877    -5881389.33149  -4569166.33245  24325965.374    24325970.503
  23474360.044   -11009973.05649  -8321447.45646  23474359.829    23474366.046
  21162398.740   -22526375.27049 -17295869.43647  21162398.326    21162402.457
  20464042.856   -25596684.68449 -19190687.24848  20464042.618    20464046.959
 04  5 19  3 15  0.0000000  0  6G16G13G 4G27G20G 1
  21394535.484   -21008802.81549 -16358493.33647  21394535.311    21394538.661
  21754461.869   -20648761.36249 -16071530.55847  21754462.179    21754465.396
  24331706.623    -5851215.97849  -4545654.68045  24331707.140    24331712.370
  23460907.545   -11080666.05649  -8376532.83546  23460907.332    23460913.524
  21175868.468   -22455591.54349 -17240713.32447  21175868.042    21175872.170
  20463431.908   -25599895.39549 -19193189.09248  20463431.681    20463435.984
 04  5 19  3 15 30.0000000  0  6G16G13G 4G27G20G 1
  21397521.794   -20993109.61449 -16346264.86447  21397521.614    21397524.962
  21742031.666   -20714082.49649 -16122430.12247  21742031.945    21742035.170
  24337533.248    -5820597.16949  -4521795.89945  24337533.705    24337538.994
  23447488.184   -11151185.14149  -8431482.71046  23447487.992    23447494.138
  21189425.863   -22384347.01949 -17185198.15447  21189425.446    21189429.560
  20462872.999   -25602832.39949 -19195477.65748  20462872.768    20462877.054
 04  5 19  3 16  0.0000000  0  6G16G13G 4G27G20G 1
  21400619.894   -20976828.82649 -16333578.52947  21400619.719    21400623.069
  21729631.255   -20779246.87349 -16173207.53747  21729631.549    21729634.796
  24343444.423    -5789534.14449  -4497590.99145  24343444.874    24343450.100
  23434102.090   -11221529.34849  -8486296.30646  23434101.859    23434108.008
  21203070.618   -22312643.35349 -17129325.19847  21203070.210    21203074.335
  20462366.487   -25605494.16049 -19197551.74848  20462366.249    20462370.543
 04  5 19  3 16 30.0000000  0  6G16G13G 4G27G20G 1
  21403830.128   -20959958.94749 -16320433.16447  21403829.957    21403833.298
  21717261.360   -20844251.01449 -16223860.08747  21717261.643    21717264.901
  24349440.270    -5758026.11249  -4473039.32045  24349440.702    24349445.995
  23420749.691   -11291696.27249  -8540971.76946  23420749.473    23420755.597
  21216802.876   -22240480.08049 -17073094.11447  21216802.463    21216806.597
  20461912.971   -25607877.38349 -19199408.79748  20461912.733    20461917.019
 04  5 19  3 17  0.0000000  0  6G16G13G 4G27G20G 1
  21407151.576   -20942504.62549 -16306832.39147  21407151.398    21407154.738
  21704921.424   -20909097.57349 -16274389.85247  21704921.715    21704924.993
  24355519.616    -5726079.18549  -4448145.64545  24355519.994    24355525.313
  23407430.320   -11361689.64149  -8595511.99546  23407430.144    23407436.193
  21230621.455   -22167863.08349 -17016509.48347  21230621.047    21230625.183
  20461511.878   -25609985.07649 -19201051.15048  20461511.640    20461515.943
 04  5 19  3 17 30.0000000  0  6G16G13G 4G27G20G 1
  21410584.889   -20924462.54349 -16292773.62347  21410584.701    21410588.065
  21692612.484   -20973781.39749 -16324792.81447  21692612.787    21692616.065
  24361682.928    -5693691.22649  -4422908.31845  24361683.167    24361688.587
  23394144.739   -11431505.37649  -8649913.79846  23394144.571    23394150.642
  21244526.718   -22094790.43349 -16959569.80147  21244526.300    21244530.470
  20461164.126   -25611812.49849 -19202475.10848  20461163.891    20461168.192
 04  5 19  3 18  0.0000000  0  6G16G13G 4G27G20G 1
  21414129.479   -20905835.57449 -16278259.09947  21414129.287    21414132.627
  21680334.278   -21038303.68349 -16375069.90147  21680334.567    21680337.873
  24367929.310    -5660866.17949  -4397330.39945  24367929.553    24367935.037
  23380892.695   -11501145.30549  -8704178.61546  23380892.545    23380898.548
  21258517.958   -22021266.25649 -16902278.27147  21258517.534    21258521.715
  20460869.498   -25613360.89849 -19203681.64948  20460869.255    20460873.549
 04  5 19  3 18 30.0000000  0  6G16G13G 4G27G20G 1
  21417785.373   -20886623.67849 -16263288.78647  21417785.186    21417788.524
  21668087.179   -21102662.43149 -16425219.56047  21668087.475    21668090.813
  24374258.644    -5627605.26949  -4371412.83845  24374258.981    24374264.418
  23367674.192   -11570608.72149  -8758305.89446  23367674.046    23367679.954
  21272594.792   -21947292.13849 -16844636.13347  21272594.369    21272598.546
  20460628.206   -25614628.88849 -19204669.69148  20460627.962    20460632.238
 04  5 19  3 19  0.0000000  0  6G16G13G 4G27G20G 1
  21421552.302   -20866828.24449 -16247863.76947  21421552.118    21421555.437
  21655871.300   -21166857.04149 -16475241.31447  21655871.622    21655874.995
  24380670.422    -5593911.10649  -4345157.68145  24380670.793    24380676.261
  23354489.244   -11639896.04349  -8812295.95946  23354489.104    23354494.922
  21286756.806   -21872870.55049 -16786645.31547  21286756.355    21286760.553
  20460440.302   -25615616.19349 -19205439.01948  20460440.062    20460444.342
 04  5 19  3 19 30.0000000  0  6G16G13G 4G27G20G 1
  21425430.433   -20846448.54849 -16231983.48747  21425430.253    21425433.557
  21643687.260   -21230884.66549 -16525132.96047  21643687.577    21643690.957
  24387164.601    -5559784.24249  -4318565.35545  24387165.046    24387170.396
  23341338.119   -11709005.51649  -8866147.44846  23341337.938    23341343.774
  21301003.773   -21798002.25549 -16728306.43647  21301003.342    21301007.549
  20460306.285   -25616320.42949 -19205987.77548  20460306.055    20460310.349
 04  5 19  3 20  0.0000000  0  6G16G13G 4G27G20G 1
  21429419.454   -20825486.10249 -16215649.11347  21429419.282    21429422.574
  21631535.096   -21294744.71849 -16574894.03047  21631535.400    21631538.776
  24393740.685    -5525227.11849  -4291637.76845  24393741.035    24393746.531
  23328220.690   -11777937.65849  -8919860.75346  23328220.509    23328226.372
  21315335.294   -21722689.76549 -16669621.43347  21315334.871    21315339.091
  20460226.182   -25616741.32849 -19206315.74748  20460225.960    20460230.240
 04  5 19  3 20 30.0000000  0  6G16G13G 4G27G20G 1
  21433518.580   -20803945.11449 -16198863.91747  21433518.394    21433521.692
  21619414.386   -21358439.39449 -16624526.22447  21619414.691    21619418.050
  24400397.562    -5490245.03349  -4264379.03645  24400397.837    24400403.419
  23315136.393   -11846695.70549  -8973438.39546  23315136.227    23315142.108
  21329750.292   -21646938.57749 -16610594.56347  21329749.871    21329754.118
  20460199.506   -25616881.59949 -19206425.04148  20460199.259    20460203.543
 04  5 19  3 21  0.0000000  0  6G16G13G 4G27G20G 1
  21437728.407   -20781822.36649 -16181625.40947  21437728.219    21437731.479
  21607326.201   -21421963.16149 -16674025.25147  21607326.499    21607329.874
  24407135.722    -5454835.99049  -4236787.61345  24407136.011    24407141.532
  23302086.065   -11915275.30849  -9026876.99546  23302085.922    23302091.854
  21344249.139   -21570746.86249 -16551224.43247  21344248.714    21344252.951
  20460227.179   -25616736.20249 -19206311.74348  20460226.940    20460231.196
 04  5 19  3 21 30.0000000  0  6G16G13G 4G27G20G 1
  21442048.822   -20759118.25149 -16163933.88447  21442048.639    21442051.920
  21595270.772   -21485314.70349 -16723390.07447  21595271.075    21595274.426
  24413954.884    -5419001.36049  -4208864.57245  24413955.220    24413960.698
  23289069.734   -11983675.96449  -9080176.15846  23289069.633    23289075.561
  21358831.531   -21494116.20849 -16491512.27647  21358831.089    21358835.324
  20460309.477   -25616303.80249 -19205974.81048  20460309.243    20460313.481
 04  5 19  3 22  0.0000000  0  6G16G13G 4G27G20G 1
  21446479.109   -20735836.80049 -16145792.48947  21446478.932    21446482.236
  21583247.795   -21548495.87849 -16772622.13847  21583248.078    21583251.429
  24420854.003    -5382746.65249  -4180614.19045  24420854.255    24420859.746
  23276086.942   -12051900.69349  -9133338.22146  23276086.821    23276092.764
  21373496.349   -21417052.11349 -16431462.36747  21373495.917    21373500.170
  20460445.917   -25615586.73749 -19205416.05348  20460445.658    20460449.903
 04  5 19  3 22 30.0000000  0  6G16G13G 4G27G20G 1
  21451019.421   -20711977.33749 -16127200.69747  21451019.238    21451022.526
  21571257.768   -21611503.60049 -16821719.04547  21571258.049    21571261.413
  24427833.010    -5346072.13149  -4152036.67645  24427833.232    24427838.683
  23263138.025   -12119947.57749  -9186361.71646  23263137.855    23263143.865
  21388243.636   -21339554.81849 -16371074.90847  21388243.207    21388247.469
  20460637.004   -25614582.53749 -19204633.55548  20460636.766    20460641.002
 04  5 19  3 23  0.0000000  0  6G16G13G 4G27G20G 1
  21455669.489   -20687541.14149 -16108159.50147  21455669.299    21455672.608
  21559300.912   -21674337.18849 -16870680.26947  21559301.206    21559304.548
  24434891.357    -5308980.22549  -4123133.93145  24434891.567    24434897.146
  23250222.842   -12187817.18849  -9239247.07046  23250222.666    23250228.654
  21403072.788   -21261627.16849 -16310352.10347  21403072.371    21403076.651
  20460882.791   -25613290.87649 -19203627.05748  20460882.556    20460886.811
 04  5 19  3 23 30.0000000  0  6G16G13G 4G27G20G 1
  21460429.154   -20662528.74249 -16088669.31647  21460428.964    21460432.300
  21547377.634   -21736994.48349 -16919504.12047  21547377.951    21547381.233
  24442028.870    -5271472.41949  -4093907.12145  24442029.145    24442034.717
  23237341.575   -12255508.65149  -9291993.61146  23237341.383    23237347.333
  21417983.575   -21183270.57249 -16249295.05347  21417983.149    21417987.445
  20461183.559   -25611710.22249 -19202395.37048  20461183.318    20461187.591
 04  5 19  3 24  0.0000000  0  6G16G13G 4G27G20G 1
  21465298.184   -20636941.78649 -16068731.42147  21465297.994    21465301.330
  21535487.945   -21799475.20249 -16968190.37547  21535488.262    21535491.522
  24449245.045    -5233551.56349  -4064358.44145  24449245.260    24449250.927
  23224494.107   -12323022.63249  -9344601.84546  23224493.897    23224499.763
  21432975.401   -21104488.13749 -16187906.17847  21432974.980    21432979.283
  20461539.352   -25609840.54749 -19200938.47348  20461539.101    20461543.393
 04  5 19  3 24 30.0000000  0  6G16G13G 4G27G20G 1
  21470276.371   -20610781.24749 -16048346.58147  21470276.177    21470279.524
  21523632.159   -21861777.89249 -17016737.90847  21523632.459    21523635.720
  24456539.433    -5195219.66849  -4034489.46845  24456539.640    24456545.364
  23211680.450   -12390358.91049  -9397071.62646  23211680.228    23211685.991
  21448047.886   -21025281.95449 -16126187.11647  21448047.476    21448051.767
  20461950.301   -25607680.84849 -19199255.58748  20461950.057    20461954.340
 04  5 19  3 25  0.0000000  0  6G16G13G 4G27G20G 1
  21475363.434   -20584048.53449 -16027515.88747  21475363.235    21475366.602
  21511810.337   -21923901.73549 -17065146.07847  21511810.623    21511813.923
  24463911.594    -5156479.27449  -4004302.19745  24463911.826    24463917.545
  23198900.470   -12457517.90549  -9449403.25546  23198900.265    23198905.992
  21463200.429   -20945654.86849 -16064140.08047  21463200.016    21463204.283
  20462416.555   -25605230.76049 -19197346.41948  20462416.304    20462420.594
 04  5 19  3 25 30.0000000  0  6G16G13G 4G27G20G 1
  21480559.565   -20556742.75949 -16006238.65647  21480559.368    21480562.722
  21500023.197   -21985843.40549 -17113412.29547  21500023.513    21500026.823
  24471361.400    -5117330.59349  -3973796.78645  24471361.679    24471367.331
  23186154.639   -12524497.61949  -9501595.19546  23186154.429    23186160.131
  21478433.079   -20865607.01649 -16001765.17647  21478432.670    21478436.947
  20462938.554   -25602487.56249 -19195208.85748  20462938.303    20462942.578
 04  5 19  3 26  0.0000000  0  6G16G13G 4G27G20G 1
  21485863.970   -20528867.69749 -15984517.82347  21485863.806    21485867.150
  21488270.435   -22047604.58149 -17161537.86847  21488270.750    21488274.075
  24478887.941    -5077778.48449  -3942977.00845  24478888.178    24478893.867
  23173442.406   -12591300.44849  -9553649.30246  23173442.220    23173447.937
  21493744.902   -20785143.12449 -15939066.08347  21493744.480    21493748.767
  20463515.991   -25599453.04049 -19192844.28048  20463515.753    20463520.023
 04  5 19  3 26 30.0000000  0  6G16G13G 4G27G20G 1
  21491276.943   -20500422.33449 -15962352.60147  21491276.769    21491280.130
  21476552.761   -22109181.34149 -17209519.74147  21476553.052    21476556.392
  24486491.311    -5037822.78449  -3911842.75745  24486491.564    24486497.242
  23160764.302   -12657924.17649  -9605563.83846  23160764.116    23160769.813
  21509135.816   -20704263.53049 -15876043.06047  21509135.376    21509139.692
  20464149.416   -25596124.29249 -19190250.43748  20464149.164    20464153.452
 04  5 19  3 27  0.0000000  0  6G16G13G 4G27G20G 1
  21496798.018   -20471408.93349 -15939744.75647  21496797.856    21496801.190
  21464870.176   -22170573.76949 -17257357.98747  21464870.479    21464873.778
  24494170.747    -4997466.84749  -3880396.62845  24494171.059    24494176.690
  23148120.093   -12724369.82849  -9657339.62446  23148119.900    23148125.609
  21524605.139   -20622971.59249 -15812698.74047  21524604.706    21524609.047
  20464838.819   -25592501.43149 -19187427.42348  20464838.567    20464842.867
 04  5 19  3 27 30.0000000  0  6G16G13G 4G27G20G 1
  21502426.993   -20441828.50249 -15916695.06847  21502426.820    21502430.137
  21453222.919   -22231780.32149 -17305051.39047  21453223.213    21453226.534
  24501925.986    -4956712.96149  -3848640.39445  24501926.309    24501931.961
  23135509.728   -12790637.32049  -9708976.58246  23135509.550    23135515.252
  21540152.516   -20541269.66649 -15749034.94947  21540152.083    21540156.440
  20465584.321   -25588583.63949 -19184374.59148  20465584.071    20465588.370
 04  5 19  3 28  0.0000000  0  6G16G13G 4G27G20G 1
  21508163.467   -20411683.06349 -15893205.10447  21508163.288    21508166.610
  21441611.133   -22292800.58049 -17352599.63047  21441611.431    21441614.741
  24509756.388    -4915563.99149  -3816576.32045  24509756.699    24509762.443
  23122933.106   -12856727.40749  -9760475.29746  23122932.957    23122938.685
  21555777.336   -20459160.80949 -15685054.06547  21555776.906    21555781.277
  20466385.946   -25584370.98849 -19181091.99748  20466385.686    20466389.983
 04  5 19  3 28 30.0000000  0  6G16G13G 4G27G20G 1
  21514007.710   -20380971.21349 -15869273.78447  21514007.522    21514010.876
  21430035.552   -22353630.65949 -17399999.67747  21430035.855    21430039.127
  24517662.027    -4874019.74649  -3784204.24645  24517662.336    24517668.166
  23110390.851   -12922637.44049  -9811833.70746  23110390.739    23110396.375
  21571479.682   -20376644.69949 -15620755.84447  21571479.246    21571483.630
  20467244.369   -25579860.00349 -19177576.93948  20467244.112    20467248.395
 04  5 19  3 29  0.0000000  0  6G16G13G 4G27G20G 1
  21519958.905   -20349697.39349 -15844904.56847  21519958.723    21519962.075
  21418495.857   -22414272.21249 -17447252.82547  21418496.134    21418499.405
  24525641.908    -4832085.38249  -3751528.17845  24525642.181    24525647.998
  23097882.192   -12988370.50249  -9863054.22646  23097882.069    23097887.712
  21587258.451   -20293726.89149 -15556144.61547  21587258.012    21587262.407
  20468159.125   -25575052.81749 -19173831.07448  20468158.868    20468163.160
 04  5 19  3 29 30.0000000  0  6G16G13G 4G27G20G 1
  21526017.279   -20317860.38949 -15820096.51147  21526017.098    21526020.437
  21406992.703   -22474721.66749 -17494356.28447  21406992.997    21406996.249
  24533696.077    -4789760.95149  -3718548.16745  24533696.266    24533702.114
  23085407.706   -13053924.14749  -9914134.93946  23085407.575    23085413.193
  21603113.648   -20210407.21849 -15491220.23547  21603113.226    21603117.651
  20469130.816   -25569946.40249 -19169852.04548  20469130.576    20469134.858
 04  5 19  3 30  0.0000000  0  6G16G13G 4G27G20G 1
  21532182.181   -20285463.68249 -15794852.32247  21532182.001    21532185.339
  21395525.918   -22534979.84549 -17541310.70747  21395526.235    21395529.489
  24541823.594    -4747050.63049  -3685267.44045  24541823.829    24541829.649
  23072966.960   -13119300.42849  -9965077.45046  23072966.838    23072972.452
  21619044.494   -20126690.27349 -15425986.29847  21619044.087    21619048.524
  20470159.237   -25564542.13549 -19165640.92448  20470158.994    20470163.259
 04  5 19  3 30 30.0000000  0  6G16G13G 4G27G20G 1
  21538453.788   -20252506.09849 -15769171.08147  21538453.609    21538456.971
  21384096.342   -22595042.71849 -17588112.93647  21384096.638    21384099.908
  24550024.553    -4703954.32349  -3651685.94945  24550024.742    24550030.547
  23060560.437   -13184496.79049 -10015879.74446  23060560.326    23060565.911
  21635050.998   -20042575.78949 -15360442.58547  21635050.576    21635055.029
  20471244.953   -25558836.59449 -19161195.04448  20471244.702    20471248.985
 04  5 19  3 31  0.0000000  0  6G16G13G 4G27G20G 1
  21544831.651   -20218990.11649 -15743054.72447  21544831.474    21544834.842
  21372703.835   -22654910.58849 -17634763.21747  21372704.125    21372707.406
  24558298.152    -4660475.78549  -3617806.61845  24558298.384    24558304.353
  23048187.978   -13249514.46649 -10066542.81546  23048187.871    23048193.417
  21651132.387   -19958067.72749 -15294592.17847  21651131.963    21651136.428
  20472387.911   -25552830.27849 -19156514.78848  20472387.661    20472391.942
 04  5 19  3 31 30.0000000  0  6G16G13G 4G27G20G 1
  21551315.382   -20184917.86849 -15716504.91647  21551315.215    21551318.571
  21361348.586   -22714582.85749 -17681261.08647  21361348.876    21361352.144
  24566644.053    -4616617.82449  -3583631.63245  24566644.336    24566650.354
  23035849.345   -13314354.24849 -10117067.25846  23035849.223    23035854.745
  21667288.090   -19873169.10649 -15228437.44047  21667287.659    21667292.133
  20473588.092   -25546523.14349 -19151600.13348  20473587.850    20473592.128
 04  5 19  3 32  0.0000000  0  6G16G13G 4G27G20G 1
  21557904.934   -20150289.42649 -15689521.70847  21557904.763    21557908.132
  21350031.092   -22774056.60949 -17727604.27647  21350031.381    21350034.635
  24575061.983    -4572381.77449  -3549162.01145  24575062.318    24575068.261
  23023544.832   -13379014.95349 -10167452.16046  23023544.702    23023550.176
  21683517.863   -19787881.14749 -15161979.32947  21683517.443    21683521.908
  20474845.883   -25539913.37549 -19146449.66448  20474845.639    20474849.936
 04  5 19  3 32 30.0000000  0  6G16G13G 4G27G20G 1
  21564599.799   -20115107.86349 -15662107.49547  21564599.618    21564602.981
  21338751.371   -22833331.95749 -17773792.85447  21338751.670    21338754.902
  24583551.071    -4527771.44949  -3514400.76445  24583551.441    24583557.327
  23011274.031   -13443498.11149 -10217698.70946  23011273.877    23011279.357
  21699820.965   -19702207.86349 -15095220.95347  21699820.537    21699825.019
  20476161.157   -25533001.49549 -19141063.77648  20476160.899    20476165.208
 04  5 19  3 33  0.0000000  0  6G16G13G 4G27G20G 1
  21571399.997   -20079372.41449 -15634261.68847  21571399.811    21571403.167
  21327510.083   -22892405.16549 -17819823.92547  21327510.402    21327513.637
  24592111.330    -4482787.04149  -3479348.03945  24592111.695    24592117.713
  22999037.454   -13507801.57749 -10267805.24446  22999037.288    22999042.792
  21716197.368   -19616149.43749 -15028162.48547  21716196.940    21716201.421
  20477534.472   -25525784.65849 -19135440.26448  20477534.218    20477538.533
 04  5 19  3 33 30.0000000  0  6G16G13G 4G27G20G 1
  21578305.273   -20043085.09549 -15605985.85447  21578305.070    21578308.418
  21316307.328   -22951276.12149 -17865697.40047  21316307.647    21316310.870
  24600742.183    -4437431.39249  -3444006.03845  24600742.501    24600748.639
  22986834.962   -13571925.81349 -10317772.12246  22986834.815    22986840.297
  21732646.470   -19529708.94649 -14960806.30147  21732646.042    21732650.537
  20478965.868   -25518262.67649 -19129578.98648  20478965.607    20478969.929
 04  5 19  3 34  0.0000000  0  6G16G13G 4G27G20G 1
  21585314.997   -20006248.64049 -15577282.11847  21585314.808    21585318.136
  21305143.066   -23009944.77849 -17911413.23547  21305143.376    21305146.610
  24609442.987    -4391708.58249  -3408377.93245  24609443.287    24609449.465
  22974666.324   -13635872.24149 -10367600.45246  22974666.150    22974671.624
  21749167.518   -19442890.35149 -14893155.48147  21749167.085    21749171.606
  20480455.174   -25510436.22349 -19123480.44848  20480454.916    20480459.257
 04  5 19  3 34 30.0000000  0  6G16G13G 4G27G20G 1
  21592429.460   -19968862.02549 -15548149.69047  21592429.262    21592432.573
  21294018.118   -23068406.79349 -17956968.05647  21294018.438    21294021.647
  24618213.765    -4345618.13949  -3372463.38245  24618214.125    24618220.251
  22962531.971   -13699638.41149 -10417288.32246  22962531.800    22962537.263
  21765760.545   -19355693.49449 -14825209.92047  21765760.128    21765764.658
  20482003.095   -25502301.86849 -19117141.99548  20482002.844    20482007.174
 04  5 19  3 35  0.0000000  0  7G16G13G 4G27G20G 3G 1
  21599647.847   -19930928.99149 -15518591.48747  21599647.655    21599650.972
  21282932.351   -23126663.05749 -18002362.54447  21282932.642    21282935.862
  24627053.666    -4299164.71049  -3336265.96845  24627053.985    24627060.118
  22950431.488   -13763226.42449 -10466837.37046  22950431.327    22950436.764
  21782424.709   -19268122.98649 -14756973.19947  21782424.271    21782428.806
  24577582.932    -6055969.16259  -4492113.56245  24577582.773    24577589.320
  20483609.319   -25493861.03049 -19110564.72148  20483609.063    20483613.387
 04  5 19  3 35 30.0000000  0  7G16G13G 4G27G20G 3G 1
  21606969.300   -19892454.44649 -15488611.32247  21606969.117    21606972.453
  21271885.261   -23184715.80449 -18047598.44847  21271885.560    21271888.786
  24635961.476    -4252354.18249  -3299790.28345  24635961.738    24635967.915
  22938364.274   -13826639.76549 -10516250.30046  22938364.111    22938369.551
  21799158.800   -19180185.06249 -14688450.17947  21799158.347    21799162.864
  24563028.562    -6132452.45949  -4551710.86145  24563028.370    24563035.091
  20485273.382   -25485116.44049 -19103750.75648  20485273.121    20485277.452
 04  5 19  3 36  0.0000000  0  7G16G13G 4G27G20G 3G 1
  21614394.804   -19853433.17749 -15458205.13347  21614394.616    21614397.974
  21260878.404   -23242557.15049 -18092669.62147  21260878.710    21260881.920
  24644937.861    -4205182.44649  -3263033.16445  24644938.124    24644944.488
  22926331.549   -13889871.74449 -10565521.91046  22926331.421    22926336.822
  21815963.627   -19091875.20749 -14619637.34547  21815963.183    21815967.694
  24548495.774    -6208821.94249  -4611219.46045  24548495.710    24548502.339
  20486996.621   -25476060.63249 -19096694.28448  20486996.378    20487000.696
 04  5 19  3 36 30.0000000  0  7G16G13G 4G27G20G 3G 1
  21621923.531   -19813869.50849 -15427376.30047  21621923.334    21621926.690
  21249911.571   -23300188.15249 -18137576.88347  21249911.872    21249915.116
  24653982.138    -4157654.66449  -3225998.60145  24653982.403    24653988.771
  22914332.869   -13952925.16249 -10614654.37846  22914332.718    22914338.117
  21832838.206   -19003198.74749 -14550538.83547  21832837.771    21832842.282
  24533984.783    -6285077.51149  -4670639.30245  24533984.766    24533991.285
  20488778.752   -25466695.47949 -19089396.76048  20488778.504    20488782.823
 04  5 19  3 37  0.0000000  0  7G16G13G 4G27G20G 3G 1
  21629555.445   -19773763.44349 -15396124.81547  21629555.241    21629558.612
  21238985.339   -23357605.75649 -18182317.85947  21238985.636    21238988.903
  24663094.010    -4109771.47149  -3188687.07745  24663094.385    24663100.732
  22902368.388   -14015798.59949 -10663646.59046  22902368.250    22902373.659
  21849782.315   -18914156.95449 -14481155.65847  21849781.871    21849786.397
  24519496.264    -6361214.63249  -4729966.84245  24519496.167    24519502.801
  20490620.164   -25457018.72349 -19081856.42948  20490619.909    20490624.225
 04  5 19  3 37 30.0000000  0  7G16G13G 4G27G20G 3G 1
  21637289.951   -19733118.28549 -15364453.26347  21637289.746    21637293.130
  21228099.571   -23414810.66649 -18226893.10747  21228099.872    21228103.147
  24672272.655    -4061537.56549  -3151102.28745  24672272.991    24672279.395
  22890437.830   -14078493.77949 -10712499.90946  22890437.699    22890443.077
  21866795.193   -18824753.83249 -14411490.92547  21866794.753    21866799.284
  24505030.723    -6437231.69149  -4789200.86145  24505030.730    24505037.217
  20492520.716   -25447031.37049 -19074074.07948  20492520.473    20492524.766
 04  5 19  3 38  0.0000000  0  7G16G13G 4G27G20G 3G 1
  21645126.906   -19691934.55249 -15332362.04747  21645126.720    21645130.127
  21217254.774   -23471800.30449 -18271300.61347  21217255.080    21217258.362
  24681517.856    -4012953.85549  -3113244.90945  24681518.160    24681524.684
  22878541.400   -14141009.61749 -10761213.49646  22878541.285    22878546.676
  21883876.564   -18734990.84549 -14341545.76847  21883876.128    21883880.686
  24490588.794    -6513124.59749  -4848338.12945  24490588.758    24490595.200
  20494480.697   -25436731.54849 -19066048.24448  20494480.466    20494484.763
 04  5 19  3 38 30.0000000  0  7G16G13G 4G27G20G 3G 1
  21653065.739   -19650215.76849 -15299853.90147  21653065.545    21653068.953
  21206450.981   -23528574.55749 -18315540.27947  21206451.299    21206454.583
  24690828.817    -3964024.67749  -3075118.35145  24690829.214    24690835.554
  22866678.787   -14203347.78449 -10809788.63846  22866678.658    22866684.095
  21901025.570   -18644872.22549 -14271323.49847  21901025.146    21901029.717
  24476170.720    -6588892.01549  -4907377.61845  24476170.650    24476177.146
  20496500.001   -25426120.14549 -19057779.61448  20496499.748    20496504.055
 04  5 19  3 39  0.0000000  0  7G16G13G 4G27G20G 3G 1
  21661106.189   -19607962.84649 -15266929.54647  21661105.998    21661109.435
  21195688.501   -23585131.75049 -18359610.80047  21195688.810    21195692.117
  24700205.150    -3914752.07249  -3036724.18845  24700205.613    24700211.803
  22854850.048   -14265507.88849 -10858225.04446  22854849.937    22854855.358
  21918241.894   -18554399.94849 -14200825.65747  21918241.457    21918246.041
  24461777.103    -6664530.73649  -4966316.81545  24461777.054    24461783.477
  20498578.802   -25415195.87649 -19049267.19548  20498578.559    20498582.885
 04  5 19  3 39 30.0000000  0  7G16G13G 4G27G20G 3G 1
  21669248.229   -19565176.02449 -15233589.16847  21669248.052    21669251.471
  21184967.887   -23641468.96049 -18403509.90447  21184968.202    21184971.479
  24709646.682    -3865137.09649  -2998063.25045  24709647.147    24709653.373
  22843055.490   -14327488.46349 -10906521.54946  22843055.352    22843060.793
  21935525.246   -18463575.33249 -14130053.25647  21935524.812    21935529.453
  24447408.874    -6740036.06949  -5025152.07945  24447408.831    24447415.180
  20500717.555   -25403956.61949 -19040509.32848  20500717.299    20500721.629
 04  5 19  3 40  0.0000000  0  7G16G13G 4G27G20G 3G 1
  21677491.264   -19521858.66249 -15199835.37547  21677491.065    21677494.476
  21174289.077   -23697586.50649 -18447237.84447  21174289.385    21174292.651
  24719152.419    -3815184.06649  -2959138.88345  24719152.877    24719159.237
  22831294.711   -14389291.30949 -10954679.55546  22831294.594    22831300.061
  21952874.822   -18372402.56549 -14059009.57947  21952874.381    21952879.055
  24433066.196    -6815406.65549  -5083882.36245  24433066.110    24433072.478
  20502916.065   -25392403.44449 -19031506.85448  20502915.827    20502920.147
 04  5 19  3 40 30.0000000  0  7G16G13G 4G27G20G 3G 1
  21685835.299   -19478010.39649 -15165667.89747  21685835.109    21685838.522
  21163652.754   -23753480.77749 -18490791.81147  21163653.068    21163656.312
  24728722.503    -3764893.28249  -2919951.33845  24728722.912    24728729.284
  22819568.241   -14450914.44649 -11002697.52246  22819568.102    22819573.547
  21970290.580   -18280882.23349 -13987695.07547  21970290.164    21970294.835
  24418750.232    -6890637.37449  -5142503.63245  24418750.201    24418756.420
  20505174.844   -25380533.46849 -19022257.51948  20505174.613    20505178.920
 04  5 19  3 41  0.0000000  0  7G16G13G 4G27G20G 3G 1
  21694279.635   -19433635.01149 -15131089.67947  21694279.463    21694282.874
  21153058.763   -23809152.53349 -18534172.37847  21153059.082    21153062.319
  24738355.893    -3714269.52949  -2880504.33645  24738356.272    24738362.673
  22807875.533   -14512359.97349 -11050577.09346  22807875.387    22807880.794
  21987771.602   -18189018.97349 -13916113.33447  21987771.203    21987775.830
  24404461.122    -6965727.30949  -5201015.22145  24404461.033    24404467.278
  20507493.643   -25368348.02349 -19012762.35948  20507493.408    20507497.742
 04  5 19  3 41 30.0000000  0  7G16G13G 4G27G20G 3G 1
  21702823.983   -19388734.41549 -15096102.20447  21702823.778    21702827.178
  21142507.417   -23864600.26549 -18577378.38347  21142507.716    21142510.932
  24748052.217    -3663315.28149  -2840799.80245  24748052.680    24748058.993
  22796216.587   -14573627.99449 -11098318.36746  22796216.428    22796221.853
  22005317.416   -18096815.31549 -13844266.36047  22005316.996    22005321.635
  24390199.408    -7040673.31949  -5259414.65945  24390199.316    24390205.402
  20509872.646   -25355846.20649 -19003020.68048  20509872.411    20509876.759
 04  5 19  3 42  0.0000000  0  7G16G13G 4G27G20G 3G 1
  21711468.259   -19343308.33249 -15060705.26147  21711468.063    21711471.446
  21131999.324   -23919820.69749 -18620407.26947  21131999.631    21132002.818
  24757811.277    -3612031.10949  -2800838.20445  24757811.724    24757818.090
  22784591.780   -14634716.67549 -11145919.88846  22784591.626    22784597.002
  22022927.883   -18004271.95149 -13772154.68847  22022927.454    22022932.074
  24375965.943    -7115470.47749  -5317698.10245  24375965.760    24375971.885
  20512312.332   -25343025.56949 -18993030.57248  20512312.102    20512316.451
 04  5 19  3 42 30.0000000  0  7G16G13G 4G27G20G 3G 1
  21720212.195   -19297358.68949 -15024900.34247  21720212.000    21720215.373
  21121534.756   -23974812.31549 -18663257.86347  21121535.066    21121538.222
  24767632.656    -3560419.81949  -2760621.69345  24767633.044    24767639.530
  22773001.082   -14695626.13849 -11193381.77346  22773000.910    22773006.263
  22040602.404   -17911391.86749 -13699780.63347  22040601.959    22040606.599
  24361761.432    -7190115.80049  -5375863.23945  24361761.164    24361767.312
  20514812.824   -25329885.42249 -18982791.49148  20514812.591    20514816.947
 04  5 19  3 43  0.0000000  0  7G16G13G 4G27G20G 3G 1
  21729054.722   -19250890.95049 -14988691.72347  21729054.519    21729057.885
  21111113.257   -24029577.63549 -18705932.12447  21111113.550    21111116.714
  24777515.133    -3508487.85449  -2720155.30645  24777515.523    24777521.998
  22761443.704   -14756360.45849 -11240707.19346  22761443.541    22761448.905
  22058339.827   -17818181.26049 -13627149.03547  22058339.399    22058344.057
  24347585.524    -7264610.35849  -5433910.88545  24347585.367    24347591.386
  20517373.514   -25316428.93749 -18972305.92048  20517373.278    20517377.632
 04  5 19  3 43 30.0000000  0  7G16G13G 4G27G20G 3G 1
  21737996.494   -19203901.65949 -14952076.69547  21737996.298    21737999.659
  21100736.098   -24084109.77949 -18748424.69247  21100736.394    21100739.542
  24787459.015    -3456232.40949  -2679436.86545  24787459.389    24787466.025
  22749920.624   -14816914.34049 -11287892.02546  22749920.478    22749925.833
  22076140.609   -17724637.62449 -13554257.93347  22076140.156    22076144.880
  24333439.931    -7338945.58649  -5491834.39845  24333439.770    24333445.847
  20519995.537   -25302650.11149 -18961569.17048  20519995.283    20519999.631
 04  5 19  3 44  0.0000000  0  7G16G13G 4G27G20G 3G 1
  21747036.680   -19156395.15349 -14915058.63747  21747036.490    21747039.818
  21090403.098   -24138410.00249 -18790736.53247  21090403.398    21090406.557
  24797463.468    -3403658.54449  -2638470.27345  24797463.863    24797470.406
  22738431.436   -14877290.39149 -11334938.27446  22738431.282    22738436.619
  22094003.732   -17630766.25149 -13481111.44147  22094003.290    22094008.041
  24319324.698    -7413121.06149  -5549633.41245  24319324.592    24319330.747
  20522678.493   -25288550.91149 -18950582.77848  20522678.246    20522682.616
 04  5 19  3 44 30.0000000  0  7G16G13G 4G27G20G 3G 1
  21756174.864   -19108373.66549 -14877639.30447  21756174.674    21756178.007
  21080114.432   -24192477.10449 -18832866.72847  21080114.760    21080117.922
  24807528.043    -3350769.51749  -2597258.09645  24807528.315    24807534.923
  22726976.011   -14937489.05249 -11381846.31746  22726975.842    22726981.175
  22111928.747   -17536569.82949 -13407711.66847  22111928.311    22111933.065
  24305240.336    -7487134.14149  -5607305.89545  24305240.342    24305246.498
  20525422.536   -25274130.88449 -18939346.39348  20525422.286    20525426.652
 04  5 19  3 45  0.0000000  0  7G16G13G 4G27G20G 3G 1
  21765410.701   -19059839.01849 -14839820.09547  21765410.500    21765413.845
  21069870.499   -24246309.24749 -18874813.83047  21069870.812    21069874.002
  24817652.175    -3297567.58449  -2555802.13245  24817652.406    24817658.880
  22715554.323   -14997510.23849 -11428616.04546  22715554.159    22715559.491
  22129915.056   -17442051.01949 -13334060.68447  22129914.639    22129919.415
  24291187.641    -7560981.54749  -5664849.26245  24291187.561    24291193.775
  20528227.823   -25259389.03049 -18927859.22648  20528227.574    20528231.940
 04  5 19  3 45 30.0000000  0  7G16G13G 4G27G20G 3G 1
  21774744.020   -19010792.11649 -14801601.73547  21774743.819    21774747.180
  21059671.676   -24299904.22649 -18916576.13847  21059671.992    21059675.196
  24827835.423    -3244054.41949  -2514103.64545  24827835.857    24827842.004
  22704166.594   -15057353.01149 -11475246.75746  22704166.443    22704171.758
  22147962.429   -17347211.60649 -13260159.88247  22147962.015    22147966.775
  24277167.208    -7634659.25649  -5722260.41145  24277167.087    24277173.229
  20531094.643   -25244323.72949 -18916120.03348  20531094.409    20531098.760
 04  5 19  3 46  0.0000000  0  7G16G13G 4G27G20G 3G 1
  21784174.342   -18961235.40549 -14762986.11647  21784174.120    21784177.506
  21049518.177   -24353261.23849 -18958153.01847  21049518.482    21049521.700
  24838077.267    -3190233.42349  -2472165.27245  24838077.697    24838083.892
  22692812.641   -15117018.14849 -11521739.03946  22692812.493    22692817.790
  22166070.230   -17252054.87449 -13186011.82047  22166069.789    22166074.562
  24263179.526    -7708164.85349  -5779537.45445  24263179.461    24263185.500
  20534023.041   -25228934.94249 -18904128.76748  20534022.792    20534027.163
 04  5 19  3 46 30.0000000  0  7G16G13G 4G27G20G 3G 1
  21793701.416   -18911170.38749 -14723974.41847  21793701.215    21793704.580
  21039410.311   -24406378.33049 -18999542.95547  21039410.619    21039413.843
  24848377.263    -3136106.81549  -2429988.76945  24848377.696    24848384.018
  22681492.532   -15176505.61949 -11568092.85946  22681492.380    22681497.672
  22184237.975   -17156583.05449 -13111618.23247  22184237.532    22184242.241
  24249225.190    -7781495.05149  -5836677.80745  24249225.092    24249231.052
  20537013.183   -25213221.68349 -18891884.67148  20537012.942    20537017.296
 04  5 19  3 47  0.0000000  0  7G16G13G 4G27G20G 3G 1
  21803324.832   -18860598.95349 -14684568.10547  21803324.632    21803327.986
  21029348.445   -24459253.83649 -19040744.64147  21029348.755    21029351.937
  24858734.952    -3081677.27349  -2387576.21345  24858735.394    24858741.622
  22670206.313   -15235815.18749 -11614308.04446  22670206.143    22670211.424
  22202465.180   -17060798.79549 -13036981.19447  22202464.743    22202469.433
  24235304.871    -7854646.63649  -5893678.98945  24235304.848    24235310.678
  20540065.190   -25197183.18349 -18879387.13748  20540064.949    20540069.296
 04  5 19  3 47 30.0000000  0  7G16G13G 4G27G20G 3G 1
  21813044.009   -18809524.28749 -14644769.67447  21813043.814    21813047.188
  21019332.562   -24511887.82549 -19081758.14247  21019332.859    21019336.054
  24869149.692    -3026948.45849  -2344930.44345  24869150.056    24869156.304
  22658953.639   -15294948.18649 -11660385.64746  22658953.443    22658958.705
  22220751.066   -16964706.03149 -12962103.76047  22220750.604    22220755.315
  24221418.914    -7927617.88349  -5950539.64745  24221418.840    24221424.710
  20543179.065   -25180819.82749 -18866636.47648  20543178.823    20543183.149
 04  5 19  3 48  0.0000000  0  7G16G13G 4G27G20G 3G 1
  21822858.928   -18757946.61649 -14604579.28747  21822858.729    21822862.078
  21009363.267   -24564276.88949 -19122580.77947  21009363.560    21009366.728
  24879621.074    -2971921.40649  -2302052.28745  24879621.406    24879627.763
  22647734.820   -15353903.21849 -11706324.58346  22647734.650    22647739.901
  22239095.409   -16868305.92149 -12886986.82847  22239094.955    22239099.666
  24207568.130    -8000404.13749  -6007256.15445  24207568.040    24207573.991
  20546355.092   -25164129.56249 -18853631.07748  20546354.844    20546359.178
 04  5 19  3 48 30.0000000  0  7G16G13G 4G27G20G 3G 1
  21832768.968   -18705869.02049 -14563999.34647  21832768.779    21832772.148
  20999440.611   -24616420.59949 -19163212.23247  20999440.890    20999444.082
  24890148.495    -2916600.00249  -2258944.75845  24890148.758    24890155.112
  22636549.700   -15412681.35749 -11752125.67246  22636549.513    22636554.744
  22257497.566   -16771602.00149 -12811633.15947  22257497.155    22257501.865
  24193752.914    -8073003.08149  -6063826.69045  24193752.813    24193758.896
  20549593.314   -25147112.62149 -18840371.12348  20549593.063    20549597.408
 04  5 19  3 49  0.0000000  0  7G16G13G 4G27G20G 3G 1
  21842774.014   -18653292.17449 -14523030.38347  21842773.842    21842777.193
  20989565.079   -24668316.80349 -19203650.82547  20989565.366    20989568.564
  24900731.603    -2860985.87449  -2215609.12045  24900731.922    24900738.211
  22625398.341   -15471281.67249 -11797788.20046  22625398.163    22625403.400
  22275957.223   -16674595.91149 -12736044.03747  22275956.816    22275961.557
  24179974.048    -8145410.72649  -6120248.18745  24179973.973    24179980.071
  20552894.048   -25129767.10649 -18826855.14348  20552893.808    20552898.134
 04  5 19  3 49 30.0000000  0  7G16G13G 4G27G20G 3G 1
  21852873.388   -18600219.52949 -14481675.07747  21852873.221    21852876.549
  20979736.805   -24719964.58249 -19243895.83547  20979737.110    20979740.291
  24911369.646    -2805082.88649  -2172048.42345  24911369.828    24911376.267
  22614280.593   -15529705.49149 -11843313.19446  22614280.429    22614285.666
  22294473.632   -16577291.72049 -12660222.62346  22294473.207    22294477.981
  24166232.094    -8217625.44649  -6176519.33445  24166231.955    24166237.910
  20556257.210   -25112093.70949 -18813083.66348  20556256.969    20556261.285
 04  5 19  3 50  0.0000000  0  6G16G13G27G20G 3G 1
  21863067.350   -18546649.97949 -14439932.57647  21863067.164    21863070.503
  20969956.749   -24771359.17049 -19283943.55647  20969957.051    20969960.237
  22603196.996   -15587949.94449 -11888698.44447  22603196.842    22603201.994
  22313046.803   -16479689.29749 -12584168.81746  22313046.349    22313051.125
  24152527.881    -8289641.09249  -6232635.36745  24152527.673    24152533.710
  20559683.428   -25094088.79149 -18799053.85848  20559683.187    20559687.494
 04  5 19  3 50 30.0000000  0  6G16G13G27G20G 3G 1
  21873355.786   -18492584.04549 -14397803.27947  21873355.581    21873358.915
  20960225.356   -24822497.91249 -19323791.91247  20960225.658    20960228.835
  22592147.828   -15646013.59249 -11933942.78047  22592147.652    22592152.787
  22331676.568   -16381789.47449 -12507883.27046  22331676.092    22331680.859
  24138862.497    -8361452.76649  -6288592.45545  24138862.304    24138868.270
  20563173.161   -25075750.10349 -18784763.96448  20563172.922    20563177.226
 04  5 19  3 51  0.0000000  0  6G16G13G27G20G 3G 1
  21883736.879   -18438030.91849 -14355294.35047  21883736.694    21883740.023
  20950541.578   -24873386.37649 -19363445.24747  20950541.872    20950545.037
  22581131.663   -15703903.78149 -11979051.97847  22581131.498    22581136.639
  22350360.951   -16283602.49249 -12431373.96246  22350360.507    22350365.252
  24125235.255    -8433064.65049  -6344393.86245  24125235.037    24125240.814
  20566725.119   -25057084.41049 -18770219.27048  20566724.893    20566729.200
 04  5 19  3 51 30.0000000  0  6G16G13G27G20G 3G 1
  21894210.745   -18382990.38149 -14312405.62647  21894210.563    21894213.887
  20940906.100   -24924021.14649 -19402900.90247  20940906.402    20940909.562
  22570148.871   -15761618.34549 -12024024.32047  22570148.701    22570153.838
  22369099.921   -16185128.60649 -12354641.10046  22369099.504    22369104.239
  24111646.894    -8504471.98049  -6400035.87345  24111646.685    24111652.436
  20570339.899   -25038088.56449 -18755417.30748  20570339.650    20570343.990
 04  5 19  3 52  0.0000000  0  6G16G13G27G20G 3G 1
  21904777.093   -18327464.02149 -14269138.33847  21904776.908    21904780.210
  20931319.332   -24974399.92549 -19442157.08448  20931319.639    20931322.785
  22559199.577   -15819156.99049 -12068859.60347  22559199.411    22559204.547
  22387893.072   -16086370.08549 -12277686.44446  22387892.664    22387897.386
  24098098.078    -8575670.96149  -6455515.53145  24098097.894    24098103.694
  20574017.705   -25018761.53449 -18740357.28148  20574017.474    20574021.789
 04  5 19  3 52 30.0000000  0  6G16G13G27G20G 3G 1
  21915435.506   -18271453.65649 -14225493.89847  21915435.330    21915438.632
  20921781.635   -25024520.90749 -19481212.38248  20921781.932    20921785.062
  22548283.791   -15876519.69249 -12113557.79247  22548283.628    22548288.742
  22406739.938   -15987329.49649 -12200511.98346  22406739.517    22406744.249
  24084589.497    -8646658.56949  -6510830.48645  24084589.366    24084595.196
  20577758.708   -24999102.42149 -18725038.48748  20577758.484    20577762.792
 04  5 19  3 53  0.0000000  0  6G16G13G27G20G 3G 1
  21926185.617   -18214961.45449 -14181474.00947  21926185.438    21926188.751
  20912293.271   -25074382.59249 -19520065.62548  20912293.561    20912296.676
  22537401.522   -15933706.38049 -12158118.84147  22537401.362    22537406.460
  22425639.910   -15888009.49349 -12123119.80546  22425639.493    22425644.207
  24071121.895    -8717431.28649  -6565977.99745  24071121.739    24071127.586
  20581563.041   -24979110.46749 -18709460.33748  20581562.811    20581567.114
 04  5 19  3 53 30.0000000  0  6G16G13G27G20G 3G 1
  21937027.162   -18157988.75649 -14137079.70247  21937026.982    21937030.317
  20902854.651   -25123982.80749 -19558715.12548  20902854.945    20902858.042
  22526552.804   -15990716.61449 -12202542.38447  22526552.642    22526557.741
  22444592.656   -15788412.30549 -12045511.63946  22444592.212    22444596.933
  24057695.762    -8787985.65849  -6620955.37045  24057695.654    24057701.491
  20585430.944   -24958784.56349 -18693621.96848  20585430.703    20585434.999
 04  5 19  3 54  0.0000000  0  6G16G13G27G20G 3G 1
  21947959.133   -18100540.80049 -14092315.06747  21947958.944    21947962.308
  20893465.496   -25173323.10949 -19597162.09448  20893465.795    20893468.889
  22515737.056   -16047553.63149 -12246830.95247  22515736.890    22515741.985
  22463597.085   -15688543.74049 -11967692.00446  22463596.625    22463601.318
  24044311.226    -8858321.83549  -6675762.72145  24044311.110    24044316.923
  20589361.898   -24938127.19949 -18677525.31548  20589361.652    20589365.958
 04  5 19  3 54 30.0000000  0  6G16G13G27G20G 3G 1
  21958982.065   -18042614.92749 -14047178.02547  21958981.863    21958985.234
  20884126.984   -25222397.15249 -19635401.58748  20884127.290    20884130.359
  22504955.213   -16104212.72449 -12290980.85747  22504955.024    22504960.103
  22482653.557   -15588401.64449 -11889659.23646  22482653.073    22482657.783
  24030969.692    -8928431.85749  -6730393.84845  24030969.486    24030975.290
  20593356.978   -24917132.93549 -18661166.14048  20593356.726    20593361.032
 04  5 19  3 55  0.0000000  0  6G16G13G27G20G 3G 1
  21970095.186   -17984215.11749 -14001671.69447  21970094.980    21970098.398
  20874839.145   -25271205.12949 -19673433.76148  20874839.439    20874842.522
  22494206.839   -16160695.84649 -12334993.65847  22494206.665    22494211.691
  22501761.111   -15487990.90949 -11811417.13646  22501760.625    22501765.346
  24017671.437    -8998314.38949  -6784847.72345  24017671.243    24017676.986
  20597415.947   -24895802.83849 -18644545.28248  20597415.696    20597419.995
 04  5 19  3 55 30.0000000  0  6G16G13G27G20G 3G 1
  21981297.993   -17925344.02249 -13955798.12247  21981297.754    21981301.219
  20865602.147   -25319745.86749 -19711257.69748  20865602.444    20865605.518
  22483491.793   -16217003.78349 -12378869.92847  22483491.633    22483496.617
  22520919.156   -15387314.66049 -11732968.13846  22520918.693    22520923.422
  24004416.843    -9067967.28149  -6839122.65145  24004416.669    24004422.448
  20601538.837   -24874136.92249 -18627662.74848  20601538.572    20601542.889
 04  5 19  3 56  0.0000000  0  6G16G13G27G20G 3G 1
  21992589.980   -17866004.13149 -13909559.25647  21992589.777    21992593.223
  20856416.225   -25368018.18049 -19748872.47548  20856416.523    20856419.605
  22472809.986   -16273137.03349 -12422610.09247  22472809.808    22472814.790
  22540127.120   -15286376.03249 -11654314.69146  22540126.665    22540131.400
  23991206.530    -9137387.91849  -6893216.58545  23991206.354    23991212.124
  20605725.674   -24852134.90249 -18610518.31848  20605725.423    20605729.716
 04  5 19  3 56 30.0000000  0  6G16G13G27G20G 3G 1
  22003971.002   -17806196.52249 -13862955.93047  22003970.788    22003974.233
  20847281.829   -25416019.73049 -19786276.26548  20847282.127    20847285.198
  22462161.577   -16329094.60849 -12466213.37147  22462161.409    22462166.372
  22559384.700   -15185176.67449 -11575458.07446  22559384.253    22559389.034
  23978041.142    -9206572.01249  -6947126.21345  23978040.978    23978046.782
  20609976.806   -24829795.19049 -18593110.74548  20609976.560    20609980.846
 04  5 19  3 57  0.0000000  0  6G16G13G27G20G 3G 1
  22015440.845   -17745922.20149 -13815988.93947  22015440.638    22015444.094
  20838199.503   -25463747.71049 -19823466.88048  20838199.795    20838202.854
  22451546.836   -16384875.41449 -12509678.90847  22451546.678    22451551.627
  22578691.609   -15083718.21849 -11496399.57746  22578691.137    22578695.921
  23964921.646    -9275515.41549  -7000848.28045  23964921.490    23964927.289
  20614292.511   -24807115.94349 -18575438.59948  20614292.252    20614296.554
 04  5 19  3 57 30.0000000  0  6G16G13G27G20G 3G 1
  22026998.499   -17685186.28749 -13768662.26647  22026998.296    22027001.762
  20829168.983   -25511203.29149 -19860445.24748  20829169.286    20829172.337
  22440965.117   -16440482.53449 -12553009.10347  22440964.933    22440969.911
  22598046.808   -14982006.19449 -11417143.49346  22598046.318    22598051.112
  23951847.948    -9344217.86349  -7054382.58345  23951847.831    23951853.735
  20618672.412   -24784099.48749 -18557503.70148  20618672.160    20618676.462
 04  5 19  3 58  0.0000000  0  7G16G13G27G20G 3G 1G 8
  22038642.499   -17623996.70949 -13720982.08347  22038642.305    22038645.742
  20820189.509   -25558390.69949 -19897214.63848  20820189.803    20820192.877
  22430415.348   -16495921.88849 -12596208.57447  22430415.197    22430420.153
  22617448.589   -14880049.27349 -11337696.57746  22617448.146    22617452.920
  23938819.543    -9412682.15749  -7107731.32145  23938819.450    23938825.343
  20623115.467   -24760750.98749 -18539310.06248  20623115.224    20623119.529
  24859431.933    -3981042.54459  -3090687.62645  24859431.644    24859439.249
 04  5 19  3 58 30.0000000  0  7G16G13G27G20G 3G 1G 8
  22050374.449   -17562344.90849 -13672941.73247  22050374.264    22050377.698
  20811263.418   -25605297.50749 -19933765.38748  20811263.722    20811266.796
  22419899.486   -16551182.96649 -12639269.12647  22419899.317    22419904.281
  22636898.484   -14777839.65249 -11258052.74746  22636898.031    22636902.810
  23925839.036    -9480894.78349  -7160883.94645  23925839.006    23925844.875
  20627623.797   -24737059.30149 -18520849.00848  20627623.553    20627627.875
  24842403.228    -4070528.91049  -3160417.16545  24842402.932    24842410.361
 04  5 19  3 59  0.0000000  0  7G16G13G27G20G 3G 1G 8
  22062193.503   -17500235.22949 -13624544.58547  22062193.331    22062196.766
  20802390.588   -25651924.42549 -19970098.03548  20802390.894    20802393.973
  22409417.129   -16606267.92949 -12682192.44047  22409416.953    22409421.939
  22656395.585   -14675381.90849 -11178215.56846  22656395.124    22656399.928
  23912906.690    -9548854.67349  -7213839.64545  23912906.589    23912912.410
  20632197.243   -24713025.69849 -18502121.52048  20632197.007    20632201.324
  24825392.599    -4159919.35749  -3230071.95045  24825392.229    24825399.573
 04  5 19  3 59 30.0000000  0  7G16G13G27G20G 3G 1G 8
  22074099.285   -17437669.94349 -13575792.42347  22074099.109    22074102.562
  20793571.375   -25698269.66249 -20006211.19148  20793571.680    20793574.769
  22398968.234   -16661176.87849 -12724978.60047  22398968.077    22398973.095
  22675939.303   -14572679.02549 -11098187.37346  22675938.814    22675943.658
  23900023.036    -9616558.61949  -7266595.90745  23900022.919    23900028.724
  20636835.869   -24688649.59449 -18483127.15148  20636835.616    20636839.949
  24808400.399    -4249213.49549  -3299651.70845  24808400.042    24808407.301
 04  5 19  4  0  0.0000000  0  7G16G13G27G20G 3G 1G 8
  22086091.255   -17374651.65749 -13526687.27647  22086091.087    22086094.553
  20784805.944   -25744332.27649 -20042104.12648  20784806.248    20784809.310
  22388552.702   -16715910.63049 -12767628.23847  22388552.538    22388557.565
  22695529.068   -14469734.38649 -11017970.80946  22695528.573    22695533.421
  23887188.513    -9684004.12149  -7319150.78845  23887188.433    23887194.192
  20641539.674   -24663931.01649 -18463865.92148  20641539.430    20641543.752
  24791426.582    -4338411.04749  -3369156.18345  24791426.203    24791433.394
 04  5 19  4  0 30.0000000  0  7G16G13G27G20G 3G 1G 8
  22098168.790   -17311183.61949 -13477231.67547  22098168.626    22098172.120
  20776094.463   -25790111.46849 -20077776.21248  20776094.749    20776097.827
  22378170.358   -16770470.08549 -12810142.06447  22378170.185    22378175.229
  22715164.162   -14366551.43649 -10937568.54546  22715163.679    22715168.506
  23874403.573    -9751189.24749  -7371502.77345  23874403.435    23874409.227
  20646308.581   -24638870.20249 -18444338.02048  20646308.328    20646312.664
  24774471.042    -4427512.28249  -3438585.59945  24774470.761    24774477.821
 04  5 19  4  1  0.0000000  0  7G16G13G27G20G 3G 1G 8
  22110331.250   -17247269.50049 -13427428.47547  22110331.076    22110334.593
  20767436.936   -25835607.05049 -20113227.29648  20767437.232    20767440.288
  22367820.893   -16824856.66449 -12852521.17447  22367820.730    22367825.768
  22734843.757   -14263134.49649 -10856983.93946  22734843.295    22734848.125
  23861668.401    -9818112.43349  -7423650.64645  23861668.311    23861674.105
  20651142.453   -24613468.02249 -18424544.10848  20651142.202    20651146.522
  24757533.564    -4516518.70349  -3507941.12345  24757533.227    24757540.320
 04  5 19  4  1 30.0000000  0  7G16G13G27G20G 3G 1G 8
  22122578.750   -17182908.38949 -13377276.97147  22122578.578    22122582.099
  20758834.293   -25880814.13249 -20148453.57148  20758834.598    20758837.649
  22357504.887   -16879067.61949 -12894763.44147  22357504.722    22357509.726
  22754567.953   -14159483.07949 -10776216.63946  22754567.521    22754572.349
  23848984.325    -9884767.36649  -7475589.48545  23848984.262    23848990.050
  20656041.988   -24587720.93749 -18404481.44648  20656041.740    20656046.034
  24740614.846    -4605426.80249  -3577220.01745  24740614.569    24740621.556
 04  5 19  4  2  0.0000000  0  7G16G13G27G20G 3G 1G 8
  22134910.498   -17118104.65349 -13326780.56347  22134910.320    22134913.881
  20750286.419   -25925733.43049 -20183455.59548  20750286.715    20750289.789
  22347221.884   -16933105.06949 -12936870.51747  22347221.730    22347226.683
  22774335.839   -14055602.20849 -10695270.53946  22774335.426    22774340.246
  23836351.434    -9951153.23349  -7527318.66145  23836351.338    23836357.203
  20661006.827   -24561630.50049 -18384151.23348  20661006.593    20661010.854
  24723714.610    -4694238.12649  -3646423.52545  24723714.319    24723721.239
 04  5 19  4  2 30.0000000  0  7G16G13G27G20G 3G 1G 8
  22147326.219   -17052859.70249 -13275940.35347  22147326.025    22147329.592
  20741793.779   -25970362.38149 -20218231.37748  20741794.085    20741797.133
  22336971.979   -16986968.39349 -12978841.91047  22336971.836    22336976.792
  22794147.100   -13951493.72449 -10614147.07446  22794146.650    22794151.484
  23823770.517   -10017266.13049  -7578835.14345  23823770.447    23823776.270
  20666037.272   -24535195.27549 -18363552.35148  20666037.030    20666041.311
  24706833.076    -4782951.04549  -3715550.33045  24706832.756    24706839.601
 04  5 19  4  3  0.0000000  0  7G16G13G27G20G 3G 1G 8
  22159825.054   -16987178.08649 -13224759.88447  22159824.862    22159828.389
  20733356.261   -26014701.77149 -20252781.53348  20733356.566    20733359.607
  22326754.734   -17040659.97049 -13020679.47847  22326754.609    22326759.585
  22814000.619   -13847162.87049 -10532850.33146  22814000.166    22814005.005
  23811241.591   -10083105.51649  -7630138.49045  23811241.491    23811247.341
  20671133.010   -24508416.92249 -18342686.10048  20671132.763    20671137.050
  24689969.716    -4871567.48949  -3784601.97345  24689969.500    24689976.287
 04  5 19  4  3 30.0000000  0  7G16G13G27G20G 3G 1G 8
  22172407.238   -16921058.26949 -13173237.95147  22172407.032    22172410.570
  20724974.910   -26058745.93049 -20287101.62948  20724975.218    20724978.266
  22316570.938   -17094176.11049 -13062380.33747  22316570.790    22316575.787
  22833896.703   -13742608.51949 -10451379.44846  22833896.262    22833901.105
  23798766.084   -10148664.43249  -7681223.28645  23798766.067    23798771.882
  20676294.890   -24481291.09149 -18321549.08048  20676294.639    20676298.926
  24673125.448    -4960083.15849  -3853575.09045  24673125.182    24673132.280
 04  5 19  4  4  0.0000000  0  7G16G13G27G20G 3G 1G 8
  22185071.685   -16854506.02249 -13121379.07247  22185071.515    22185075.059
  20716649.398   -26102496.78749 -20321193.18748  20716649.712    20716652.743
  22306419.849   -17147520.38949 -13103947.28947  22306419.717    22306424.678
  22853834.053   -13637836.95249 -10369739.29046  22853833.620    22853838.519
  23786343.920   -10213943.26049  -7732089.85145  23786343.807    23786349.679
  20681522.349   -24453820.64449 -18300143.53948  20681522.110    20681526.382
  24656299.877    -5048501.00949  -3922472.00045  24656299.649    24656306.828
 04  5 19  4  4 30.0000000  0  7G16G13G27G20G 3G 1G 8
  22197818.318   -16787522.18849 -13069183.88347  22197818.120    22197821.713
  20708380.276   -26145951.14749 -20355053.70548  20708380.596    20708383.626
  22296301.704   -17200691.55549 -13145379.34547  22296301.562    22296306.526
  22873812.556   -13532849.41749 -10287930.85246  22873812.109    22873817.016
  23773975.823   -10278937.83749  -7782734.91145  23773975.719    23773981.519
  20686815.727   -24426003.69149 -18278467.98848  20686815.476    20686819.775
  24639493.465    -5136819.04749  -3991291.12045  24639493.204    24639500.372
 04  5 19  4  5  0.0000000  0  7G16G13G27G20G 3G 1G 8
  22210646.723   -16720108.54149 -13016653.78647  22210646.519    22210650.118
  20700167.923   -26189107.18149 -20388681.76548  20700168.232    20700171.263
  22286216.609   -17253689.17349 -13186676.16747  22286216.473    22286221.406
  22893831.708   -13427648.28749 -10205955.97046  22893831.280    22893836.181
  23761662.494   -10343644.45849  -7833155.58245  23761662.354    23761668.189
  20692175.227   -24397839.25149 -18256521.67948  20692174.985    20692179.278
  24622706.087    -5225036.62349  -4060031.96145  24622705.846    24622712.986
 04  5 19  4  5 30.0000000  0  7G16G13G27G20G 3G 1G 8
  22223556.034   -16652269.67449 -12963792.33847  22223555.823    22223559.411
  20692012.328   -26231965.18849 -20422077.59748  20692012.638    20692015.662
  22276164.036   -17306515.73049 -13227839.71947  22276163.912    22276168.815
  22913890.575   -13322238.29449 -10123818.33746  22913890.134    22913895.067
  23749404.110   -10408062.40849  -7883351.32845  23749403.970    23749409.710
  20697600.526   -24369329.00749 -18234305.91448  20697600.299    20697604.594
  24605937.525    -5313155.31349  -4128695.75045  24605937.275    24605944.526
 04  5 19  4  6  0.0000000  0  7G16G13G27G20G 3G 1G 8
  22236546.255   -16584005.83149 -12910599.74847  22236546.059    22236549.611
  20683914.124   -26274521.42749 -20455238.28448  20683914.444    20683917.441
  22266144.480   -17359168.99449 -13268868.20947  22266144.339    22266149.236
  22933988.987   -13216620.36849 -10041518.67346  22933988.561    22933993.494
  23737201.694   -10472186.48849  -7933318.07645  23737201.527    23737207.188
  20703092.152   -24340470.34049 -18211818.64548  20703091.928    20703096.246
  24589188.408    -5401172.38249  -4197280.37045  24589188.139    24589195.345
 04  5 19  4  6 30.0000000  0  7G16G13G27G20G 3G 1G 8
  22249616.703   -16515320.18049 -12857078.47347  22249616.511    22249620.064
  20675873.509   -26316775.16449 -20488163.25148  20675873.820    20675876.812
  22256157.647   -17411650.14849 -13309762.59547  22256157.493    22256162.368
  22954126.318   -13110798.01649  -9959059.72846  22954125.879    22954130.830
  23725055.574   -10536014.64449  -7983054.23145  23725055.526    23725061.043
  20708649.988   -24311263.70849 -18189060.24048  20708649.760    20708654.091
  24572458.584    -5489088.35549  -4265786.22245  24572458.271    24572465.435
 04  5 19  4  7  0.0000000  0  7G16G13G27G20G 3G 1G 8
  22262766.937   -16446215.45849 -12803230.65747  22262766.737    22262770.266
  20667890.622   -26358725.37649 -20520851.70748  20667890.937    20667893.904
  22246203.411   -17463959.98149 -13350523.46847  22246203.244    22246208.100
  22974301.853   -13004774.84249  -9876444.30046  22974301.392    22974306.421
  23712966.185   -10599544.70749  -8032558.11745  23712966.135    23712971.598
  20714274.002   -24281709.18549 -18166030.74948  20714273.787    20714278.107
  24555747.921    -5576903.24349  -4334213.30945  24555747.580    24555754.772
 04  5 19  4  7 30.0000000  0  7G16G13G27G20G 3G 1G 8
  22275996.689   -16376692.71549 -12749057.10547  22275996.488    22276000.027
  20659966.076   -26400369.14849 -20553301.37248  20659966.383    20659969.332
  22236282.066   -17516097.09149 -13391149.76247  22236281.882    22236286.757
  22994515.315   -12898552.20249  -9793673.45446  22994514.889    22994519.902
  23700934.303   -10662772.25249  -8081826.26545  23700934.225    23700939.720
  20719964.652   -24251804.78749 -18142728.62748  20719964.427    20719968.749
  24539056.795    -5664615.43049  -4402560.37945  24539056.395    24539063.596
 04  5 19  4  8  0.0000000  0  7G16G13G27G20G 3G 1G 8
  22289305.221   -16306756.01349 -12694560.99547  22289305.025    22289308.512
  20652099.935   -26441706.07849 -20585511.95048  20652100.239    20652103.174
  22226393.199   -17568063.25649 -13431642.86047  22226393.018    22226397.874
  23014765.989   -12792134.22749  -9710750.40346  23014765.569    23014770.583
  23688960.287   -10725695.79149  -8130857.53045  23688960.124    23688965.789
  20725721.675   -24221551.45249 -18119154.61448  20725721.442    20725725.771
  24522385.057    -5752225.99149  -4470828.26345  24522384.597    24522391.743
 04  5 19  4  8 30.0000000  0  7G16G13G27G20G 3G 1G 8
  22302692.296   -16236406.50749 -12639743.20847  22302692.078    22302695.592
  20644292.669   -26482733.37849 -20617481.25748  20644292.973    20644295.894
  22216537.067   -17619857.46749 -13472001.95147  22216536.872    22216541.730
  23035053.506   -12685522.78849  -9627676.58646  23035053.085    23035058.031
  23677044.871   -10788311.30249  -8179648.76245  23677044.773    23677050.460
  20731545.379   -24190947.68549 -18095307.52448  20731545.150    20731549.479
  24505732.776    -5839733.63649  -4539015.95145  24505732.345    24505739.603
 04  5 19  4  9  0.0000000  0  7G16G13G27G20G 3G 1G 8
  22316157.354   -16165647.18349 -12584606.09447  22316157.146    22316160.657
  20636544.455   -26523450.37649 -20649208.77148  20636544.757    20636547.668
  22206713.523   -17671480.45849 -13512227.62147  22206713.342    22206718.219
  23055377.198   -12578721.21249  -9544454.59746  23055376.765    23055381.706
  23665188.566   -10850616.39649  -8228198.13345  23665188.471    23665194.129
  20737435.776   -24159993.52949 -18071187.40648  20737435.542    20737439.858
  24489100.141    -5927137.64649  -4607122.88645  24489099.730    24489106.994
 04  5 19  4  9 30.0000000  0  7G16G13G27G20G 3G 1G 8
  22329700.209   -16094478.99049 -12529150.38047  22329699.980    22329703.516
  20628855.905   -26563853.90449 -20680692.02448  20628856.220    20628859.118
  22196922.740   -17722931.02249 -13552318.93647  22196922.580    22196927.440
  23075736.786   -12471730.82949  -9461085.50146  23075736.380    23075741.313
  23653392.096   -10912606.86349  -8276502.34245  23653392.018    23653397.644
  20743393.129   -24128687.36149 -18046793.00148  20743392.888    20743397.219
  24472487.533    -6014436.98549  -4675148.27745  24472487.219    24472494.415
 04  5 19  4 10  0.0000000  0  7G16G13G27G20G 3G 1G 8
  22343320.055   -16022906.28149 -12473379.45047  22343319.852    22343323.375
  20621226.976   -26603944.15649 -20711931.17048  20621227.291    20621230.164
  22187164.419   -17774211.43649 -13592277.66447  22187164.266    22187169.090
  23096131.436   -12364556.59149  -9377573.14346  23096131.001    23096135.915
  23641655.608   -10974282.05749  -8324560.86245  23641655.582    23641661.221
  20749417.215   -24097030.62849 -18022125.41648  20749416.977    20749421.297
  24455894.629    -6101633.33149  -4743093.41945  24455894.226    24455901.429
 04  5 19  4 10 30.0000000  0  7G16G13G27G20G 3G 1G 8
  22357016.287   -15950931.94149 -12417295.56347  22357016.100    22357019.608
  20613657.874   -26643720.06949 -20742925.37348  20613658.181    20613661.057
  22177438.318   -17825322.21449 -13632104.20047  22177438.159    22177442.990
  23116560.412   -12257201.64949  -9293919.95946  23116559.948    23116564.910
  23629979.676   -11035639.26049  -8372371.61045  23629979.635    23629985.192
  20755508.013   -24065023.28649 -17997184.62948  20755507.771    20755512.103
  24439321.402    -6188725.93149  -4810957.72045  24439321.030    24439328.103
 04  5 19  4 11  0.0000000  0  7G16G13G27G20G 3G 1G 8
  22370789.095   -15878555.53349 -12360898.38447  22370788.885    22370792.383
  20606149.460   -26683176.92749 -20773670.97248  20606149.759    20606152.640
  22167745.028   -17876260.47249 -13671796.31047  22167744.890    22167749.724
  23137023.833   -12149665.85149  -9210125.84646  23137023.353    23137028.322
  23618365.412   -11096672.57549  -8419929.97545  23618365.316    23618370.895
  20761666.160   -24032662.09549 -17971968.11748  20761665.928    20761670.232
  24422768.439    -6275712.17149  -4878739.16645  24422768.009    24422775.112
 04  5 19  4 11 30.0000000  0  7G16G13G27G20G 3G 1G 8
  22384637.557   -15805781.45349 -12304191.32447  22384637.368    22384640.879
  20598701.646   -26722315.35049 -20804168.44648  20598701.955    20598704.837
  22158084.166   -17927028.40949 -13711355.70147  22158084.028    22158088.885
  23157520.701   -12041954.02149  -9126194.57746  23157520.242    23157525.230
  23606812.915   -11157381.03649  -8467235.21645  23606812.834    23606818.409
  20767891.313   -23999948.69449 -17946477.15948  20767891.088    20767895.396
  24406235.486    -6362593.37949  -4946438.73845  24406235.055    24406242.048
 04  5 19  4 12  0.0000000  0  7G16G13G27G20G 3G 1G 8
  22398561.215   -15732612.27849 -12247176.39346  22398560.999    22398564.524
  20591314.741   -26761133.89149 -20834416.65648  20591315.049    20591317.911
  22148455.626   -17977626.46749 -13750782.71447  22148455.493    22148460.352
  23178050.523   -11934069.34449  -9042128.61046  23178050.070    23178055.059
  23595322.742   -11217762.16649  -8514285.38245  23595322.678    23595328.160
  20774183.492   -23966882.91849 -17920711.61948  20774183.252    20774187.591
  24389722.482    -6449369.11849  -5014056.13145  24389722.107    24389729.164
 04  5 19  4 12 30.0000000  0  7G16G13G27G20G 3G 1G 8
  22412559.517   -15659050.88649 -12189855.84046  22412559.298    22412562.824
  20583988.893   -26799631.28749 -20864414.62348  20583989.201    20583992.080
  22138859.375   -18028055.10749 -13790077.71247  22138859.237    22138864.069
  23198612.646   -11826014.67649  -8957930.20346  23198612.185    23198617.149
  23583895.305   -11277813.47349  -8561078.55645  23583895.179    23583900.712
  20780542.800   -23933464.53049 -17894671.31748  20780542.570    20780546.911
  24373229.686    -6536039.61949  -5081591.52445  24373229.334    24373236.231
 04  5 19  4 13  0.0000000  0  7G16G13G27G20G 3G 1G 8
  22426632.182   -15585098.61749 -12132230.71246  22426631.956    22426635.508
  20576724.665   -26837804.94249 -20894160.32048  20576724.970    20576727.838
  22129295.531   -18078313.50449 -13829240.05347  22129295.378    22129300.174
  23219206.737   -11717792.19149  -8873601.01746  23219206.298    23219211.284
  23572531.375   -11337530.94649  -8607611.59045  23572531.286    23572536.759
  20786969.485   -23899692.22449 -17868355.23448  20786969.241    20786973.584
  24356757.135    -6622603.37149  -5149043.77145  24356756.868    24356763.629
 04  5 19  4 13 30.0000000  0  7G16G13G27G20G 3G 1G 8
  22440778.777   -15510757.73149 -12074302.76946  22440778.552    22440782.102
  20569522.471   -26875652.64749 -20923652.03148  20569522.796    20569525.687
  22119764.049   -18128401.69649 -13868269.77947  22119763.876    22119768.664
  23239832.303   -11609404.23749  -8789142.90046  23239831.859    23239836.858
  23561231.602   -11396911.83949  -8653882.37445  23561231.519    23561236.891
  20793463.589   -23865565.45449 -17841762.94648  20793463.345    20793467.694
  24340304.987    -6709059.55249  -5216412.15645  24340304.748    24340311.479
 04  5 19  4 14  0.0000000  0  7G16G13G27G20G 3G 1G 8
  22454998.640   -15436031.96049 -12016074.90046  22454998.418    22455001.959
  20562382.330   -26913174.12649 -20952889.53948  20562382.649    20562385.540
  22110264.685   -18178321.09949 -13907167.97147  22110264.503    22110269.269
  23260488.528   -11500855.08649  -8704559.18346  23260488.059    23260493.076
  23549996.170   -11455954.27949  -8699889.43145  23549996.057    23550001.434
  20800024.995   -23831084.98449 -17814895.04648  20800024.753    20800029.096
  24323873.144    -6795409.44949  -5283697.71245  24323872.803    24323879.556
 04  5 19  4 14 30.0000000  0  7G16G13G27G20G 3G 1G 8
  22469291.580   -15360921.90149 -11957547.59346  22469291.353    22469294.938
  20555304.964   -26950366.06749 -20981870.26548  20555305.268    20555308.165
  22100797.705   -18228070.02649 -13945933.32747  22100797.536    22100802.297
  23281175.236   -11392145.53749  -8619850.47746  23281174.808    23281179.872
  23538826.067   -11514653.49049  -8745629.03445  23538825.900    23538831.233
  20806654.117   -23796248.68549 -17787749.87448  20806653.883    20806658.207
  24307461.931    -6881650.64649  -5350898.59145  24307461.555    24307468.232
 04  5 19  4 15  0.0000000  0  7G16G13G27G20G 3G 1G 8
  22483656.744   -15285432.47349 -11898724.67846  22483656.529    22483660.118
  20548290.084   -26987229.47749 -21010594.98948  20548290.395    20548293.266
  22091362.720   -18277651.09649 -13984567.89547  22091362.558    22091367.326
  23301891.474   -11283281.02549  -8535021.02146  23301891.027    23301896.164
  23527721.276   -11573009.39849  -8791101.11545  23527721.118    23527726.404
  20813350.524   -23761058.80049 -17760329.18448  20813350.297    20813354.600
  24291070.933    -6967785.49549  -5418016.63245  24291070.512    24291077.149
 04  5 19  4 15 30.0000000  0  7G16G13G27G20G 3G 1G 8
  22498094.171   -15209563.39149 -11839605.92846  22498093.954    22498097.518
  20541338.620   -27023759.68249 -21039060.07748  20541338.927    20541341.780
  22081960.171   -18327061.66049 -14023069.59347  22081960.007    22081964.741
  23322637.232   -11174261.45349  -8450070.74746  23322636.755    23322641.971
  23516682.917   -11631016.26649  -8836301.21745  23516682.769    23516688.035
  20820114.898   -23725511.99249 -17732630.36848  20820114.655    20820118.954
  24274700.888    -7053810.45049  -5485049.00245  24274700.455    24274707.008
 04  5 19  4 16  0.0000000  0  7G16G13G27G20G 3G 1G 8
  22512602.995   -15133319.01749 -11780194.73646  22512602.789    22512606.319
  20534450.515   -27059956.94549 -21067265.72648  20534450.816    20534453.665
  22072589.697   -18376303.64849 -14061439.93947  22072589.544    22072594.250
  23343411.565   -11065091.37049  -8365003.18546  23343411.093    23343416.405
  23505711.119   -11688673.24149  -8881228.68645  23505711.005    23505716.235
  20826946.848   -23689609.78449 -17704654.61948  20826946.615    20826950.895
  24258351.464    -7139726.77349  -5551996.73345  24258351.053    24258357.726
 04  5 19  4 16 30.0000000  0  7G16G13G27G20G 3G 1G 8
  22527182.782   -15056701.96049 -11720493.14746  22527182.566    22527186.106
  20527626.011   -27095819.91049 -21095210.89048  20527626.330    20527629.153
  22063251.215   -18425377.70349 -14099679.42947  22063251.039    22063255.738
  23364213.969   -10955774.04649  -8279820.89146  23364213.582    23364218.859
  23494806.444   -11745977.66449  -8925881.43745  23494806.344    23494811.607
  20833846.424   -23653352.26549 -17676402.01048  20833846.178    20833850.451
  24242022.683    -7225534.58649  -5618859.90245  24242022.347    24242028.991
 04  5 19  4 17  0.0000000  0  7G16G13G27G20G 3G 1G 8
  22541833.183   -14979713.59849 -11660502.22146  22541832.974    22541836.542
  20520865.666   -27131345.89749 -21122893.47148  20520865.970    20520868.804
  22053944.871   -18474282.75549 -14137787.23947  22053944.702    22053949.376
  23385044.159   -10846311.08449  -8194525.09546  23385043.751    23385049.001
  23483969.611   -11802925.55049  -8970256.36645  23483969.516    23483974.656
  20840813.895   -23616738.07449 -17647871.47048  20840813.655    20840817.918
  24225714.841    -7311232.57749  -5685637.48345  24225714.537    24225721.126
 04  5 19  4 17 30.0000000  0  7G16G13G27G20G 3G 1G 8
  22556553.580   -14902357.27649 -11600224.58946  22556553.393    22556556.947
  20514169.558   -27166534.15049 -21150312.88548  20514169.856    20514172.698
  22044670.488   -18523019.84749 -14175764.16447  22044670.322    22044675.011
  23405901.317   -10736706.30549  -8109118.81746  23405900.901    23405906.138
  23473200.911   -11859514.93249  -9014351.93846  23473200.811    23473206.076
  20847849.136   -23579767.53349 -17619063.25748  20847848.885    20847853.159
  24209427.845    -7396821.16749  -5752329.83245  24209427.602    24209434.194
 04  5 19  4 18  0.0000000  0  7G16G13G27G20G 3G 1G 8
  22571343.568   -14824635.40849 -11539662.10846  22571343.384    22571346.977
  20507538.059   -27201382.75249 -21177467.62948  20507538.377    20507541.233
  22035428.064   -18571588.81149 -14213610.08247  22035427.911    22035432.594
  23426784.993   -10626961.99249  -8023603.79446  23426784.585    23426789.828
  23462501.038   -11915743.03649  -9058166.00846  23462500.999    23462506.170
  20854952.346   -23542440.10349 -17589976.94748  20854952.097    20854956.347
  24193161.856    -7482299.40249  -5818936.19045  24193161.493    24193168.165
 04  5 19  4 18 30.0000000  0  7G16G13G27G20G 3G 1G 8
  22586202.892   -14746549.40749 -11478815.88246  22586202.677    22586206.249
  20500971.752   -27235888.96949 -21204355.58448  20500972.072    20500974.917
  22026217.787   -18619988.98149 -14251324.46947  22026217.637    22026222.325
  23447694.816   -10517080.19949  -7937981.66246  23447694.399    23447699.648
  23451870.688   -11971606.01149  -9101695.55546  23451870.618    23451875.794
  20862123.681   -23504754.51149 -17560611.55648  20862123.423    20862127.671
  24176916.981    -7567666.26449  -5885455.76445  24176916.669    24176923.355
 04  5 19  4 19  0.0000000  0  7G16G13G27G20G 3G 1G 8
  22601130.599   -14668103.82449 -11417689.47046  22601130.413    22601133.962
  20494470.454   -27270053.46149 -21230977.25848  20494470.773    20494473.623
  22017039.251   -18668222.43149 -14288908.94747  22017039.091    22017043.809
  23468629.939   -10407065.66349  -7852256.08646  23468629.506    23468634.694
  23441309.889   -12027103.11249  -9144939.99346  23441309.849    23441314.960
  20869362.817   -23466712.48849 -17530968.42548  20869362.571    20869366.807
  24160693.069    -7652923.43249  -5951889.86245  24160692.741    24160699.519
 04  5 19  4 19 30.0000000  0  7G16G13G27G20G 3G 1G 8
  22616126.403   -14589300.40549 -11356284.22546  22616126.212    22616129.766
  20488034.667   -27303873.67449 -21257330.65548  20488034.969    20488037.829
  22007892.531   -18716288.66349 -14326363.12847  22007892.373    22007897.083
  23489589.941   -10296920.46049  -7766428.68546  23489589.515    23489594.671
  23430819.351   -12082230.95349  -9187896.69046  23430819.342    23430824.405
  20876669.987   -23428312.96649 -17501046.72748  20876669.742    20876673.997
  24144490.256    -7738069.82449  -6018237.63045  24144489.888    24144496.677
 04  5 19  4 20  0.0000000  0  7G16G13G27G20G 3G 1G 8
  22631190.106   -14510140.21949 -11294600.98146  22631189.903    22631193.460
  20481664.930   -27337346.84649 -21283413.63248  20481665.228    20481668.100
  21998777.870   -18764186.46949 -14363686.06547  21998777.703    21998782.403
  23510574.541   -10186646.21649  -7680500.73746  23510574.109    23510579.204
  23420399.888   -12136985.52449  -9230562.52946  23420399.795    23420404.918
  20884045.493   -23389554.52349 -17470845.35448  20884045.246    20884049.506
  24128308.760    -7823103.83649  -6084497.83545  24128308.409    24128315.090
 04  5 19  4 20 30.0000000  0  8G16G13G27G20G 3G 1G 8G19
  22646321.115   -14430626.30149 -11232642.10046  22646320.898    22646324.450
  20475361.489   -27370471.64549 -21309225.14948  20475361.792    20475364.645
  21989695.101   -18811916.52749 -14400878.28247  21989694.941    21989699.638
  23531583.113   -10076246.03049  -7594474.64446  23531582.644    23531587.755
  23410051.777   -12191364.65949  -9272935.81446  23410051.698    23410056.901
  20891489.210   -23350437.47649 -17440364.54048  20891488.963    20891493.249
  24112148.774    -7908024.97049  -6150670.07145  24112148.397    24112155.084
  24722263.680    -3951405.30459  -3069009.83845  24722262.954    24722267.230
 04  5 19  4 21  0.0000000  0  8G16G13G27G20G 3G 1G 8G19
  22661518.510   -14350763.34549 -11170411.24746  22661518.288    22661521.877
  20469124.219   -27403248.65349 -21334765.66348  20469124.540    20469127.376
  21980643.843   -18859481.05649 -14437941.52547  21980643.677    21980648.367
  23552614.710    -9965724.68249  -7508354.15046  23552614.175    23552619.370
  23399775.352   -12245367.56549  -9315015.93846  23399775.253    23399780.435
  20899000.813   -23310963.66649 -17409605.74048  20899000.573    20899004.839
  24096009.826    -7992835.46949  -6216756.10845  24096009.460    24096016.112
  24706338.575    -4035091.88149  -3134220.08945  24706337.749    24706342.130
 04  5 19  4 21 30.0000000  0  8G16G13G27G20G 3G 1G 8G19
  22676782.369   -14270551.27849 -11107908.35246  22676782.150    22676785.760
  20462953.946   -27435673.62349 -21360031.86248  20462954.262    20462957.094
  21971624.580   -18906877.62649 -14474873.88247  21971624.411    21971629.071
  23573669.243    -9855082.54049  -7422139.50546  23573668.729    23573673.786
  23389571.469   -12298989.03049  -9356798.83546  23389571.417    23389576.575
  20906580.899   -23271130.16549 -17378566.64948  20906580.645    20906584.916
  24079892.436    -8077532.46449  -6282753.70345  24079892.098    24079898.725
  24690419.235    -4118748.19149  -3199406.73645  24690418.359    24690422.782
 04  5 19  4 22  0.0000000  0  8G16G13G27G20G 3G 1G 8G19
  22692111.981   -14189993.69849 -11045136.22546  22692111.758    22692115.388
  20456850.764   -27467745.93749 -21385023.26248  20456851.087    20456853.909
  21962636.991   -18954107.66149 -14511676.47747  21962636.823    21962641.466
  23594746.001    -9744323.54649  -7335833.83446  23594745.507    23594750.591
  23379440.426   -12352227.42649  -9398283.24246  23379440.400    23379445.640
  20914229.292   -23230937.60749 -17347247.77248  20914229.051    20914233.300
  24063796.682    -8162116.05349  -6348662.91045  24063796.321    24063802.918
  24674505.958    -4202372.19549  -3264568.23245  24674505.176    24674509.525
 04  5 19  4 22 30.0000000  0  8G16G13G27G20G 3G 1G 8G19
  22707506.714   -14109093.89049 -10982097.43146  22707506.490    22707510.113
  20450814.809   -27499465.08449 -21409739.46948  20450815.125    20450817.945
  21953680.926   -19001171.91649 -14548349.89647  21953680.763    21953685.411
  23615844.284    -9633451.14949  -7249439.80545  23615843.832    23615848.910
  23369382.687   -12405080.94249  -9439467.73846  23369382.653    23369387.912
  20921945.868   -23190386.78549 -17315649.73948  20921945.628    20921949.866
  24047722.304    -8246587.34049  -6414484.61145  24047721.968    24047728.519
  24658599.386    -4285961.83149  -3329702.93945  24658598.588    24658602.935
 04  5 19  4 23  0.0000000  0  8G16G13G27G20G 3G 1G 8G19
  22722966.457   -14027852.51749 -10918792.49046  22722966.227    22722969.846
  20444846.725   -27530827.51549 -21434177.71948  20444847.057    20444849.842
  21944756.722   -19048068.83049 -14584892.92347  21944756.571    21944761.181
  23636963.912    -9522466.51749  -7162958.31445  23636963.491    23636968.672
  23359399.028   -12457545.22649  -9480348.94446  23359398.984    23359404.215
  20929730.975   -23149475.63349 -17283770.92848  20929730.749    20929735.013
  24031669.737    -8330943.96949  -6480216.96646  24031669.431    24031675.960
  24642700.298    -4369512.30649  -3394807.13945  24642699.444    24642703.755
 04  5 19  4 23 30.0000000  0  8G16G13G27G20G 3G 1G 8G19
  22738490.456   -13946273.39849 -10855224.35846  22738490.241    22738493.818
  20438946.579   -27561832.93049 -21458337.77548  20438946.902    20438949.696
  21935864.129   -19094799.68149 -14621306.54447  21935863.948    21935868.562
  23658104.138    -9411373.66649  -7076392.48545  23658103.765    23658108.947
  23349489.789   -12509618.72949  -9520925.64146  23349489.715    23349494.910
  20937584.512   -23108205.15749 -17251612.12948  20937584.292    20937588.546
  24015638.878    -8415186.72849  -6545860.60046  24015638.539    24015645.069
  24626808.838    -4453021.93649  -3459879.52545  24626808.095    24626812.302
 04  5 19  4 24  0.0000000  0  8G16G13G27G20G 3G 1G 8G19
  22754078.174   -13864359.30649 -10791395.21746  22754077.930    22754081.561
  20433114.591   -27592480.20249 -21482218.75348  20433114.909    20433117.722
  21927002.982   -19141365.14049 -14657591.28447  21927002.822    21927007.418
  23679264.394    -9300175.67449  -6989744.73045  23679264.027    23679269.238
  23339655.281   -12561299.14649  -9561196.03746  23339655.193    23339660.471
  20945506.354   -23066575.56349 -17219173.48948  20945506.128    20945510.391
  23999629.665    -8499315.52649  -6611415.41846  23999629.313    23999635.853
  24610925.713    -4536488.14149  -3524918.06545  24610924.941    24610929.169
 04  5 19  4 24 30.0000000  0  8G16G13G27G20G 3G 1G 8G19
  22769729.281   -13782112.17749 -10727306.55546  22769729.025    22769732.689
  20427351.305   -27622766.53949 -21505818.48048  20427351.619    20427354.442
  21918173.425   -19187764.53649 -14693746.61847  21918173.254    21918177.844
  23700444.336    -9188874.37749  -6903016.47845  23700444.004    23700449.174
  23329896.219   -12612583.17049  -9601157.56146  23329896.119    23329901.404
  20953496.754   -23024585.91449 -17186454.28948  20953496.526    20953500.781
  23983642.335    -8583329.23649  -6676880.56646  23983641.960    23983648.528
  24595051.642    -4619906.99649  -3589919.71045  24595050.861    24595055.140
 04  5 19  4 25  0.0000000  0  8G16G13G27G20G 3G 1G 8G19
  22785443.324   -13699534.21549 -10662960.10246  22785443.086    22785446.780
  20421656.974   -27652690.41349 -21529135.77048  20421657.291    20421660.094
  21909375.530   -19233997.73949 -14729772.45947  21909375.375    21909379.934
  23721643.390    -9077472.67049  -6816209.99545  23721643.098    23721648.144
  23320213.178   -12663467.76149  -9640807.83546  23320213.053    23320218.340
  20961555.709   -22982235.79549 -17153454.20348  20961555.477    20961559.723
  23967676.874    -8667227.74049  -6742255.94346  23967676.533    23967683.174
  24579187.178    -4703275.49949  -3654882.11845  24579186.343    24579190.577
 04  5 19  4 25 30.0000000  0  8G16G13G27G20G 3G 1G 8G19
  22801219.498   -13616629.91549 -10598359.35946  22801219.294    22801222.963
  20416031.544   -27682252.20449 -21552170.91648  20416031.845    20416034.657
  21900608.799   -19280066.97949 -14765670.53947  21900608.624    21900613.194
  23742860.750    -8965975.18649  -6729328.87345  23742860.380    23742865.404
  23310606.208   -12713952.34649  -9680146.41446  23310606.093    23310611.446
  20969682.907   -22939527.06549 -17120174.67648  20969682.671    20969686.933
  23951733.193    -8751012.16449  -6807542.42046  23951732.871    23951739.489
  24563332.401    -4786592.48549  -3719804.38045  24563331.619    24563335.845
 04  5 19  4 26  0.0000000  0  8G16G13G27G20G 3G 1G 8G19
  22817057.747   -13533399.36149 -10533504.39346  22817057.530    22817061.227
  20410475.780   -27711447.87849 -21574920.78148  20410476.091    20410478.877
  21891873.766   -19325969.93049 -14801439.03047  21891873.601    21891878.162
  23764096.206    -8854382.13649  -6642373.29245  23764095.830    23764100.778
  23301076.257   -12764032.00249  -9719169.46046  23301076.220    23301081.517
  20977878.860   -22896456.97849 -17086613.57748  20977878.637    20977882.913
  23935811.683    -8834679.89749  -6872737.98346  23935811.363    23935817.928
  24547488.511    -4869852.54049  -3784682.28745  24547487.678    24547491.832
 04  5 19  4 26 30.0000000  0  8G16G13G27G20G 3G 1G 8G19
  22832957.419   -13449846.14649 -10468398.00446  22832957.203    22832960.868
  20404989.785   -27740276.92049 -21597384.96248  20404990.089    20404992.894
  21883170.104   -19371707.71649 -14837078.82247  21883169.947    21883174.512
  23785349.168    -8742697.27249  -6555346.16545  23785348.716    23785353.784
  23291623.718   -12813705.32649  -9757875.90146  23291623.625    23291628.910
  20986143.392   -22853026.68149 -17052771.79848  20986143.155    20986147.438
  23919912.148    -8918231.83049  -6937843.30746  23919911.840    23919918.490
  24531655.953    -4953053.62649  -3849514.24845  24531655.059    24531659.141
